     2              OBSERVATION DATA    GPS                 RINEX VERSION / TYPE
teqc 1997Sep10 19971010 23:18:42UTC                         PGM / RUN BY / DATE
                                                            COMMENT
Original Marker Name: KANE                                  COMMENT
Campaign Name: NGS Salton Trough 1991                       COMMENT
4-Character Station Name: KANE                              COMMENT
6-Character Antenna Code: TRMSST                            COMMENT
Vertical Measurement Point: BGP                             COMMENT
Vertical Offset to Rinex Ref. Point: 0.0597                 COMMENT
Radial Measurement Point: NGP                               COMMENT
Radial Offset to Rinex Ref. Point: 0.2334                   COMMENT
Antenna Height from Field Measurement: 0.9100 m             COMMENT
Original XYZ: -2330815.9958 -4816424.4975 3459673.9991      COMMENT
New XYZ position is based on association with SCEC monument COMMENT
E1C8Y9N7+0011. Position of that monument is believed to be  COMMENT
valid to within 1 m horizontally; vertical accuracy         COMMENT
should be no worse than 3-times this value.                 COMMENT
                                                            COMMENT
Revised Rinex header created by UCSD GPS archive for        COMMENT
GSAC on 10-Apr-1999 (1999:100) 08:00:32 GMT                 COMMENT
For assistance contact dagnew@ucsd.edu or hjohnson@ucsd.edu COMMENT
                                                            COMMENT
KANE 1939                                                   MARKER NAME
unknown NATIONAL GEODETIC SURVEY                            OBSERVER / AGENCY
486 TRIMBLE 4000 SST NP 4.30 / SP 4.20                      REC # / TYPE / VERS
20 TR 4000SST L1/L2 GEO                                     ANT # / TYPE
 -2330818.0000 -4816432.0000  3459675.0000                  APPROX POSITION XYZ
        0.8199        0.0000        0.0000                  ANTENNA: DELTA H/E/N
     1     1     0                                          WAVELENGTH FACT L1/2
     3    C1    L1    L2                                    # / TYPES OF OBSERV
     0                                                      INTERVAL
  1991     4     1    21    27   45.000000                  TIME OF FIRST OBS
  1991     4     2     2    53   60.000000                  TIME OF LAST OBS
     0                                                      # OF SATELLITES
                                                            END OF HEADER
 91  4  1 21 27 45.0000000  0  4G18G11G19G 2
  20496171.805       13070.734 8
  23331248.7584         -0.55856
  20837308.984          -0.31917
  23634269.383          -0.30416
 91  4  1 21 28  0.0000000  0  4G18G11G19G 2
  20496838.844       16577.900 8        -0.20133
  23323281.078      -41859.457 6
  20833972.8364     -17543.88847
  23623074.773      -58797.196 6
 91  4  1 21 28 15.0000000  0  4G18G11G19G 2
  20497525.500       20183.499 8      2809.33423
  23315336.8834     -83630.37946        -0.36471
  20830638.883      -35066.064 7        -0.39333
  23611896.773     -117562.034 6        -0.08731
 91  4  1 21 28 30.0000000  0  4G18G11G19G 2
  20498230.133       23889.397 8      5697.02223
  23307402.672     -125310.809 6    -32478.55321
  20827307.898      -52564.764 7    -13635.72023
  23600716.750     -176292.393 6    -45763.78121
 91  4  1 21 28 45.0000000  0  4G18G11G19G 2
  20498955.563       27696.047 8      8663.22123
  23299489.148     -166900.146 6    -64885.75321
  20823981.859      -70039.606 7    -27252.46022
  23589551.016     -234987.849 6    -91500.26521
 91  4  1 21 29  0.0000000  0  4G18G11G19G 2
  20499700.539       31611.113 8     11713.90323
  23291593.5634    -208390.08946    -97215.51061
  20820662.758      -87482.814 7    -40844.54122
  23578391.930     -293640.550 6   -137203.44321
 91  4  1 21 29 15.0000000  0  4G18G11G19G 2
  20500466.570       35643.007 8     14855.61723
  23283718.828     -249771.968 6   -129461.05621
  20817351.406     -104886.059 7    -54405.48722
  23567238.961     -352241.740 6   -182866.49421
 91  4  1 21 29 30.0000000  0  4G18G11G19G 2
  20501254.516       39774.991 8     18075.32423
  23275859.508     -291062.318 6   -161635.28821
  20814042.867     -122266.067 7    -67948.33022
  23556092.4064    -410808.09046   -228502.38661
 91  4  1 21 29 45.0000000  0  4G18G11G19G 2
  20502059.703       44011.167 8     21376.22123
  23268021.2504    -332256.26246   -193734.40161
  20810740.469     -139618.456 7    -81469.65322
  23544953.8134    -469335.30746   -274107.78961
 91  4  1 21 30  0.0000000  0  4G18G11G19G 2
  20502886.297       48352.169 8     24758.80323
  23260201.6094    -373353.17046   -225757.89261
  20807444.859     -156942.792 7    -94969.11222
  23533826.195     -527822.678 6   -319682.13721
 91  4  1 21 30 15.0000000  0  4G18G11G19G 2
  20503730.070       52790.380 8     28217.12823
  23252400.2894    -414360.07646   -257711.25461
  20804151.953     -174246.444 7   -108452.46122
  23522700.891     -586277.366 6   -365231.02421
 91  4  1 21 30 29.9990000  0  4G18G11G19G 2
  20504594.237       57331.253 8     31755.44623
  23244614.230     -455268.272 6   -289587.70121
  20800868.901     -191522.714 7   -121914.47222
  23511584.9404    -644689.66646   -410746.91461
 91  4  1 21 30 44.9990000  0  4G18G11G19G 2
  20505478.605       61977.129 8     35375.58723
  23236847.487     -496081.118 6   -321389.85621
  20797582.355     -208772.072 7   -135355.51222
  23500476.5504    -703065.69846   -456234.51261
 91  4  1 21 30 59.9990000  0  4G18G11G19G 2
  20506382.933       66728.699 8     39078.08623
  23229099.5504    -536794.25846   -353114.31361
  20794309.065     -225992.088 7   -148773.68622
  23489374.620     -761400.015 6   -501689.59621
 91  4  1 21 31 14.9990000  0  4G18G11G19G 2
  20507307.276       71582.443 8     42860.20423
  23221373.8084    -577411.26746   -384763.86161
  20791033.144     -243186.656 7   -162172.03222
  23478282.4254    -819696.33546   -547115.08561
 91  4  1 21 31 29.9990000  0  4G18G11G19G 2
  20508249.495       76540.131 8     46723.32023
  23213662.4874    -617929.91046   -416336.77061
  20787767.347     -260353.679 7   -175548.92022
  23467196.722     -877952.555 6   -592509.32721
 91  4  1 21 31 44.9990000  0  4G18G11G19G 2
  20509211.565       81593.586 8     50661.04923
  23205968.6514    -658357.85746   -447838.99761
  20784503.198     -277501.344 7   -188910.71422
  23456117.1204    -936176.62246   -637878.54161
 91  4  1 21 31 59.9990000  0  4G18G11G19G 2
  20510193.5894      86749.93048     54678.95563
  23198293.8784    -698687.63146   -479264.73661
  20781246.409     -294622.408 7   -202251.78722
  23445043.8944    -994361.20146   -683216.93461
 91  4  1 21 32 14.9990000  0  4G18G11G19G 2
  20511194.894       92016.667 8     58782.88823
  23190638.5584    -738911.12546   -510607.65261
  20777994.097     -311709.297 7   -215566.22622
  23433982.1054   -1052498.48146   -728518.51761
 91  4  1 21 32 29.9990000  0  4G18G11G19G 2
  20512217.175       97387.461 8     62967.90223
  23183003.5034    -779034.56946   -541872.61661
  20774747.612     -328768.491 7   -228859.08622
  23422923.815    -1110594.795 6   -773788.16621
 91  4  1 21 32 44.9990000  0  4G18G11G19G 2
  20513258.753      102857.753 8     67230.44323
  23175385.8624    -819062.19446   -573062.91961
  20771504.737     -345804.569 7   -242133.93722
  23411879.0424   -1168654.64346   -819029.39661
 91  4  1 21 32 59.9990000  0  4G18G11G19G 2
  20514318.5584     108429.78048     71572.25263
  23167786.8394    -858991.39646   -604176.52061
  20768268.651     -362815.059 7   -255388.84222
  23400833.9094   -1226675.56546   -864240.29361
 91  4  1 21 33 14.9990000  0  4G18G11G19G 2
  20515399.378      114106.667 8     75995.77423
  23160207.526     -898818.488 6   -635210.56221
  20765038.815     -379796.787 7   -268621.34922
  23389801.6674   -1284654.05646   -909418.13961
 91  4  1 21 33 29.9990000  0  4G18G11G19G 2
  20516498.042      119884.606 8     80498.04423
  23152648.901     -938546.923 6   -666167.71621
  20761810.183     -396753.544 7   -281834.39022
  23378777.401    -1342593.900 6   -954565.86621
 91  4  1 21 33 44.9990000  0  4G18G11G19G 2
  20517616.823      125757.749 8     85074.50023
  23145106.175     -978182.044 6   -697052.17721
  20758587.190     -413690.937 7   -295032.34322
  23367755.3084   -1400500.49046   -999687.69161
 91  4  1 21 33 59.9990000  0  4G18G11G19G 2
  20518753.690      131731.605 8     89729.43223
  23137579.6984   -1017718.17446   -727859.49561
  20755368.987     -430603.602 7   -308211.03122
  23356744.425    -1458368.397 6  -1044779.34721
 91  4  1 21 34 14.9990000  0  4G18G11G19G 2
  20519909.120      137811.415 8     94466.92823
  23130076.5344   -1057149.85446   -758585.41661
  20752156.511     -447486.206 7   -321366.28822
  23345743.456    -1516192.137 6  -1089836.60421
 91  4  1 21 34 29.9990000  0  4G18G11G19G 2
  20521086.667      143993.889 8     99284.41923
  23122595.136    -1096479.827 6   -789232.08821
  20748952.026     -464341.898 7   -334500.57722
  23334745.948    -1573974.595 6  -1134861.68921
 91  4  1 21 34 44.9990000  0  4G18G11G19G 2
  20522281.7694     150277.08348    104180.38163
  23115131.3474   -1135709.76346   -819800.82061
  20745745.706     -481172.675 7   -347615.45322
  23323757.933    -1631717.680 6  -1179856.11621
 91  4  1 21 34 59.9990000  0  4G18G11G19G 2
  20523497.730      156659.013 8    109153.29423
  23107682.440    -1174841.245 6   -850292.82621
  20742550.253     -497980.485 7   -360712.42922
  23312777.7224   -1689423.12846  -1224821.18461
 91  4  1 21 35 14.9990000  0  4G18G11G19G 2
  20524731.2924     163143.57648    114206.17663
  23100256.0264   -1213869.88946   -880704.68461
  20739355.151     -514761.283 7   -373788.36222
  23301802.1904   -1747086.88446  -1269753.79161
 91  4  1 21 35 29.9990000  0  4G18G11G19G 2
  20525983.659      169728.254 8    119337.07223
  23092849.870    -1252797.933 6   -911038.18521
  20736164.909     -531517.475 7   -386845.12222
  23290838.7304   -1804711.16046  -1314655.60361
 91  4  1 21 35 44.9990000  0  4G18G11G19G 2
  20527254.776      176408.893 8    124542.74523
  23085461.5654   -1291629.33046   -941296.35261
  20732981.612     -548253.365 7   -399886.05922
  23279878.7304   -1862300.21446  -1359530.01961
 91  4  1 21 35 59.9990000  0  4G18G11G19G 2
  20528543.7454     183182.82848    129821.11063
  23078088.855    -1330366.027 6   -971480.74221
  20729800.526     -564971.412 7   -412913.09022
  23268923.7224   -1919856.41346  -1404378.78761
 91  4  1 21 36 14.9990000  0  4G18G11G19G 2
  20529852.3704     190058.01848    135178.37163
  23070738.0654   -1368999.78446  -1001584.91061
  20726623.401     -581663.421 7   -425919.83122
  23257982.714    -1977371.569 6  -1449195.59521
 91  4  1 21 36 29.9990000  0  4G18G11G19G 2
  20531181.5974     197037.84048    140617.16163
  23063405.417    -1407526.910 6  -1031605.99621
  20723454.347     -598326.119 7   -438903.73322
  23247043.862    -2034842.131 6  -1493977.64721
 91  4  1 21 36 44.9990000  0  4G18G11G19G 2
  20532528.8394     204122.57648    146137.70663
  23056092.698    -1445946.686 6  -1061543.43621
  20720288.495     -614959.014 7   -451864.41422
  23236114.4484   -2092267.54346  -1538724.54161
 91  4  1 21 36 59.9990000  0  4G18G11G19G 2
  20533896.1054     211307.79848    151736.55563
  23048802.4724   -1484263.18746  -1091400.38761
  20717126.792     -631566.620 7   -464805.38922
  23225197.0584   -2149652.04446  -1583439.51761
 91  4  1 21 37 14.9990000  0  4G18G11G19G 2
  20535282.222      218592.409 8    157412.85023
  23041530.019    -1522477.157 6  -1121177.45821
  20713971.706     -648149.952 7   -477727.44522
  23214282.9564   -2206996.60246  -1628123.40661
 91  4  1 21 37 29.9990000  0  4G18G11G19G 2
  20536686.5654     225974.13748    163164.81863
  23034278.073    -1560590.528 6  -1150876.13521
  20710820.581     -664711.294 7   -490632.36922
  23203378.495    -2264303.341 6  -1672777.81121
 91  4  1 21 37 44.9990000  0  4G18G11G19G 2
  20538110.745      233453.380 8    168992.77423
  23027043.253    -1598602.423 6  -1180495.74121
  20707672.026     -681250.050 7   -503519.69022
  23192482.472    -2321571.528 6  -1717402.17421
 91  4  1 21 37 59.9990000  0  4G18G11G19G 2
  20539552.073      241028.909 8    174895.75823
  23019831.0344   -1636513.99646  -1210037.17261
  20704528.503     -697767.422 7   -516390.35222
  23181591.394    -2378802.313 6  -1761997.39121
 91  4  1 21 38 14.9990000  0  4G18G11G19G 2
  20541010.823      248698.039 8    180871.68023
  23012633.448    -1674327.220 6  -1239501.98521
  20701389.956     -714265.919 7   -529246.31022
  23170706.901    -2435997.963 6  -1806565.23721
 91  4  1 21 38 29.9990000  0  4G18G11G19G 2
  20542487.745      256460.620 8    186920.41823
  23005456.776    -1712042.050 6  -1268890.10921
  20698256.808     -730745.726 7   -542087.69922
  23159828.1204   -2493158.56046  -1851105.76761
 91  4  1 21 38 44.9990000  0  4G18G11G19G 2
  20543984.081      264317.424 8    193042.57223
  22998296.081    -1749657.400 6  -1298200.73221
  20695121.339     -747205.914 7   -554913.80322
  23148958.3554   -2550283.24446  -1895618.31261
 91  4  1 21 38 59.9990000  0  4G18G11G19G 2
  20545497.589      272273.080 8    199241.76323
  22991159.2374   -1787168.21346  -1327429.88861
  20691996.105     -763641.861 7   -567721.01522
  23138093.9954   -2607367.13346  -1940099.06761
 91  4  1 21 39 14.9990000  0  4G18G11G19G 2
  20547028.9014     280325.73048    205516.52863
  22984043.917    -1824576.021 6  -1356578.78521
  20688870.136     -780055.395 7   -580510.76422
  23127241.2064   -2664411.93746  -1984549.34961
 91  4  1 21 39 29.9990000  0  4G18G11G19G 2
  20548581.433      288484.231 8    211873.77623
  22976942.511    -1861871.641 6  -1385640.25821
  20685753.964     -796437.461 7   -593275.99022
  23116393.894    -2721408.565 6  -2028962.10921
 91  4  1 21 39 44.9990000  0  4G18G11G19G 2
  20550155.667      296753.125 8    218317.04623
  22969870.495    -1899050.157 6  -1414610.48521
  20682642.542     -812783.403 7   -606013.07122
  23105558.480    -2778352.274 6  -2073333.62821
 91  4  1 21 39 59.9990000  0  4G18G11G19G 2
  20551750.550      305133.724 8    224847.35623
  22962818.7304   -1936109.61246  -1443487.91961
  20679540.589     -829091.669 7   -618720.79022
  23094733.206    -2835241.336 6  -2117662.56321
 91  4  1 21 40 14.9990000  0  4G18G11G19G 2
  20553367.050      313628.469 8    231466.61623
  22955790.144    -1973047.368 6  -1472270.54021
  20676444.253     -845359.958 7   -631397.36622
  23083919.042    -2892073.138 6  -2161946.87221
 91  4  1 21 40 29.9990000  0  4G18G11G19G 2
  20555003.909      322232.075 8    238170.69923
  22948782.159    -2009868.373 6  -1500962.18721
  20673355.956     -861593.398 7   -644046.77922
  23073111.401    -2948852.953 6  -2206190.68521
 91  4  1 21 40 44.9990000  0  4G18G11G19G 2
  20556661.370      330940.852 8    244956.73323
  22941797.878    -2046575.791 6  -1529565.31821
  20670271.214     -877795.439 7   -656671.73022
  23062316.4644   -3005584.14346  -2250396.59761
 91  4  1 21 40 59.9990000  0  4G18G11G19G 2
  20558338.237      339749.108 8    251820.28523
  22934832.558    -2083174.920 6  -1558084.08121
  20667193.847     -893971.655 7   -669276.55322
  23051529.2374   -3062272.13446  -2294568.85461
 91  4  1 21 41 14.9990000  0  4G18G11G19G 2
  20560034.034      348659.980 8    258763.79423
  22927890.222    -2119662.338 6  -1586515.78721
  20664120.183     -910118.875 7   -681858.78522
  23040750.526    -3118913.601 6  -2338704.85921
 91  4  1 21 41 29.9990000  0  4G18G11G19G 2
  20561748.206      357670.929 7    265785.28523
  22920967.1984   -2156040.19446  -1614862.13561
  20661053.347     -926239.570 7   -694420.35022
  23029982.4484   -3175511.09746  -2382806.59561
 91  4  1 21 41 44.9990000  0  4G18G11G19G 2
  20563482.964      366784.629 8    272886.84423
  22914064.862    -2192305.368 6  -1643120.67521
  20657990.222     -942330.711 7   -706958.88622
  23019217.472    -3232061.542 6  -2426871.66621
 91  4  1 21 41 59.9990000  0  4G18G11G19G 2
  20565234.878      375994.724 8    280063.51723
  22907186.589    -2228464.138 6  -1671296.28321
  20654931.722     -958398.916 7   -719479.54922
  23008462.9174   -3288571.12046  -2470904.89361
 91  4  1 21 42 14.9990000  0  4G18G11G19G 2
  20567006.8704     385302.38648    287316.21263
  22900326.6594   -2264514.87046  -1699387.72961
  20651879.565     -974443.051 7   -731981.45722
  22997721.6904   -3345038.48846  -2514905.21861
 91  4  1 21 42 29.9990000  0  4G18G11G19G 2
  20568795.870      394702.503 8    294640.95123
  22893485.3154   -2300462.16046  -1727398.56361
  20648831.776     -990467.863 7   -744468.30922
  22986980.269    -3401468.510 6  -2558876.45321
 91  4  1 21 42 44.9990000  0  4G18G11G19G 2
  20570602.6204     404199.96448    302041.54363
  22886661.667    -2336301.047 6  -1755324.93221
  20645785.136    -1006468.681 7   -756936.46022
  22976250.4334   -3457856.28646  -2602814.78561
 91  4  1 21 42 59.9990000  0  4G18G11G19G 2
  20572428.5264     413794.95947    309518.13563
  22879864.2224   -2372030.75346  -1783166.22261
  20642748.526    -1022444.774 7   -769385.34822
  22965528.784    -3514201.146 6  -2646719.63221
 91  4  1 21 43 14.9990000  0  4G18G11G19G 2
  20574273.9014     423494.03347    317075.82263
  22873086.8084   -2407644.54246  -1810917.19161
  20639711.034    -1038389.765 7   -781809.99822
  22954816.8394   -3570496.66146  -2690586.05461
 91  4  1 21 43 29.9990000  0  4G18G11G19G 2
  20576139.1834     433294.49948    324712.51063
  22866332.3314   -2443144.32246  -1838579.33061
  20636685.386    -1054305.850 7   -794212.12822
  22944110.3944   -3626744.89146  -2734415.64561
 91  4  1 21 43 44.9990000  0  4G18G11G19G 2
  20578023.3474     443191.85748    332424.70763
  22859599.1754   -2478534.56846  -1866156.10461
  20633658.284    -1070197.737 7   -806595.40022
  22933414.4254   -3682950.31146  -2778211.85561
 91  4  1 21 43 59.9990000  0  4G18G11G19G 2
  20579924.4804     453189.35847    340214.93863
  22852884.862    -2513811.349 6  -1893644.47221
  20630640.3624   -1086061.70147   -818956.91962
  22922730.667    -3739109.344 6  -2821971.92521
 91  4  1 21 44 14.9990000  0  4G18G11G19G 2
  20581847.1674     463289.82047    348085.39863
  22846194.7374   -2548971.82846  -1921042.22161
  20627625.245    -1101895.316 7   -831294.78522
  22912050.472    -3795219.201 6  -2865693.67621
 91  4  1 21 44 29.9990000  0  4G18G11G19G 2
  20583790.0654     473497.56748    356039.45263
  22839526.0894   -2584011.22646  -1948345.60361
  20624621.292    -1117694.153 7   -843605.55222
  22901384.105    -3851275.359 6  -2909373.59821
 91  4  1 21 44 44.9990000  0  4G18G11G19G 2
  20585751.1984     483804.89948    364071.10663
  22832880.4484   -2618936.53746  -1975560.09361
  20621618.206    -1133465.403 7   -855894.82822
  22890725.6834   -3907285.01646  -2953017.25161
 91  4  1 21 44 59.9990000  0  4G18G11G19G 2
  20587732.6674     494214.40347    372182.37463
  22826258.4804   -2653745.19246  -2002683.69061
  20618623.276    -1149206.646 7   -868160.71522
  22880079.5504   -3963245.63246  -2996622.70961
 91  4  1 21 45 14.9990000  0  4G18G11G19G 2
  20589733.2304     504729.59447    380375.99463
  22819656.5344   -2688433.49346  -2029713.49861
  20615634.378    -1164914.201 7   -880400.35722
  22869438.2304   -4019153.58346  -3040187.16061
 91  4  1 21 45 29.9990000  0  4G18G11G19G 2
  20591753.7924     515345.71047    388648.26363
  22813075.7924   -2723005.40946  -2056652.62361
  20612651.581    -1180592.533 7   -892617.22322
  22858806.4334   -4075013.01846  -3083713.76261
 91  4  1 21 45 44.9990000  0  4G18G11G19G 2
  20593794.7064     526067.74348    397003.06063
  22806518.9254   -2757455.51846  -2083496.83361
  20609674.495    -1196236.526 7   -904807.33522
  22848189.2844   -4130818.74546  -3127198.53361
 91  4  1 21 45 59.9990000  0  4G18G11G19G 2
  20595852.7844     536886.54147    405433.25963
  22799983.3624   -2791792.88246  -2110253.18261
  20606702.401    -1211855.241 7   -916977.74822
  22837577.597    -4186579.922 6  -3170648.58921
 91  4  1 21 46 14.9990000  0  4G18G11G19G 2
  20597930.5194     547807.84647    413943.33163
  22793473.4954   -2826011.64546  -2136917.11761
  20603735.6444   -1227443.13047   -929124.14462
  22826973.925    -4242290.629 6  -3214059.32621
 91  4  1 21 46 29.9990000  0  4G18G11G19G 2
  20600027.8084     558826.80048    422529.49863
  22786984.198    -2860115.918 6  -2163491.84921
  20600773.753    -1243004.582 7   -941249.93222
  22816383.6674   -4297955.46746  -3257434.30861
 91  4  1 21 46 44.9990000  0  4G18G11G19G 2
  20602144.8704     569954.02847    431200.03263
  22780519.190    -2894094.973 6  -2189968.99421
  20597819.0814   -1258529.00347   -953346.87462
  22805802.565    -4353563.602 6  -3300765.09421
 91  4  1 21 46 59.9990000  0  4G18G11G19G 2
  20604283.5814     581189.21248    439954.68463
  22774078.222    -2927948.584 6  -2216348.40621
  20594876.183    -1274016.563 7   -965415.09022
  22795229.331    -4409115.081 6  -3344051.77321
 91  4  1 21 47 14.9990000  0  4G18G11G19G 2
  20606440.3234     592525.45248    448788.08063
  22767655.558    -2961683.150 6  -2242635.05521
  20591931.3394   -1289473.76847   -977459.65362
  22784667.4954   -4464616.38546  -3387299.32561
 91  4  1 21 47 29.9990000  0  4G18G11G19G 2
  20608618.9564     603975.60247    457710.24163
  22761263.644    -2995285.588 6  -2268818.74821
  20589001.081    -1304887.831 7   -989470.59122
  22774117.3004   -4520054.53146  -3430497.67061
 91  4  1 21 47 44.9990000  0  4G18G11G19G 2
  20610819.5894     615534.09948    466716.82763
  22754890.183    -3028761.065 6  -2294903.50821
  20586071.112    -1320264.242 7  -1001452.20222
  22763579.2224   -4575435.16046  -3473651.19661
 91  4  1 21 47 59.9990000  0  4G18G11G19G 2
  20613037.8624     627203.07647    475809.50863
  22748550.7064   -3062107.27146  -2320887.54061
  20583153.6444   -1335600.80547  -1013402.75862
  22753054.472    -4630755.869 6  -3516758.04621
 91  4  1 21 48 14.9990000  0  4G18G11G19G 2
  20615279.4404     638979.17048    484985.64963
  22742228.558    -3095327.210 6  -2346773.18121
  20580242.698    -1350900.776 7  -1025324.79722
  22742532.5734   -4686019.79546  -3559820.64061
 91  4  1 21 48 29.9990000  0  4G18G11G19G 2
  20617542.1984     650860.86147    494244.06863
  22735928.2374   -3128421.83846  -2372561.18161
  20577337.089    -1366165.217 7  -1037219.15522
  22732032.5424   -4741227.94646  -3602839.75261
 91  4  1 21 48 44.9990000  0  4G18G11G19G 2
  20619823.5034     662849.26048    503585.63363
  22729655.167    -3161389.350 6  -2398250.12121
  20574440.362    -1381392.747 7  -1049084.75122
  22721533.7534   -4796378.71146  -3645814.20861
 91  4  1 21 48 59.9990000  0  4G18G11G19G 2
  20622125.284      674947.189 8    513012.54923
  22723404.675    -3194226.881 6  -2423837.78921
  20571550.980    -1396580.551 7  -1060919.39222
  22711053.636    -4851469.429 6  -3688741.81821
 91  4  1 21 49 14.9990000  0  4G18G11G19G 2
  20624449.6514     687158.52348    522527.83163
  22717183.034    -3226930.547 6  -2449321.13721
  20568666.862    -1411724.921 7  -1072720.18522
  22700578.7374   -4906496.35046  -3731619.74161
 91  4  1 21 49 29.9990000  0  4G18G11G19G 2
  20626793.7304     699480.04448    532128.98063
  22710983.5584   -3259502.79946  -2474702.09061
  20565794.2144   -1426828.60747  -1084489.28162
  22690119.2454   -4961462.19546  -3774450.07461
 91  4  1 21 49 44.9990000  0  4G18G11G19G 2
  20629158.1984     711910.65047    541815.12863
  22704811.401    -3291944.339 6  -2499981.18421
  20562926.386    -1441892.433 7  -1096227.31222
  22679672.2454   -5016367.78746  -3817233.46261
 91  4  1 21 49 59.9990000  0  4G18G11G19G 2
  20631544.6904     724450.27848    551586.23063
  22698663.0424   -3324255.13346  -2525158.40261
  20560069.3944   -1456916.68447  -1107934.50462
  22669231.440    -5071213.125 6  -3859969.89422
 91  4  1 21 50 14.9990000  0  4G18G11G19G 2
  20633952.6054     737101.63147    561444.38763
  22692539.4484   -3356432.08046  -2550231.31461
  20557217.190    -1471898.604 7  -1119608.72022
  22658810.651    -5125995.217 6  -3902657.02921
 91  4  1 21 50 29.9990000  0  4G18G11G19G 2
  20636380.7694     749860.63948    571386.43063
  22686439.909    -3388478.579 6  -2575202.58621
  20554374.4334   -1486841.72547  -1131252.69862
  22648397.2614   -5180717.61846  -3945297.69261
 91  4  1 21 50 44.9990000  0  4G18G11G19G 2
  20638829.253      762726.768 7    581411.94423
  22680365.1514   -3420395.23646  -2600072.67661
  20551536.0344   -1501746.54947  -1142866.83862
  22637995.4174   -5235380.86646  -3987892.21562
 91  4  1 21 50 59.9990000  0  4G18G11G19G 2
  20641297.605      775699.877 8    591520.81623
  22674317.058    -3452181.728 6  -2624841.35121
  20548712.331    -1516613.149 7  -1154451.18622
  22627604.3234   -5289984.83546  -4030440.58662
 91  4  1 21 51 14.9990000  0  4G18G11G19G 2
  20643786.2064     788777.70548    601711.29263
  22668291.2454   -3483840.02946  -2649510.13561
  20545884.769    -1531443.767 7  -1166007.50222
  22617223.5814   -5344531.85746  -4072944.56562
 91  4  1 21 51 29.9990000  0  4G18G11G19G 2
  20646297.2764     801968.96848    611990.15863
  22662296.120    -3515360.928 6  -2674071.84321
  20543074.644    -1546229.398 7  -1177528.76022
  22606854.409    -5399012.756 6  -4115397.02521
 91  4  1 21 51 44.9990000  0  4G18G11G19G 2
  20648826.9404     815267.34848    622352.48963
  22656320.331    -3546750.365 6  -2698531.12221
  20540266.612    -1560976.325 7  -1189019.85622
  22596499.761    -5453433.528 6  -4157802.63022
 91  4  1 21 51 59.9990000  0  4G18G11G19G 2
  20651378.2844     828675.34647    632800.23863
  22650376.940    -3578005.307 6  -2722885.60121
  20537468.0584   -1575681.65347  -1200478.54462
  22586156.1594   -5507791.46247  -4200159.27462
 91  4  1 21 52 14.9990000  0  4G18G11G19G 2
  20653952.0194     842192.64748    643333.16063
  22644451.815    -3609125.963 6  -2747135.45021
  20534677.5974   -1590345.82547  -1211905.15862
  22575825.261    -5562086.755 6  -4242467.11622
 91  4  1 21 52 29.9990000  0  4G18G11G19G 2
  20656542.917      855813.065 7    653946.43223
  22638556.401    -3640118.140 6  -2771285.17421
  20531893.417    -1604974.592 7  -1223304.18422
  22565503.4334   -5616325.27546  -4284730.70562
 91  4  1 21 52 44.9990000  0  4G18G11G19G 2
  20659154.9484     869539.60548    664642.39663
  22632684.394    -3670978.505 6  -2795332.18721
  20529116.347    -1619565.044 7  -1234673.35322
  22555192.7144   -5670503.96746  -4326947.69262
 91  4  1 21 52 59.9990000  0  4G18G11G19G 2
  20661789.4094     883378.39148    675425.82763
  22626833.917    -3701700.500 6  -2819271.38321
  20526350.355    -1634110.626 7  -1246007.56122
  22544894.9174   -5724616.20646  -4369112.88162
 91  4  1 21 53 14.9990000  0  4G18G11G19G 2
  20664441.5264     897321.81148    686290.78863
  22621014.4564   -3732291.21646  -2843108.27361
  20523588.253    -1648618.648 7  -1257312.50122
  22534608.6594   -5778669.20746  -4411231.92362
 91  4  1 21 53 29.9990000  0  4G18G11G19G 2
  20667116.2924     911377.61047    697243.31963
  22615222.987    -3762742.935 6  -2866836.87021
  20520835.573    -1663081.650 7  -1268582.35822
  22524336.237    -5832655.525 6  -4453298.99222
 91  4  1 21 53 44.9990000  0  4G18G11G19G 2
  20669812.3154     925543.71448    708281.80063
  22609451.0584   -3793057.16746  -2890458.32461
  20518092.409    -1677501.202 7  -1279818.35822
  22514074.433    -5886576.783 6  -4495315.38821
 91  4  1 21 53 59.9990000  0  4G18G11G19G 2
  20672530.8314     939822.47348    719408.07363
  22603713.011    -3823231.191 6  -2913970.52521
  20515356.534    -1691874.944 7  -1291018.66222
  22503825.4404   -5940430.37346  -4537279.04062
 91  4  1 21 54 14.9990000  0  4G18G11G19G 2
  20675267.714      954213.449 7    730621.78023
  22597992.933    -3853265.381 6  -2937373.77321
  20512629.8624   -1706203.31947  -1302183.61562
  22493590.5974   -5994216.70147  -4579190.26062
 91  4  1 21 54 29.9990000  0  4G18G11G19G 2
  20678027.7144     968709.26248    741917.17863
  22592306.019    -3883166.536 6  -2960673.35921
  20509912.167    -1720493.259 7  -1313318.61722
  22483368.0034   -6047942.68446  -4621054.48662
 91  4  1 21 54 44.9990000  0  4G18G11G19G 2
  20680804.6984     983304.78248    753290.27163
  22586641.003    -3912939.115 6  -2983872.74821
  20507197.925    -1734749.435 7  -1324427.31222
  22473153.839    -6101612.969 6  -4662875.30222
 91  4  1 21 54 59.9990000  0  4G18G11G19G 2
  20683601.7844     998006.42848    764746.05963
  22580999.222    -3942576.698 6  -3006966.94921
  20504492.2534   -1748965.73947  -1335504.94262
  22462951.5654   -6155221.26046  -4704647.81762
 91  4  1 21 55 14.9990000  0  4G18G11G19G 2
  20686418.995     1012812.797 7    776283.44223
  22575385.503    -3972080.453 6  -3029956.85921
  20501795.394    -1763143.311 7  -1346552.38422
  22452762.8314   -6208768.93247  -4746373.08962
 91  4  1 21 55 29.9990000  0  5G18G11G19G16G 2
  20689257.925     1027724.718 8    787903.07823
  22569794.823    -4001448.835 6  -3052841.30121
  20499107.292    -1777280.921 7  -1357568.69222
  23843201.6204         -0.94855
  22442585.0264   -6262254.43046  -4788049.92362
 91  4  1 21 55 44.9990000  0  5G18G11G19G16G 2
  20692113.0194    1042735.12048    799599.45263
  22564230.5114   -4030688.77446  -3075625.64361
  20496420.706    -1791385.765 7  -1368559.46722
  23836745.7144     -33937.49545
  22432416.5894   -6315684.96346  -4829683.90062
 91  4  1 21 55 59.9990000  0  5G18G11G19G16G 2
  20694989.425     1057847.974 8    811375.65723
  22558693.581    -4059795.954 6  -3098306.54321
  20493748.034    -1805453.531 6  -1379521.34622
  23830308.9014     -67752.98345
  22422261.519    -6369055.895 7  -4871271.46722
 91  4  1 21 56 14.9980000  0  5G18G11G19G16G 2
  20697884.7724    1073070.05547    823236.97863
  22553180.022    -4088760.213 6  -3120876.07321
  20491076.209    -1819475.151 7  -1390447.27022
  23823899.9284    -101437.27845
  22412117.678    -6422355.780 6  -4912803.65922
 91  4  1 21 56 29.9980000  0  5G18G11G19G16G 2
  20700803.068     1088396.805 8    835179.85423
  22547695.654    -4117591.762 6  -3143342.19321
  20488414.490    -1833459.140 7  -1401343.86722
  23817514.561     -135001.487 5
  22401985.8654   -6475598.35946  -4954291.19062
 91  4  1 21 56 44.9980000  0  5G18G11G19G16G 2
  20703739.436     1103827.437 8    847203.68123
  22542233.678    -4146288.137 6  -3165702.99221
  20485762.279    -1847404.097 7  -1412210.05522
  23811149.3574    -168442.36445        -0.14071
  22391865.4754   -6528779.62747  -4995730.95762
 91  4  1 21 56 59.9980000  0  5G18G11G19G16G 2
  20706694.131     1119356.098 8    859303.89123
  22536799.2324   -4174854.64046  -3187962.58461
  20483115.9824   -1861315.57347  -1423050.15562
  23804807.717     -201765.431 5    -25966.12521
  22381756.9594   -6581904.80947  -5037127.02662
 91  4  1 21 57 14.9980000  0  5G18G11G19G16G 2
  20709669.240     1134985.823 8    871482.85123
  22531388.295    -4203288.187 6  -3210118.57221
  20480473.295    -1875190.526 7  -1433861.79022
  23798489.1394    -234967.94045    -51838.15361
  22371659.147    -6634970.914 6  -5078477.05022
 91  4  1 21 57 29.9980000  0  5G18G11G19G16G 2
  20712663.670     1150721.725 8    883744.54723
  22526003.397    -4231583.146 6  -3232166.56821
  20477840.3344   -1889023.45447  -1444640.68462
  23792199.756     -268044.263 5    -77611.85821
  22361573.912    -6687972.730 7  -5119776.98422
 91  4  1 21 57 44.9980000  0  5G18G11G19G16G 2
  20715677.037     1166564.318 8    896089.37623
  22520643.092    -4259738.841 6  -3254106.05521
  20475215.779    -1902813.902 7  -1455386.47622
  23785924.3814    -300993.81345   -103286.79761
  22351497.2954   -6740909.47246  -5161026.21662
 91  4  1 21 57 59.9980000  0  5G18G11G19G16G 2
  20718714.186     1182520.989 8    908523.09823
  22515314.350    -4287747.521 6  -3275930.98021
  20472602.7954   -1916554.39347  -1466093.34262
  23779679.5224    -333809.18345   -128857.16361
  22341437.2324   -6793773.52646  -5202218.80062
 91  4  1 21 58 14.9980000  0  5G18G11G19G16G 2
  20721770.248     1198581.967 8    921038.09623
  22510012.9904   -4315618.36146  -3297648.49361
  20469994.014    -1930254.232 7  -1476768.53122
  23773461.545     -366499.697 5   -154330.25921
  22331389.1314   -6846574.04547  -5243361.88162
 91  4  1 21 58 29.9980000  0  5G18G11G19G16G 2
  20724849.522     1214759.854 8    933644.19523
  22504735.490    -4343338.752 6  -3319248.77921
  20467397.7324   -1943900.85447  -1487402.25162
  23767264.8424    -399052.35945   -179695.94161
  22321356.2954   -6899298.58547  -5284445.75962
 91  4  1 21 58 44.9980000  0  5G18G11G19G16G 2
  20727948.459     1231043.224 8    946332.49223
  22499490.154    -4370919.456 6  -3340740.21521
  20464810.272    -1957505.236 7  -1498003.05522
  23761095.7724    -431478.23745   -204962.81861
  22311336.764    -6951958.169 6  -5325479.02522
 91  4  1 21 58 59.9980000  0  5G18G11G19G16G 2
  20731065.818     1247429.673 8    959101.10423
  22494265.1234   -4398362.54046  -3362124.41361
  20462228.2254   -1971069.63547  -1508572.70862
  23754947.982     -463779.507 5   -230132.61321
  22301325.5454   -7004554.97547  -5366463.36762
 91  4  1 21 59 14.9980000  0  5G18G11G19G16G 2
  20734204.186     1263922.621 8    971952.70523
  22489070.7644   -4425664.08346  -3383398.31461
  20459656.006    -1984590.241 7  -1519108.23322
  23748825.092     -495952.354 5   -255202.32521
  22291330.3574   -7057085.02247  -5407395.69262
 91  4  1 21 59 29.9980000  0  5G18G11G19G16G 2
  20737363.279     1280515.746 8    984882.36523
  22483902.428    -4452830.401 6  -3404566.85021
  20457092.053    -1998073.476 7  -1529614.64222
  23742727.3734    -528003.51145   -280177.18461
  22281344.7254   -7109554.65946  -5448280.96162
 91  4  1 21 59 44.9980000  0  5G18G11G19G16G 2
  20740542.022     1297218.536 8    997897.47623
  22478760.811    -4479851.729 6  -3425622.40821
  20454532.498    -2011509.753 7  -1540084.45122
  23736651.3814    -559922.92045   -305049.41761
  22271373.850    -7161954.474 6  -5489111.79622
 91  4  1 21 59 59.9980000  0  5G18G11G19G16G 2
  20743738.201     1314025.457 7   1010993.73123
  22473644.529    -4506733.233 6  -3446569.01621
  20451987.3894   -2024904.29347  -1550521.74362
  23730602.607     -591715.672 5   -329822.92621
  22261416.764    -7214289.571 7  -5529892.21322
 91  4  1 22  0 14.9980000  0  5G18G11G19G16G 2
  20746956.811     1330935.276 8   1024170.16723
  22468555.240    -4533475.784 6  -3467407.35221
  20449442.8814   -2038258.12547  -1560927.31962
  23724578.3344    -623382.89045   -354498.66361
  22251469.4904   -7266560.86247  -5570622.92862
 91  4  1 22  0 29.9980000  0  5G18G11G19G16G 2
  20750194.678     1347951.276 8   1037429.34823
  22463491.326    -4560075.707 6  -3488134.54621
  20446910.3424   -2051567.78947  -1571298.47262
  23718577.7564    -654921.40145   -379074.10061
  22241533.576    -7318764.720 7  -5611301.08322
 91  4  1 22  0 44.9980000  0  5G18G11G19G16G 2
  20753452.818     1365071.098 8   1050769.41723
  22458456.318    -4586534.839 6  -3508752.03621
  20444386.693    -2064835.218 7  -1581636.71622
  23712595.670     -686332.854 5   -403550.52421
  22231614.2874   -7370903.33947  -5651928.39962
 91  4  1 22  0 59.9980000  0  5G18G11G19G16G 2
  20756731.186     1382295.725 8   1064191.16123
  22453450.225    -4612852.053 6  -3529258.94121
  20441867.5534   -2078059.36147  -1591941.23562
  23706643.5684    -717616.42545   -427927.30061
  22221704.4204   -7422975.50547  -5692503.96662
 91  4  1 22  1 14.9980000  0  5G18G11G19G16G 2
  20760028.686     1399628.164 8   1077696.90423
  22448468.920    -4639023.833 6  -3549652.50821
  20439362.4514   -2091236.85946  -1602209.40262
  23700717.9364    -748768.30045   -452201.45161
  22211806.022    -7474977.927 7  -5733025.14322
 91  4  1 22  1 29.9980000  0  5G18G11G19G16G 2
  20763347.397     1417068.084 8   1091286.40323
  22443515.248    -4665050.166 6  -3569932.75321
  20436863.8894   -2104367.77846  -1612441.27762
  23694810.1864    -779788.53145   -476373.02261
  22201924.6934   -7526910.52847  -5773491.94662
 91  4  1 22  1 44.9980000  0  5G18G11G19G16G 2
  20766687.873     1434619.337 7   1104962.65323
  22438593.225    -4690926.946 6  -3590096.47121
  20434374.2014   -2117448.29046  -1622633.87662
  23688934.6394    -810673.47245   -500439.15761
  22192057.3344   -7578769.36847  -5813901.26062
 91  4  1 22  1 59.9980000  0  5G18G11G19G16G 2
  20770049.178     1452280.314 7   1118724.40823
  22433696.811    -4716655.667 6  -3610144.80421
  20431892.8654   -2130479.71747  -1632788.22662
  23683084.365     -841424.651 5   -524401.07721
  22182200.2254   -7630555.73347  -5854254.12162
 91  4  1 22  2 14.9980000  0  5G18G11G19G16G 2
  20773429.373     1470044.433 7   1132566.52823
  22428829.162    -4742242.468 6  -3630082.55121
  20429422.1394   -2143468.46746  -1642909.32362
  23677258.6934    -872048.05345   -548263.43361
  22172359.5144   -7682276.18547  -5894555.59562
 91  4  1 22  2 29.9980000  0  5G18G11G19G16G 2
  20776829.115     1487912.304 7   1146489.50223
  22423987.264    -4767686.578 6  -3649909.10721
  20426958.7954   -2156413.84246  -1652996.61862
  23671455.029     -902542.889 5   -572025.62321
  22162529.9284   -7733929.81547  -5934805.01962
 91  4  1 22  2 44.9980000  0  5G18G11G19G16G 2
  20780247.920     1505876.503 7   1160487.53023
  22419170.287    -4792994.930 6  -3669629.89121
  20424504.1154   -2169322.84447  -1663055.56963
  23665673.756     -932916.287 5   -595693.19021
  22152711.600    -7785523.710 7  -5975007.88422
 91  4  1 22  2 59.9980000  0  5G18G11G19G16G 2
  20783684.787     1523940.068 7   1174562.98823
  22414378.107    -4818164.042 6  -3689242.17321
  20422051.5294   -2182192.27247  -1673083.68763
  23659917.0224    -963165.35245   -619263.81661
  22142905.7254   -7837054.65947  -6015161.71862
 91  4  1 22  3 14.9980000  0  5G18G11G19G16G 2
  20787142.701     1542106.420 7   1188718.53623
  22409618.029    -4843190.679 6  -3708743.41921
  20419612.7254   -2195018.91846  -1683078.46462
  23654185.2724    -993286.69245   -642734.96361
  22133115.1704   -7888519.38247  -6055263.91962
 91  4  1 22  3 29.9980000  0  5G18G11G19G16G 2
  20790618.904     1560379.622 7   1202957.34623
  22404886.592    -4868070.021 6  -3728129.90121
  20417183.7484   -2207797.94446  -1693036.13863
  23648479.709    -1023275.669 5   -666102.98321
  22123330.6234   -7939913.11247  -6095310.84162
 91  4  1 22  3 44.9980000  0  5G18G11G19G16G 2
  20794116.115     1578752.870 7   1217274.11323
  22400176.193    -4892808.404 6  -3747406.55021
  20414757.5374   -2220535.89646  -1702961.80963
  23642798.1704   -1053138.45945   -689372.65161
  22113563.928    -7991242.350 7  -6135307.47722
 91  4  1 22  3 59.9980000  0  5G18G11G19G16G 2
  20797631.311     1597227.986 7   1231670.25523
  22395495.748    -4917403.592 6  -3766571.60421
  20412342.9284   -2233230.87246  -1712853.98962
  23637138.326    -1082872.987 5   -712542.37021
  22103808.9904   -8042505.01747  -6175252.26862
 91  4  1 22  4 14.9980000  0  5G18G11G19G16G 2
  20801166.412     1615809.401 7   1246149.23423
  22390845.131    -4941851.230 6  -3785621.69321
  20409934.1074   -2245878.49146  -1722709.26662
  23631504.7644   -1112475.04445   -735608.88261
  22094067.795    -8093696.682 7  -6215141.71122
 91  4  1 22  4 29.9980000  0  5G18G11G19G16G 2
  20804724.107     1634495.139 7   1260709.50123
  22386220.209    -4966152.807 6  -3804557.97121
  20407534.8504   -2258480.31147  -1732528.85863
  23625897.951    -1141946.629 5   -758573.70221
  22084336.3344   -8144818.94546  -6254977.08662
 91  4  1 22  4 44.9980000  0  5G18G11G19G16G 2
  20808298.240     1653280.588 7   1275347.46323
  22381622.256    -4990312.530 6  -3823383.71321
  20405147.3814   -2271040.71246  -1742316.17762
  23620308.9204   -1171291.53345   -781439.83461
  22074623.3814   -8195876.23547  -6294761.82462
 91  4  1 22  4 59.9980000  0  5G18G11G19G16G 2
  20811891.967     1672168.079 7   1290064.94023
  22377049.6934   -5014327.81046  -3842096.90361
  20402763.9984   -2283557.07047  -1752069.17463
  23614752.061    -1200507.291 5   -804205.33521
  22064921.4364   -8246865.78947  -6334493.79962
 91  4  1 22  5 14.9980000  0  5G18G11G19G16G 2
  20815504.107     1691149.693 7   1304855.75723
  22372506.4204   -5038206.15246  -3860703.37861
  20400390.1074   -2296036.98147  -1761793.77362
  23609217.0684   -1229601.62645   -826876.23161
  22055225.631    -8297795.429 7  -6374179.06622
 91  4  1 22  5 29.9980000  0  5G18G11G19G16G 2
  20819136.209     1710228.226 7   1319722.09723
  22367989.209    -5061944.585 6  -3879200.85121
  20398021.9824   -2308477.77046  -1771487.89063
  23603705.9284   -1258571.68545   -849450.26461
  22045550.9364   -8348662.24247  -6413815.39062
 91  4  1 22  5 44.9980000  0  6G18G11G19G16G 2G 6
  20822785.295     1729408.609 7   1334667.79923
  22363499.022    -5085537.724 6  -3897585.10221
  20395664.3034   -2320874.08347  -1781147.34763
  23598215.8424   -1287412.10345   -871923.30161
  22035881.8034   -8399460.83547  -6453398.56462
  23876559.2644         -0.03455
 91  4  1 22  5 59.9980000  0  6G18G11G19G16G 2G 6
  20826454.420     1748691.623 7   1349693.47523
  22359038.6704   -5108984.54346  -3915855.33861
  20393312.6234   -2333225.06247  -1790771.48162
  23592753.561    -1316121.972 5   -894294.61721
  22026229.678    -8450190.126 7  -6492927.72822
  23867608.4754     -47050.58745
 91  4  1 22  6 14.9980000  0  6G18G11G19G16G 2G 6
  20830143.029     1768074.105 7   1364796.65523
  22354606.2404   -5132287.80246  -3934013.70961
  20390971.7724   -2345533.42246  -1800362.40163
  23587314.037    -1344703.971 5   -916566.27521
  22016587.9434   -8500852.90247  -6532405.06862
  23858652.7794     -94098.38945
 91  4  1 22  6 29.9980000  0  6G18G11G19G16G 2G 6
  20833850.607     1787559.742 7   1379980.22223
  22350199.061    -5155443.844 6  -3952057.36321
  20388636.4044   -2357795.48847  -1809917.25463
  23581899.014    -1373154.610 5   -938735.59821
  22006959.2174   -8551445.86847  -6571828.00162
  23849700.0924    -141140.05945
 91  4  1 22  6 44.9980000  0  6G18G11G19G16G 2G 6
  20837576.647     1807143.188 7   1395239.99523
  22345819.990    -5178457.571 6  -3969990.12921
  20386312.4754   -2370016.24747  -1819439.91463
  23576509.1074   -1401479.00045   -960806.51161
  21997342.842    -8601973.842 7  -6611200.30622
  23840748.9364    -188180.66345
 91  4  1 22  6 59.9980000  0  6G18G11G19G16G 2G 6
  20841323.951     1826831.630 7   1410581.59023
  22341468.5144   -5201321.35046  -3987806.05661
  20383994.6234   -2382188.21247  -1828924.55663
  23571143.3034   -1429669.56045   -982773.17361
  21987744.6864   -8652429.28647  -6650516.08162
  23831798.201     -235212.724 4
 91  4  1 22  7 14.9980000  0  6G18G11G19G16G 2G 6
  20845090.998     1846623.559 7   1426003.82223
  22337144.037    -5224036.588 6  -4005506.22521
  20381688.7874   -2394312.73946  -1838372.23563
  23565805.6704   -1457727.60645  -1004636.56461
  21978155.6784   -8702813.52947  -6689776.38162
  23822848.982     -282237.759 5        -0.09031
 91  4  1 22  7 29.9980000  0  6G18G11G19G16G 2G 6
  20848875.561     1866514.363 7   1441503.10223
  22332849.365    -5246607.231 6  -4023093.71521
  20379388.2014   -2406394.04547  -1847786.23062
  23560491.4984   -1485657.52545  -1026400.14061
  21968580.8894   -8753130.61547  -6728984.34662
  23813904.459     -329260.076 5    -36640.69021
 91  4  1 22  7 44.9980000  0  6G18G11G19G16G 2G 6
  20852679.654     1886507.700 7   1457082.27523
  22328581.7174   -5269029.29046  -4040565.44061
  20377100.1074   -2418428.22347  -1857163.50663
  23555204.2954   -1513455.00245  -1048060.50361
  21959017.3734   -8803376.69547  -6768136.99862
  23804957.365     -376275.816 5    -73276.13921
 91  4  1 22  7 59.9980000  0  6G18G11G19G16G 2G 6
  20856505.295     1906605.061 7   1472742.50323
  22324344.9824   -5291300.99846  -4057919.99161
  20374821.1314   -2430413.64746  -1866502.78763
  23549935.178    -1541118.722 5  -1069616.63821
  21949470.4434   -8853550.31347  -6807233.17162
  23796008.686     -423283.517 5   -109905.28521
 91  4  1 22  8 14.9980000  0  6G18G11G19G16G 2G 6
  20860348.959     1926806.628 7   1488483.93023
  22320134.201    -5313422.251 6  -4075157.31621
  20372548.7324   -2442350.14547  -1875803.94763
  23544696.4594   -1568648.48345  -1091068.39761
  21939936.6154   -8903651.10647  -6846272.60862
  23787066.6394    -470283.12845   -146528.09461
 91  4  1 22  8 29.9980000  0  6G18G11G19G16G 2G 6
  20864212.412     1947106.470 7   1504301.94323
  22315953.4904   -5335398.25646  -4092281.46361
  20370287.2174   -2454243.01046  -1885071.10662
  23539482.975    -1596049.845 5  -1112420.08221
  21930414.725    -8953684.484 7  -6885259.50422
  23778122.6074    -517280.08945   -183148.89161
 91  4  1 22  8 44.9980000  0  6G18G11G19G16G 2G 6
  20868093.092     1967500.828 7   1520193.59423
  22311795.451    -5357232.335 6  -4109295.01521
  20368028.6234   -2466095.63647  -1894306.90862
  23534293.0144   -1623325.99445  -1133674.22861
  21920906.9284   -9003653.78647  -6924196.47962
  23769177.8344    -564277.91245   -219770.33961
 91  4  1 22  8 59.9980000  0  6G18G11G19G16G 2G 6
  20871992.615     1987994.237 7   1536162.43123
  22307669.787    -5378920.168 6  -4126194.61521
  20365780.7644   -2477903.63947  -1903507.94562
  23529126.9754   -1650472.64245  -1154827.43561
  21911412.022    -9053554.609 7  -6963080.09122
  23760234.0454    -611272.32845   -256389.15661
 91  4  1 22  9 14.9980000  0  6G18G11G19G16G 2G 6
  20875910.0764    2008585.93147   1552207.85063
  22303571.053    -5400462.085 6  -4142980.50521
  20363543.9514   -2489667.40547  -1912674.50562
  23523984.3114   -1677490.26645  -1175880.14261
  21901928.834    -9103387.360 7  -7001910.65522
  23751291.0684    -658263.84845   -293005.71461
 91  4  1 22  9 29.9980000  0  6G18G11G19G16G 2G 6
  20879847.623     2029273.800 7   1568328.21323
  22299501.615    -5421859.823 6  -4159654.04921
  20361313.0064   -2501389.05947  -1921808.25563
  23518869.8264   -1704380.65545  -1196833.69961
  21892456.842    -9153153.848 7  -7040689.59522
  23742350.826     -705254.523 5   -329621.59521
 91  4  1 22  9 44.9980000  0  6G18G11G19G16G 2G 6
  20883804.7404    2050062.30647   1584526.99263
  22295457.561    -5443108.495 6  -4176211.43621
  20359092.1474   -2513063.60746  -1930905.29363
  23513777.232    -1731139.109 5  -1217684.43221
  21883002.842    -9202849.310 7  -7079413.17822
  23733410.3654    -752239.55745   -366233.04461
 91  4  1 22  9 59.9980000  0  6G18G11G19G16G 2G 6
  20887777.397     2070951.804 7   1600804.46723
  22291442.732    -5464207.614 6  -4192652.29721
  20356877.6474   -2524690.66947  -1939965.33163
  23508712.7484   -1757765.50345  -1238432.26361
  21873555.850    -9252473.511 7  -7118081.25222
  23724469.7324    -799218.73945   -402839.94061
 91  4  1 22 10 14.9980000  0  6G18G11G19G16G 2G 6
  20891772.029     2091940.730 7   1617159.41823
  22287454.748    -5485158.201 6  -4208977.41121
  20354674.9204   -2536271.37246  -1948989.24562
  23503669.2094   -1784260.61645  -1259077.80461
  21864126.6934   -9302027.38447  -7156694.50162
  23715531.889     -846193.296 5   -439443.26521
 91  4  1 22 10 29.9980000  0  6G18G11G19G16G 2G 6
  20895786.912     2113027.552 7   1633590.65323
  22283495.006    -5505961.546 6  -4225187.79221
  20352479.0454   -2547806.85847  -1957977.92563
  23498654.9284   -1810625.62245  -1279621.95161
  21854709.029    -9351512.166 7  -7195253.93522
  23706593.5924    -893164.40745   -476043.88261
 91  4  1 22 10 44.9980000  0  6G18G11G19G16G 2G 6
  20899818.225     2134209.877 7   1650096.30323
  22279564.0844   -5526619.71446  -4241285.05661
  20350292.6234   -2559299.34446  -1966933.09862
  23493659.6314   -1836863.02445  -1300066.69961
  21845306.8184   -9400930.17447  -7233761.32362
  23697652.1544    -940134.67145   -512643.86561
 91  4  1 22 10 59.9980000  0  6G18G11G19G16G 2G 6
  20903864.029     2155483.512 7   1666673.10823
  22275662.131    -5547136.796 6  -4257272.37821
  20348112.3184   -2570752.87447  -1975857.91763
  23488690.4984   -1862977.05745  -1320415.29561
  21835916.0684   -9450285.31847  -7272219.73262
  23688716.678     -987108.076 5   -549246.27521
 91  4  1 22 11 14.9980000  0  6G18G11G19G16G 2G 6
  20907931.592     2176856.600 7   1683327.40723
  22271784.0764   -5567504.14646  -4273143.02561
  20345943.9594   -2582159.02546  -1984745.81763
  23483743.6004   -1888958.89745  -1340660.89061
  21826537.2564   -9499569.01447  -7310622.45862
  23679778.209    -1034076.143 5   -585844.50121
 91  4  1 22 11 29.9980000  0  6G18G11G19G16G 2G 6
  20912017.365     2198323.534 7   1700054.83523
  22267933.318    -5587727.345 6  -4288901.34721
  20343778.2254   -2593523.25447  -1993601.04863
  23478826.7644   -1914814.17745  -1360807.86561
  21817169.693    -9548786.918 7  -7348973.93122
  23670840.7874   -1081044.64445   -622443.06261
 91  4  1 22 11 44.9980000  0  6G18G11G19G16G 2G 6
  20916121.131     2219881.906 7   1716853.51023
  22264115.389    -5607808.285 6  -4304548.81321
  20341625.850    -2604847.484 6  -2002425.11023
  23473929.662    -1940545.044 5  -1380857.87421
  21807816.0064   -9597940.97847  -7387275.65162
  23661897.959    -1128015.629 5   -659043.58121
 91  4  1 22 11 59.9980000  0  6G18G11G19G16G 2G 6
  20920240.451     2241536.738 7   1733727.35723
  22260320.8894   -5627741.82046  -4320081.41861
  20339481.209    -2616126.830 6  -2011214.20223
  23469055.8114   -1966146.16645  -1400806.80661
  21798478.0454   -9647026.18647  -7425523.71062
  23652963.248    -1174984.275 5   -695642.27021
 91  4  1 22 12 14.9980000  0  6G18G11G19G16G 2G 6
  20924378.2324    2263282.57347   1750672.10563
  22256555.576    -5647532.840 6  -4335502.97821
  20337339.8574   -2627366.15946  -2019972.10863
  23464209.7874   -1991623.15645  -1420658.99861
  21789148.7094   -9696047.56047  -7463722.04162
  23644026.014    -1221955.480 5   -732242.93621
 91  4  1 22 12 29.9980000  0  6G18G11G19G16G 2G 6
  20928534.318     2285120.524 7   1767688.63823
  22252815.522    -5667180.225 6  -4350812.61021
  20335211.412    -2638564.341 6  -2028697.95323
  23459382.084    -2016974.661 5  -1440413.42821
  21779831.615    -9745003.817 7  -7501869.63322
  23635081.123    -1268928.321 5   -768844.92021
 91  4  1 22 12 44.9980000  0  6G18G11G19G16G 2G 6
  20932708.834     2307053.122 7   1784778.91923
  22249107.889    -5686680.943 6  -4366007.95421
  20333086.967    -2649718.499 6  -2037389.48823
  23454584.732    -2042197.641 5  -1460067.71021
  21770526.9434   -9793892.18247  -7539964.30762
  23626147.881    -1315899.826 5   -805445.81721
 91  4  1 22 12 59.9980000  0  6G18G11G19G16G 2G 6
  20936900.256     2329079.559 7   1801942.31923
  22245421.318    -5706035.203 6  -4381089.17621
  20330971.600    -2660828.771 6  -2046046.83123
  23449808.9904   -2067292.23845  -1479621.92661
  21761237.201    -9842712.747 7  -7578006.16722
  23617211.701    -1362870.473 5   -842046.03021
 91  4  1 22 13 14.9980000  0  6G18G11G19G16G 2G 6
  20941110.232     2351203.366 7   1819181.59223
  22241768.623    -5725239.705 6  -4396053.70421
  20328867.662    -2671891.795 6  -2054667.35923
  23445060.8894   -2092255.42545  -1499073.79361
  21751960.7324   -9891462.11947  -7615992.53662
  23608272.795    -1409837.034 5   -878643.07721
 91  4  1 22 13 29.9980000  0  6G18G11G19G16G 2G 6
  20945335.9904    2373420.25247   1836493.39563
  22238140.959    -5744298.312 6  -4410904.55021
  20326769.2094   -2682911.58846  -2063254.20163
  23440336.4754   -2117091.13045  -1518426.28261
  21742694.818    -9940144.271 7  -7653926.54122
  23599333.9204   -1456803.53945   -915240.07061
 91  4  1 22 13 44.9980000  0  6G18G11G19G16G 2G 6
  20949582.8734    2395727.04947   1853875.25363
  22234542.740    -5763213.744 6  -4425643.83121
  20324680.365    -2693890.682 6  -2071809.32323
  23435629.607    -2141802.147 5  -1537681.64821
  21733444.975    -9988762.036 7  -7691810.36322
  23590390.4984   -1503772.77445   -951839.24361
 91  4  1 22 13 59.9980000  0  6G18G11G19G16G 2G 6
  20953846.0144    2418126.25347   1871329.11763
  22230972.787    -5781983.447 6  -4440269.55921
  20322599.9044   -2704826.69546  -2080330.88463
  23430949.4754   -2166386.08745  -1556837.96661
  21724205.3034  -10037312.85147  -7729642.03062
  23581457.1474   -1550742.37145   -988438.65861
 91  4  1 22 14 14.9980000  0  6G18G11G19G16G 2G 6
  20958122.3344    2440606.64147   1888846.24263
  22227421.654    -5800618.295 6  -4454790.19521
  20320525.3814   -2715730.65846  -2088827.46963
  23426298.123    -2190853.797 5  -1575903.70421
  21714980.0144  -10085807.71847  -7767430.07962
  23572517.889    -1597723.446 5  -1025047.01521
 91  4  1 22 14 29.9980000  0  6G18G11G19G16G 2G 6
  20962417.8184    2463179.53047   1906435.44463
  22223905.889    -5819106.566 6  -4469196.62621
  20318456.9754   -2726590.67646  -2097289.81263
  23421666.693    -2215193.526 5  -1594869.74021
  21705761.139   -10134234.797 7  -7805165.33522
  23563576.6864   -1644704.35545  -1061655.23261
 91  4  1 22 14 44.9980000  0  6G18G11G19G16G 2G 6
  20966729.209     2485841.581 7   1924094.13123
  22220415.1234   -5837451.32646  -4483491.23361
  20316399.2404   -2737409.81046  -2105720.27563
  23417056.5924   -2239408.60045  -1613738.65261
  21696558.014   -10182597.268 7  -7842850.22822
  23554636.897    -1691688.178 5  -1098265.74021
 91  4  1 22 14 59.9980000  0  6G18G11G19G16G 2G 6
  20971062.6704    2508603.34747   1941830.50663
  22216955.897    -5855641.821 6  -4497665.62321
  20314349.7254   -2748177.31746  -2114110.53663
  23412473.975    -2263488.513 5  -1632502.23721
  21687369.3734  -10230884.45147  -7880476.46062
  23545698.0534   -1738664.40945  -1134870.33761
 91  4  1 22 15 14.9980000  0  6G18G11G19G16G 2G 6
  20975412.2404    2531460.09747   1959640.90063
  22213522.295    -5873682.458 6  -4511723.24621
  20312312.5924   -2758897.65046  -2122464.03163
  23407917.6864   -2287437.63045  -1651163.89261
  21678193.420   -10279100.728 7  -7918047.45422
  23536758.162    -1785637.510 5  -1171472.51421
 91  4  1 22 15 29.9980000  0  6G18G11G19G16G 2G 6
  20979778.6934    2554409.77947   1977523.71263
  22210117.5144   -5891574.93846  -4525665.43561
  20310278.3574   -2769572.73646  -2130782.27263
  23403385.1154   -2311257.48145  -1669724.82961
  21669032.850   -10327247.838 7  -7955564.53422
  23527815.990    -1832609.469 5  -1208073.78621
 91  4  1 22 15 44.9980000  0  6G18G11G19G16G 2G 6
  20984163.3424    2577447.19847   1995474.88363
  22206737.4514   -5909324.21046  -4539496.02461
  20308255.397    -2780207.481 6  -2139069.07023
  23398875.3424   -2334953.42745  -1688189.20461
  21659883.482   -10375330.789 7  -7993031.63422
  23518879.8504   -1879585.39045  -1244678.12661
 91  4  1 22 15 59.9980000  0  6G18G11G19G16G 2G 6
  20988564.9434    2600580.37847   2013500.67562
  22203391.2484   -5926921.96246  -4553208.54461
  20306243.389    -2790793.470 6  -2147317.88423
  23394391.701    -2358516.994 5  -1706550.42821
  21650745.850   -10423341.255 7  -8030442.24822
  23509941.514    -1926556.887 5  -1281279.03121
 91  4  1 22 16 14.9980000  0  6G18G11G19G16G 2G 6
  20992985.2724    2623806.57247   2031598.94462
  22200071.9044   -5944370.41846  -4566804.73661
  20304233.8814   -2801333.16546  -2155530.62163
  23389933.9204   -2381950.73545  -1724810.49461
  21641623.943   -10471281.652 7  -8067798.25622
  23501002.0614   -1973526.36945  -1317878.37261
 91  4  1 22 16 29.9980000  0  6G18G11G19G16G 2G 6
  20997422.5844    2647128.80347   2049772.05463
  22196778.7324   -5961666.48346  -4580282.18061
  20302240.2564   -2811823.47046  -2163704.87163
  23385499.4824   -2405251.62745  -1742967.05761
  21632513.170   -10519148.932 7  -8105097.30922
  23492066.209    -2020490.975 5  -1354473.92721
 91  4  1 22 16 44.9980000  0  6G18G11G19G16G 2G 6
  21001878.9824    2670543.24547   2068017.01062
  22193515.107    -5978813.698 6  -4593643.63421
  20300251.4124   -2822267.78846  -2171843.28863
  23381092.2644   -2428423.10945  -1761022.76061
  21623419.1394  -10566946.42447  -8142341.97362
  23483126.4514   -2067454.27745  -1391068.45061
 91  4  1 22 16 59.9980000  0  6G18G11G19G16G 2G 6
  21006350.2254    2694045.53447   2086330.42263
  22190282.2644   -5995816.20946  -4606892.33361
  20298270.2794   -2832670.34446  -2179949.16763
  23376702.107    -2451469.358 5  -1778980.89221
  21614335.9514  -10614678.30847  -8179535.50762
  23474188.772    -2114420.536 5  -1427665.29121
 91  4  1 22 17 14.9980000  0  6G18G11G19G16G 2G 6
  21010840.225     2717636.066 7   2104712.59522
  22187071.3974   -6012673.27846  -4620027.71061
  20296299.537    -2843030.304 6  -2188021.84923
  23372342.3504   -2474389.96945  -1796841.12861
  21605264.9904  -10662343.75647  -8216677.29562
  23465253.381    -2161389.022 5  -1464263.87121
 91  4  1 22 17 29.9980000  0  6G18G11G19G16G 2G 6
  21015345.7254    2741314.10847   2123162.96162
  22183891.1624   -6029385.62646  -4633050.30861
  20294335.240    -2853348.268 6  -2196061.80523
  23368003.959    -2497185.653 5  -1814604.00821
  21596205.982   -10709943.452 7  -8253767.82722
  23456313.7254   -2208360.41645  -1500864.74161
 91  4  1 22 17 44.9980000  0  6G18G11G19G16G 2G 6
  21019870.1154    2765087.07647   2141687.28762
  22180740.0454   -6045945.44846  -4645954.06161
  20292382.7874   -2863616.21846  -2204062.79463
  23363688.959    -2519848.642 5  -1832263.50721
  21587160.8814  -10757469.65747  -8290801.10862
  23447372.701    -2255327.272 5  -1537462.04021
 91  4  1 22 17 59.9980000  0  6G18G11G19G16G 2G 6
  21024410.7794    2788949.99347   2160281.71162
  22177617.6624   -6062357.30246  -4658742.51361
  20290438.014    -2873839.127 6  -2212028.68223
  23359400.967    -2542383.600 5  -1849823.21921
  21578132.678   -10804927.168 7  -8327780.84622
  23438434.139    -2302294.477 5  -1574059.63521
 91  4  1 22 18 14.9980000  0  6G18G11G19G16G 2G 6
  21028966.967     2812898.705 7   2178942.98622
  22174520.7874   -6078625.11846  -4671418.72761
  20288500.2644   -2884020.81846  -2219962.45863
  23355139.7724   -2564794.44745  -1867286.20461
  21569111.951   -10852319.996 7  -8364710.20122
  23429500.6074   -2349265.84445  -1610660.43961
 91  4  1 22 18 29.9980000  0  6G18G11G19G16G 2G 6
  21033542.514     2836940.387 7   2197676.71122
  22171455.8344   -6094741.56746  -4683976.98961
  20286570.2324   -2894154.04146  -2227858.46063
  23350899.5844   -2587074.21945  -1884647.06961
  21560109.2404  -10899640.88547  -8401583.48662
  23420564.1474   -2396234.20445  -1647258.94361
 91  4  1 22 18 44.9980000  0  6G18G11G19G16G 2G 6
  21038134.2254    2861062.91947   2216473.42862
  22168414.881    -6110718.331 6  -4696426.40521
  20284649.818    -2904250.345 6  -2235725.69723
  23346683.8814   -2609234.49645  -1901914.81961
  21551113.795   -10946901.418 7  -8438409.74622
  23411621.225    -2443211.204 5  -1683864.18521
 91  4  1 22 18 59.9980000  0  6G18G11G19G16G 2G 6
  21042741.3974    2885271.16647   2235336.93262
  22165403.5064   -6126550.08246  -4708762.82661
  20282736.107    -2914304.497 6  -2243560.08623
  23342489.1474   -2631270.07345  -1919085.40661
  21542133.1624  -10994096.29447  -8475184.84862
  23402679.740    -2490191.777 5  -1720472.21121
 91  4  1 22 19 14.9980000  0  6G18G11G19G16G 2G 6
  21047364.6544    2909568.25647   2254269.67562
  22162417.1704   -6142233.60546  -4720983.74761
  20280834.3894   -2924313.36646  -2251359.19363
  23338319.912    -2653177.904 5  -1936156.44721
  21533167.967   -11041222.337 7  -8511906.30222
  23393741.4514   -2537172.80645  -1757080.58161
 91  4  1 22 19 29.9980000  0  6G18G11G19G16G 2G 6
  21052003.5224    2933945.73547   2273265.05562
  22159461.4594   -6157777.01146  -4733095.48261
  20278932.420    -2934284.914 6  -2259129.21923
  23334172.2254   -2674965.96145  -1953134.16161
  21524209.8424  -11088287.38447
  23384801.0924   -2584162.42545
 91  4  1 22 19 44.9980000  0  6G18G11G19G16G 2G 6
  21056658.2484    2958405.78947   2292324.77562
  22156530.6074   -6173178.02046  -4745096.26461
  20277045.006    -2944216.940 6  -2266868.44523
  23330053.639    -2696631.964 5  -1970016.78421
  21515264.186   -11135289.408 7
  23375856.7794   -2631158.48845
 91  4  1 22 19 59.9980000  0  6G18G11G19G16G 2G 6
  21061328.4824    2982949.10647   2311449.37662
  22153626.9514   -6188435.71046  -4756985.36861
  20275161.6074   -2954108.29246  -2274575.98363
  23325951.248    -2718175.075 5  -1986803.63521
  21506333.631   -11182227.454 7  -8621780.03622
  23366913.068    -2678159.936 5  -1866939.99521
 91  4  1 22 20 14.9980000  0  6G18G11G19G16G 2G 6
  21066016.4984    3007581.30747   2330643.23962
  22150748.3734   -6203543.97346  -4768758.03661
  20273290.4044   -2963952.91946  -2282247.10863
  23321873.2094   -2739589.49045  -2003490.18761
  21497415.2954  -11229095.35547  -8658300.35963
  23357964.5534   -2725160.92545  -1903563.94161
 91  4  1 22 20 29.9980000  0  6G18G11G19G16G 2G 6
  21070717.2954    3032295.69047   2349901.13762
  22147902.5684   -6218509.38946  -4780419.39461
  20271424.1704   -2973757.24346  -2289886.83263
  23317824.076    -2760881.593 5  -2020081.45221
  21488509.5144  -11275899.62747  -8694771.09363
  23349020.514    -2772168.020 5  -1940192.61921
 91  4  1 22 20 44.9980000  0  6G18G11G19G16G 2G 6
  21075437.9904    3057096.85347   2369226.65562
  22145081.2484   -6233327.29946  -4791965.81261
  20269566.412    -2983516.532 6  -2297491.45923
  23313793.7094   -2782046.84145  -2036573.85161
  21479615.592   -11322635.569 7  -8731188.57723
  23340077.2254   -2819176.70545  -1976822.54161
 91  4  1 22 20 59.9970000  0  6G18G11G19G16G 2G 6
  21080173.5954    3081979.96047   2388616.02662
  22142291.2284   -6247999.44246  -4803398.64861
  20267719.806    -2993233.102 6  -2305062.80123
  23309794.610    -2803086.864 5  -2052968.68921
  21470733.7354  -11369302.95447  -8767552.65563
  23331131.2284   -2866186.73345  -2013453.51161
 91  4  1 22 21 14.9970000  0  6G18G11G19G16G 2G 6
  21084925.9544    3106951.55247   2408074.34662
  22139527.1734   -6262524.17546  -4814716.61461
  20265877.9464   -3002904.63646  -2312599.05163
  23305815.485    -2824000.797 5  -2069265.27221
  21461865.8214  -11415904.35347  -8803865.30363
  23322186.2434   -2913200.80545  -2050087.61961
 91  4  1 22 21 29.9970000  0  6G18G11G19G16G 2G 6
  21089695.2044    3132011.75647   2427601.70962
  22136788.9624   -6276898.45646  -4825917.35361
  20264044.4074   -3012528.25946  -2320097.97163
  23301857.6344   -2844785.36445  -2085461.05761
  21453009.5954  -11462434.71447  -8840122.60363
  23313236.4394   -2960213.82345  -2086720.93061
 91  4  1 22 21 44.9970000  0  6G18G11G19G16G 2G 6
  21094479.6424    3157161.01147   2447198.46862
  22134086.1494   -6291121.64046  -4837000.34861
  20262224.2124   -3022103.27046  -2327559.00263
  23297928.7044   -2865439.97545  -2101555.57761
  21444169.9934  -11508893.33847  -8876324.00463
  23304290.1184   -3007225.12245  -2123352.87861
 91  4  1 22 21 59.9970000  0  6G18G11G19G16G 2G 6
  21099281.8604    3182395.60247   2466861.71762
  22131406.7044   -6305197.16946  -4847968.28961
  20260410.3454   -3031633.06546  -2334984.80863
  23294021.634    -2885968.138 5  -2117551.55421
  21435343.5324  -11555283.49847  -8912472.05463
  23295346.571    -3054238.134 5  -2159986.14921
 91  4  1 22 22 14.9970000  0  6G18G11G19G16G 2G 6
  21104099.8214    3207716.06347   2486591.88262
  22128755.6964   -6319124.58446  -4858820.81261
  20258606.2984   -3041117.08846  -2342374.94263
  23290138.6184   -2906369.30845  -2133448.57661
  21426525.9154  -11601604.67847  -8948566.35863
  23286397.5404   -3101252.57445  -2196620.56061
 91  4  1 22 22 29.9970000  0  6G18G11G19G16G 2G 6
  21108936.0244    3233121.83447   2506388.52062
  22126132.6344   -6332904.02946  -4869558.03961
  20256809.7354   -3050555.55346  -2349729.58363
  23286278.220    -2926643.842 5  -2149246.92621
  21417726.0484  -11647857.10447  -8984607.08963
  23277451.571    -3148268.853 5  -2233256.41821
 91  4  1 22 22 44.9970000  0  6G18G11G19G16G 2G 6
  21113785.6494    3258611.92747   2526250.86162
  22123540.0174   -6346536.00846  -4880180.35561
  20255021.7354   -3059948.87946  -2357049.05163
  23282447.1574   -2946792.37045  -2164947.10061
  21408936.4704  -11694041.41547  -9020594.74263
  23268503.345    -3195287.374 5  -2269893.98821
 91  4  1 22 22 59.9970000  0  6G18G11G19G16G 2G 6
  21118651.6654    3284184.77047   2546177.68662
  22120973.0954   -6360021.91846  -4890688.84861
  20253242.5244   -3069298.46746  -2364334.43563
  23278637.282    -2966816.128 5  -2180550.03821
  21400160.8534  -11740159.12147  -9056530.49363
  23259557.235    -3242309.556 5  -2306534.40321
 91  4  1 22 23 14.9970000  0  6G18G11G19G16G 2G 6
  21123530.9464    3309834.55547   2566164.46562
  22118430.8684   -6373367.45046  -4901087.95961
  20251471.1574   -3078610.03946  -2371590.19663
  23274851.220    -2986721.106 5  -2196060.43321
  21391397.7744  -11786215.77347  -9092418.67263
  23250608.524    -3289341.179 5  -2343182.18021
 91  4  1 22 23 29.9970000  0  6G18G11G19G16G 2G 6
  21128429.509     3335569.088 7   2586217.27322
  22115922.5174   -6386564.46146  -4911371.33961
  20249705.5564   -3087875.24246  -2378809.82363
  23271085.540    -3006499.225 5  -2211471.97421
  21382644.1264  -11832203.06647  -9128252.80563
  23241655.095    -3336374.082 5  -2379830.97421
 91  4  1 22 23 44.9970000  0  6G18G11G19G16G 2G 6
  21133344.2744    3361385.47447   2606333.86762
  22113440.110    -6399615.601 6  -4921541.05021
  20247955.0094   -3097096.80946  -2385995.44863
  23267344.485    -3026153.197 5  -2226786.78221
  21373907.876   -11878123.736 7  -9164035.02623
  23232704.478    -3383411.147 5  -2416482.98721
 91  4  1 22 23 59.9970000  0  6G18G11G19G16G 2G 6
  21138272.6184    3387289.24947   2626518.56262
  22110985.2824   -6412514.99146  -4931592.52661
  20246205.2284   -3106268.90646  -2393142.52663
  23263629.0324   -3045677.23545  -2242000.33261
  21365181.4154  -11923972.03947  -9199760.86263
  23223754.360    -3430446.656 5  -2453133.81821
 91  4  1 22 24 14.9970000  0  6G18G11G19G16G 2G 6
  21143216.946     3413273.273 7   2646765.77822
  22108554.556    -6425269.547 6  -4941531.12921
  20244471.0174   -3115398.18746  -2400256.24263
  23259935.8684   -3065078.20445  -2257118.00161
  21356469.8684  -11969754.67747  -9235435.51563
  23214807.423    -3477487.405 5  -2489788.69921
 91  4  1 22 24 29.9970000  0  6G18G11G19G16G 2G 6
  21148176.7044    3439335.96647   2667074.29862
  22106158.2594   -6437880.78446  -4951358.06561
  20242742.8534   -3124485.95246  -2407337.60963
  23256270.337    -3084357.800 5  -2272141.06921
  21347769.415   -12015473.200 7  -9271060.22323
  23205852.259    -3524534.816 5  -2526448.80421
 91  4  1 22 24 44.9970000  0  6G18G11G19G16G 2G 6
  21153151.189     3465482.760 7   2687448.35222
  22103787.8294   -6450343.08946  -4961068.94361
  20241020.767    -3133526.737 6  -2414382.36023
  23252623.657    -3103510.260 5  -2287065.10021
  21339083.7744  -12061121.85447  -9306630.48863
  23196895.665    -3571583.484 5  -2563109.84921
 91  4  1 22 24 59.9970000  0  6G18G11G19G16G 2G 6
  21158144.3684    3491713.88547   2707888.11862
  22101442.7744   -6462655.60246  -4970663.11261
  20239310.0644   -3142519.50346  -2421389.69963
  23249006.579    -3122534.852 5  -2301889.47921
  21330410.9854  -12106699.75947  -9342145.61863
  23187945.321    -3618632.479 5  -2599771.16121
 91  4  1 22 25 14.9970000  0  6G18G11G19G16G 2G 6
  21163151.696     3518033.173 7   2728396.58522
  22099131.6494   -6474814.45046  -4980137.52761
  20237608.0564   -3151460.54746  -2428356.73763
  23245410.6034   -3141427.83145  -2316611.30161
  21321751.509   -12152203.120 7  -9377602.66723
  23178989.212    -3665678.112 5  -2636429.85621
 91  4  1 22 25 29.9970000  0  6G18G11G19G16G 2G 6
  21168173.2674    3544429.49447   2748965.07962
  22096841.7984   -6486830.71346  -4989500.84461
  20235912.556    -3160360.721 6  -2435291.92623
  23241837.978    -3160200.611 5  -2331239.46721
  21313103.6654  -12197643.00947  -9413010.25663
  23170037.407    -3712731.467 5  -2673094.57321
 91  4  1 22 25 44.9970000  0  6G18G11G19G16G 2G 6
  21173212.540     3570905.635 7   2769595.76022
  22094585.8214   -6498701.16646  -4998750.53961
  20234227.1494   -3169216.78446  -2442192.74263
  23238289.5174   -3178850.01945  -2345771.49561
  21304469.509   -12243016.261 7  -9448365.91623
  23161081.439    -3759789.357 5  -2709762.83621
 91  4  1 22 25 59.9970000  0  6G18G11G19G16G 2G 6
  21178266.345     3597464.053 7   2790290.56122
  22092355.7744   -6510422.95446  -5007884.39661
  20232550.2744   -3178025.85446  -2449056.94163
  23234764.5174   -3197373.00345  -2360205.01061
  21295848.634   -12288320.077 7  -9483667.48123
  23152127.2284   -3806849.09545  -2746432.52861
 91  4  1 22 26 14.9970000  0  6G18G11G19G16G 2G 6
  21183337.423     3624107.150 7   2811051.34222
  22090149.2044   -6521993.60746  -5016900.47861
  20230885.0324   -3186785.41246  -2455882.56163
  23231265.8214   -3215767.23345  -2374538.19561
  21287241.0484  -12333551.75247  -9518912.82763
  23143171.681    -3853908.135 5  -2783101.66321
 91  4  1 22 26 29.9970000  0  6G18G11G19G16G 2G 6
  21188423.212     3650834.397 7   2831877.69022
  22087978.118    -6533413.408 6  -5025799.01721
  20229229.626    -3195495.613 6  -2462669.71823
  23227790.9934   -3234033.10545  -2388771.37361
  21278648.876   -12378711.454 7  -9554102.09223
  23134215.064    -3900966.731 5  -2819770.44621
 91  4  1 22 26 44.9970000  0  6G18G11G19G16G 2G 6
  21193525.4624    3677640.70247   2852765.64662
  22085832.9394   -6544687.11046  -5034583.71961
  20227579.345    -3204161.145 6  -2469422.06423
  23224332.0644   -3252175.35445  -2402908.21461
  21270066.478   -12423804.128 7  -9589239.13223
  23125259.0644   -3948029.69645  -2856442.64061
 91  4  1 22 26 59.9970000  0  6G18G11G19G16G 2G 6
  21198642.478     3704530.225 7   2873718.44622
  22083717.8684   -6555810.48046  -5043251.27561
  20225937.9394   -3212777.73146  -2476136.27863
  23220907.267    -3270189.918 5  -2416945.55421
  21261499.032   -12468825.587 7  -9624320.67423
  23116307.220    -3995092.997 5  -2893115.12021
 91  4  1 22 27 14.9970000  0  6G18G11G19G16G 2G 6
  21203775.696     3731505.965 7   2894738.42322
  22081627.6424   -6566780.35446  -5051799.22261
  20224310.4394   -3221342.12046  -2482809.81663
  23217504.032    -3288073.522 5  -2430880.85921
  21252946.345   -12513772.650 7  -9659344.24623
  23107346.6574   -4042153.37445  -2929785.34461
 91  4  1 22 27 29.9970000  0  6G18G11G19G16G 2G 6
  21208924.8994    3758566.57847   2915824.54962
  22079570.9784   -6577597.60746  -5060228.24761
  20222690.0874   -3229854.92946  -2489443.16163
  23214122.814    -3305827.478 5  -2444715.12821
  21244405.759   -12558646.020 7  -9694310.40423
  23098392.259    -4089211.833 5  -2966454.04821
 91  4  1 22 27 44.9970000  0  6G18G11G19G16G 2G 6
  21214090.642     3785714.233 7   2936978.48422
  22077541.5244   -6588259.90746  -5068536.53061
  20221080.8924   -3238313.72846  -2496034.42363
  23210770.126    -3323449.437 5  -2458446.56021
  21235881.337   -12603443.356 7  -9729217.30723
  23089438.001    -4136265.684 5  -3003119.15421
 91  4  1 22 27 59.9970000  0  6G18G11G19G16G 2G 6
  21219273.673     3812947.246 7   2958198.93622
  22075541.8844   -6598768.70046  -5076725.19661
  20219479.6734   -3246720.04946  -2502584.79463
  23207440.907    -3340940.760 5  -2472076.17521
  21227372.899   -12648166.069 7  -9764066.06323
  23080482.1654   -4183316.71245  -3039782.03661
 91  4  1 22 28 14.9970000  0  6G18G11G19G16G 2G 6
  21224470.931     3840263.456 7   2979484.22322
  22073570.8144   -6609125.92546  -5084795.76061
  20217891.1494   -3255075.71946  -2509095.69763
  23204138.056    -3358303.487 5  -2485605.60021
  21218874.282   -12692816.025 7  -9798858.13323
  23071533.642    -4230366.931 5  -3076444.34121
 91  4  1 22 28 29.9970000  0  6G18G11G19G16G 2G 6
  21229684.806     3867658.557 7   3000830.97322
  22071627.6184   -6619335.95346  -5092751.62461
  20216311.1104   -3263385.19046  -2515570.60063
  23200859.9234   -3375541.98045  -2499038.22461
  21210391.657   -12737397.555 7  -9833596.87823
  23062578.360    -4277420.510 5  -3113109.25521
 91  4  1 22 28 44.9970000  0  6G18G11G19G16G 2G 6
  21234912.915     3895136.032 7   3022241.91422
  22069711.8064   -6629394.71846  -5100589.62061
  20214737.4544   -3271643.99946  -2522006.02463
  23197602.267    -3392652.191 5  -2512370.87621
  21201920.860   -12781906.381 7  -9868278.97223
  23053623.7984   -4324473.36345  -3149773.59061
 91  4  1 22 28 59.9970000  0  6G18G11G19G16G 2G 6
  21240157.228     3922694.177 7   3043715.71722
  22067827.2824   -6639303.72746  -5108310.92961
  20213177.4154   -3279853.67446  -2528403.16763
  23194367.8214   -3409635.73545  -2525604.83361
  21193465.079   -12826344.272 7  -9902905.79323
  23044668.220    -4371527.351 5  -3186438.80121
 91  4  1 22 29 14.9970000  0  6G18G11G19G16G 2G 6
  21245416.392     3950326.917 7   3065247.64222
  22065968.5244   -6649068.79046  -5115920.06661
  20211623.071    -3288019.955 6  -2534766.49123
  23191163.118    -3426498.275 5  -2538744.50021
  21185020.204   -12870717.023 7  -9937481.85523
  23035714.790    -4418588.051 5  -3223109.28221
 91  4  1 22 29 29.9970000  0  6G18G11G19G16G 2G 6
  21250690.235     3978037.528 7   3086840.24922
  22064137.7044   -6658686.58146  -5123414.45161
  20210075.6264   -3296139.35646  -2541093.28963
  23187977.384    -3443237.081 5  -2551787.74221
  21176590.907   -12915021.096 7  -9972004.40723
  23026757.7044   -4465652.12445  -3259782.37061
 91  4  1 22 29 44.9970000  0  6G18G11G19G16G 2G 6
  21255977.399     4005825.432 7   3108493.08522
  22062337.0564   -6668157.45646  -5130794.35161
  20208541.1654   -3304212.25846  -2547383.85463
  23184819.3764   -3459852.16445  -2564734.58361
  21168172.993   -12959256.723 7 -10006473.61823
  23017802.0324   -4512719.95945  -3296458.38961
 91  4  1 22 29 59.9970000  0  6G18G11G19G16G 2G 6
  21261280.290     4033691.000 7   3130206.43222
  22060565.0714   -6677480.87746  -5138059.35461
  20207011.4934   -3312237.92746  -2553637.61763
  23181677.110    -3476343.222 5  -2577584.77121
  21159768.243   -13003423.439 7 -10040889.13723
  23008838.9704   -4559791.13445  -3333137.01261
 91  4  1 22 30 14.9970000  0  6G18G11G19G16G 2G 6
  21266599.282     4061638.300 7   3151983.47022
  22058819.4154   -6686652.47746  -5145206.05361
  20205494.2204   -3320211.85246  -2559851.05563
  23178560.8844   -3492705.98245  -2590335.00861
  21151377.290   -13047516.924 7 -10075247.59223
  22999883.9154   -4606861.22745  -3369814.77061
 91  4  1 22 30 29.9970000  0  6G18G11G19G16G 2G 6
  21271928.298     4089657.205 7   3173816.30622
  22057099.2354   -6695682.00646  -5152242.05561
  20203985.8604   -3328143.83746  -2566031.81563
  23175467.767    -3508950.082 5  -2602992.76421
  21142996.618   -13091546.999 7 -10109556.63423
  22990922.6034   -4653939.95545  -3406499.32161
 91  4  1 22 30 44.9970000  0  6G18G11G19G16G 2G 6
  21277274.954     4117749.750 7   3195706.51622
  22055408.8294   -6704567.27746  -5159165.64561
  20202485.9314   -3336031.55046  -2572178.07863
  23172404.6964   -3525073.64645  -2615556.62561
  21134632.485   -13135511.157 7 -10143814.31823
  22981964.587    -4701025.232 5  -3443188.90921
 91  4  1 22 30 59.9970000  0  6G18G11G19G16G 2G 6
  21282637.837     4145920.284 7   3217657.50722
  22053747.4464   -6713303.59146  -5165973.16261
  20200991.1734   -3343870.02646  -2578285.97763
  23169360.9394   -3541071.97145  -2628022.88061
  21126279.149   -13179404.737 7 -10178017.00323
  22973005.4854   -4748112.04445  -3479879.72961
 91  4  1 22 31 14.9970000  0  6G18G11G19G16G 2G 6
  21288011.704     4174164.595 7   3239665.97822
  22052109.5174   -6721895.25046  -5172667.97361
  20199510.9784   -3351663.60946  -2584358.89263
  23166337.759    -3556949.246 5  -2640394.82721
  21117937.470   -13223232.026 7 -10212168.03423
  22964044.399    -4795205.024 5  -3516575.32421
 91  4  1 22 31 29.9970000  0  6G18G11G19G16G 2G 6
  21293401.032     4202487.975 7   3261736.06122
  22050504.7514   -6730336.69846  -5179245.72461
  20198036.4314   -3359406.74846  -2590392.50363
  23163341.5874   -3572700.25445  -2652668.37461
  21109613.118   -13266987.319 7 -10246262.96023
  22955084.165    -4842298.630 5  -3553271.42421
 91  4  1 22 31 44.9970000  0  6G18G11G19G16G 2G 6
  21298805.110     4230888.930 7   3283866.60022
  22048927.8764   -6738629.11146  -5185707.34661
  20196572.8144   -3367100.37646  -2596387.52963
  23160368.5714   -3588325.97345  -2664844.29161
  21101301.087   -13310671.863 7 -10280302.76323
  22946123.345    -4889393.803 5  -3589968.78121
 91  4  1 22 31 59.9970000  0  6G18G11G19G16G 2G 6
  21304226.001     4259372.860 7   3306061.79522
  22047376.5644   -6746767.03946  -5192048.59461
  20195118.8064   -3374738.92646  -2602339.64363
  23157418.0874   -3603821.32245  -2676918.62061
  21093002.329   -13354280.134 7 -10314283.12923
  22937157.4624   -4936485.17345  -3626663.16661
 91  4  1 22 32 14.9970000  0  6G18G11G19G16G 2G 6
  21309662.0324    4287940.40247   3328322.13262
  22045859.8144   -6754749.26746  -5198268.51361
  20193674.5714   -3382321.06646  -2608247.79963
  23154495.0174   -3619184.76545  -2688890.17561
  21084718.095   -13397810.765 7 -10348203.00023
  22928196.181    -4983571.578 5  -3663353.61621
 91  4  1 22 32 29.9970000  0  6G18G11G19G16G 2G 6
  21315114.337     4316588.579 7   3350645.30122
  22044370.4704   -6762578.59846  -5204369.29961
  20192242.1104   -3389849.67746  -2614114.23663
  23151598.3994   -3634419.66845  -2700761.56261
  21076446.564   -13441266.777 7 -10382064.72823
  22919237.681    -5030655.898 5  -3700042.51421
 91  4  1 22 32 44.9970000  0  6G18G11G19G16G 2G 6
  21320582.446     4345321.641 7   3373034.62622
  22042909.3454   -6770250.92546  -5210347.73561
  20190822.6654   -3397320.42346  -2619935.59263
  23148723.0094   -3649521.68045  -2712529.38761
  21068193.907   -13484644.037 7 -10415865.08523
  22910278.337    -5077733.791 5  -3736726.35721
 91  4  1 22 32 59.9970000  0  6G18G11G19G16G 2G 6
  21326065.595     4374137.879 7   3395488.75522
  22041478.0714   -6777767.63946
  20189413.0954   -3404734.43446
  23145871.4854   -3664492.28645  -2724194.84561
  21059954.946   -13527943.573 7 -10449604.88423
  22901322.985    -5124806.791 5  -3773406.43021
 91  4  1 22 33 14.9970000  0  6G18G11G19G16G 2G 6
  21331563.290     4403029.382 7   3418001.53322
  22040077.6574   -6785136.37446
  20188009.7744   -3412099.22246  -2631451.52963
  23143046.9544   -3679339.11345  -2735763.84161
  21051727.743   -13571172.930 7 -10483289.99423
  22892362.1734   -5171882.37145  -3810088.48261
 91  4  1 22 33 29.9970000  0  6G18G11G19G16G 2G 6
  21337076.774     4431998.707 7   3440574.95022
  22038702.7984   -6792354.39746
  20186620.7434   -3419412.10746  -2637149.88163
  23140245.6264   -3694059.73045  -2747234.48961
  21043515.5954  -13614329.44447 -10516918.34663
  22883407.556    -5218957.704 5  -3846770.34521
 91  4  1 22 33 44.9970000  0  6G18G11G19G16G 2G 6
  21342602.446     4461048.385 7   3463210.98422
  22037360.610    -6799418.858 6
  20185236.7354   -3426670.01446  -2642805.38063
  23137471.0954   -3708650.97245  -2758604.33061
  21035316.470   -13657410.263 7 -10550487.71623
  22874447.001    -5266030.300 5  -3883450.08921
 91  4  1 22 33 59.9970000  0  6G18G11G19G16G 2G 6
  21348148.087     4490173.642 7   3485905.91122
  22036044.2354   -6806334.54646        -0.37471
  20183863.3844   -3433877.46846  -2648421.57363
  23134720.5404   -3723117.78345  -2769877.19161
  21027132.0404  -13700419.89847 -10584001.61763
  22865490.5244   -5313104.44645  -3920131.03961
 91  4  1 22 34 14.9970000  0  6G18G11G19G16G 2G 6
  21353705.3064    4519383.01947   3508666.37362
  22034758.235    -6813092.414 6     -5266.25321
  20182506.1814   -3441025.37946  -2653991.36663
  23131992.806    -3737451.258 5  -2781046.18521
  21018964.2984  -13743349.35747 -10617453.04963
  22856533.532    -5360171.257 5  -3956806.24421
 91  4  1 22 34 29.9970000  0  6G18G11G19G16G 2G 6
  21359277.985     4548669.917 7   3531487.24922
  22033500.673    -6819699.062 6    -10414.30521
  20181156.1894   -3448120.30046  -2659519.87463
  23129289.384    -3751658.266 5  -2792116.62221
  21010807.040   -13786205.370 7 -10650847.24423
  22847574.603    -5407237.435 5  -3993480.97821
 91  4  1 22 34 44.9970000  0  6G18G11G19G16G 2G 6
  21364865.103     4578032.775 7   3554367.32322
  22032271.8374   -6826155.63646    -15445.41061
  20179815.1034   -3455163.27346  -2665007.90163
  23126606.157    -3765739.864 5  -2803089.34521
  21002665.3374  -13828988.82147 -10684184.90063
  22838618.282    -5454303.984 5  -4030156.02921
 91  4  1 22 34 59.9970000  0  6G18G11G19G16G 2G 6
  21370471.2204    4607475.27047   3577309.44162
  22031073.3764   -6832458.56546    -20356.78561
  20178485.3064   -3462150.65646  -2670452.60863
  23123949.501    -3779692.630 5  -2813961.68421
  20994539.2044  -13871696.20047 -10717463.28263
  22829665.321    -5501367.314 5  -4066828.55221
 91  4  1 22 35 14.9970000  0  6G18G11G19G16G 2G 6
  21376089.4704    4637007.12247   3600321.18761
  22029904.2204   -6838597.66746    -25140.51261
  20177168.6104   -3469071.86746  -2675845.75763
  23121321.8764   -3793506.15445  -2824725.53161
  20986428.9784  -13914317.18447 -10750674.34063
  22820712.939    -5548417.088 5  -4103490.49021
 91  4  1 22 35 29.9970000  0  6G18G11G19G16G 2G 6
  21381725.056     4666620.607 7   3623396.54821
  22028765.6424   -6844580.75146    -29802.65961
  20175862.9704   -3475934.65946  -2681193.38363
  23118720.360    -3807188.288 5  -2835386.98221
  20978331.6964  -13956859.63147 -10783824.20063
  22811757.7674   -5595461.09045  -4140147.94861
 91  4  1 22 35 44.9970000  0  6G18G11G19G16G 2G 6
  21387373.939     4696313.179 7   3646533.53722
  22027656.8144   -6850410.07446    -34345.00061
  20174567.6964   -3482741.22646  -2686497.19663
  23116141.751    -3820741.501 5  -2845947.96821
  20970251.2594  -13999325.61547 -10816914.48263
  22802806.1814   -5642501.66545  -4176802.73161
 91  4  1 22 35 59.9970000  0  6G18G11G19G16G 2G 6
  21393042.040     4726092.674 7   3669738.25322
  22026577.7204   -6856077.52046    -38761.19561
  20173281.8684   -3489483.21846  -2691750.68763
  23113587.7824   -3834157.67545  -2856402.18261
  20962185.5484  -14041706.92147 -10849938.78163
  22793856.470    -5689530.527 5  -4213448.41821
 91  4  1 22 36 14.9970000  0  6G18G11G19G16G 2G 6
  21398723.274     4755959.308 7   3693010.87222
  22025529.853    -6861582.825 6    -43051.05821
  20172014.1654   -3496160.17846  -2696953.51063
  23111063.7674   -3847436.74845  -2866749.55961
  20954137.1344  -14084003.19347 -10882896.82163
  22784911.814    -5736547.441 5  -4250084.76521
 91  4  1 22 36 29.9970000  0  6G18G11G19G16G 2G 6
  21404422.6814    4785904.02947   3716344.33062
  22024512.4394   -6866934.71046    -47221.36361
  20170752.6654   -3502780.69646  -2702112.35263
  23108557.485    -3860587.287 5  -2876996.79021
  20946103.5954  -14126223.04547 -10915795.31263
  22775962.9464   -5783560.92245  -4286718.45261
 91  4  1 22 36 44.9970000  0  6G18G11G19G16G 2G 6
  21410136.032     4815931.339 7   3739742.15022
  22023521.470    -6872128.585 6    -51268.54821
  20169505.4074   -3509340.09046  -2707223.56163
  23106079.384    -3873604.924 5  -2887140.45321
  20938084.5874  -14168361.88047 -10948630.66863
  22767020.0174   -5830566.49545  -4323345.95961
 91  4  1 22 36 59.9970000  0  6G18G11G19G16G 2G 6
  21415866.9624    4846040.34847   3763203.62762
  22022564.431    -6877165.177 6    -55193.17521
  20168269.7284   -3515839.07446  -2712287.69863
  23103629.696    -3886490.523 5  -2897181.22621
  20930082.3924  -14210420.29647 -10981403.36863
  22758069.1734   -5877564.72845  -4359967.74261
 91  4  1 22 37 14.9970000  0  6G18G11G19G16G 2G 6
  21421612.173     4876228.267 7   3786726.59622
  22021637.5404   -6882046.81546    -58997.05661
  20167044.5484   -3522279.63246  -2717306.31263
  23101200.079    -3899246.316 5  -2907120.86221
  20922093.6654  -14252400.61047 -11014115.20863
  22749133.368    -5924557.834 5  -4396585.55521
 91  4  1 22 37 29.9970000  0  6G18G11G19G16G 2G 6
  21427371.032     4906497.746 7   3810313.12322
  22020739.720    -6886770.972 6    -62678.23221
  20165830.9544   -3528659.06046  -2722277.28763
  23098797.3764   -3911869.76445  -2916957.37361
  20914118.3924  -14294300.25747 -11046764.19063
  22740191.337    -5971543.304 5  -4433197.41621
 91  4  1 22 37 44.9970000  0  6G18G11G19G16G 2G 6
  21433146.4854    4936849.55447   3833963.78761
  22019867.9074   -6891336.70846    -66235.95861
  20164628.4624   -3534976.19846  -2727199.72763
  23096422.6654   -3924360.21545  -2926690.25161
  20906162.0714  -14336118.32247 -11079349.60363
  22731248.5324   -6018520.19745  -4469802.58261
 91  4  1 22 37 59.9970000  0  6G18G11G19G16G 2G 6
  21438939.4234    4967285.02647   3857679.65062
  22019029.056    -6895742.444 6    -69669.01821
  20163436.2594   -3541229.44146  -2732072.38063
  23094069.196    -3936716.054 5  -2936318.22521
  20898222.1574  -14377852.87947 -11111869.94363
  22722314.0644   -6065486.79645  -4506399.73361
 91  4  1 22 38 14.9970000  0  6G18G11G19G16G 2G 6
  21444746.290     4997802.956 7   3881459.77222
  22018220.110    -6899989.120 6    -72978.12921
  20162258.5174   -3547419.64846  -2736895.91863
  23091748.993    -3948938.429 5  -2945842.20921
  20890294.6734  -14419504.94847 -11144326.01163
  22713377.7204   -6112444.12945  -4542989.67861
 91  4  1 22 38 29.9970000  0  6G18G11G19G16G 2G 6
  21450569.1574    5028399.30347   3905300.98962
  22017443.962    -6904080.545 6    -76166.26421
  20161091.4234   -3553550.46246  -2741673.17163
  23089445.673    -3961030.968 5  -2955265.02721
  20882382.7674  -14461078.24947 -11176720.69863
  22704441.681    -6159395.883 5  -4579575.25821
 91  4  1 22 38 44.9970000  0  6G18G11G19G16G 2G 6
  21456407.4854    5059079.85947   3929207.82562
  22016696.189    -6908010.692 6    -79228.73121
  20159938.5794   -3559615.73846  -2746399.35263
  23087172.1654   -3972987.52045  -2964581.89161
  20874486.8924  -14502566.72047 -11209049.28863
  22695512.103    -6206335.975 5  -4616151.74621
 91  4  1 22 38 59.9970000  0  6G18G11G19G16G 2G 6
  21462258.8374    5089837.22747   3953174.51662
  22015977.657    -6911786.807 6    -82171.17821
  20158795.4314   -3565622.72846  -2751080.11763
  23084917.9784   -3984815.70345  -2973798.71761
  20866607.2984  -14543977.59147 -11241317.40963
  22686582.251    -6253271.575 5  -4652724.74321
 91  4  1 22 39 14.9970000  0  6G18G11G19G16G 2G 6
  21468127.0874    5120672.72547   3977202.08261
  22015288.376    -6915407.538 6    -84992.54721
  20157663.4154   -3571569.71446  -2755714.13063
  23082695.3684   -3996514.17045  -2982914.48361
  20858743.4234  -14585309.29647 -11273523.83563
  22677648.1964   -6300201.15245  -4689293.05561
 91  4  1 22 39 29.9970000  0  6G18G11G19G16G 2G 6
  21474009.7514    5151584.14647   4001288.80761
  22014626.712    -6918874.561 6    -87694.14121
  20156542.0094   -3577458.21646  -2760302.56663
  23080492.517    -4008084.582 5  -2991930.43821
  20850892.0794  -14626563.39447 -11305669.79763
  22668719.603    -6347126.426 5  -4725858.00321
 91  4  1 22 39 44.9970000  0  6G18G11G19G16G 2G 6
  21479904.1654    5182561.79547   4025427.13461
  22013994.017    -6922197.773 6    -90283.67321
  20155431.8294   -3583297.81146  -2764852.90063
  23078309.509    -4019537.092 5  -3000854.51921
  20843053.9394  -14667749.62847 -11337762.87863
  22659789.329    -6394057.007 5  -4762427.10021
 91  4  1 22 39 59.9970000  0  6G18G11G19G16G 2G 6
  21485813.4544    5213616.41247   4049625.44361
  22013392.689    -6925366.384 6    -92752.74821
  20154332.6654   -3589077.58546  -2769356.61663
  23076155.6894   -4030860.94645  -3009678.38261
  20835231.4074  -14708857.12347 -11369794.59863
  22650854.5324   -6440982.27045  -4798992.04361
 91  4  1 22 40 14.9970000  0  6G18G11G19G16G 2G 6
  21491739.3924    5244743.80147   4073880.45261
  22012819.079    -6928384.199 6    -95104.30821
  20153243.7124   -3594801.23146  -2773816.59363
  23074026.134    -4042059.787 5  -3018404.80221
  20827423.6574  -14749889.78547 -11401768.01663
  22641925.196    -6487905.748 5  -4835555.59321
 91  4  1 22 40 29.9970000  0  6G18G11G19G16G 2G 6
  21497677.2204    5275949.68847   4098196.63661
  22012273.759    -6931245.429 6    -97333.85521
  20152162.2824   -3600462.74346  -2778228.15763
  23071921.2124   -4053127.64945  -3027029.17461
  20819630.3924  -14790841.59447 -11433678.42763
  22632999.3764   -6534821.61845  -4872113.23461
 91  4  1 22 40 44.9970000  0  6G18G11G19G16G 2G 6
  21503629.103     5307224.498 7   4122566.50821
  22011755.821    -6933959.156 6    -99448.46621
  20151098.6264   -3606071.12646  -2782598.32163
  23069834.8604   -4064074.00145  -3035558.86361
  20811850.024   -14831721.602 7 -11465532.89423
  22624071.642    -6581738.933 5  -4908671.99221
 91  4  1 22 40 59.9970000  0  6G18G11G19G16G 2G 6
  21509595.3454    5338580.08047   4146999.33761
  22011271.087    -6936513.624 6   -101438.98421
  20150045.0404   -3611614.34346  -2786917.70763
  23067784.899    -4074887.110 5  -3043984.74921
  20804086.6964  -14872518.01247 -11497322.21763
  22615142.0564   -6628645.76645  -4945222.58361
 91  4  1 22 41 14.9970000  0  6G18G11G19G16G 2G 6
  21515575.0874    5370011.75546   4171491.45661
  22010816.728    -6938913.321 6   -103308.90121
  20148999.1264   -3617096.63446  -2791189.62263
  23065745.142    -4085571.543 5  -3052310.35221
  20796338.7514  -14913234.92647 -11529049.59463
  22606221.5174   -6675546.40045  -4981768.34361
 91  4  1 22 41 29.9970000  0  6G18G11G19G16G 2G 6
  21521569.751     5401517.409 6   4196041.20521
  22010388.798    -6941160.289 6   -105059.80721
  20147969.6894   -3622519.94646  -2795415.57663
  23063734.9074   -4096129.36045  -3060537.30661
  20788606.4544  -14953874.56647 -11560716.75963
  22597294.298    -6722443.071 5  -5018311.01621
 91  4  1 22 41 44.9970000  0  6G18G11G19G16G 2G 6
  21527580.1654    5433093.65147   4220645.97261
  22009989.4544   -6943257.79646   -106694.25561
  20146946.6104   -3627887.41546  -2799598.01763
  23061753.532    -4106563.582 5  -3068667.95521
  20780886.0564  -14994439.96347 -11592326.07063
  22588372.173    -6769338.670 5  -5054852.86821
 91  4  1 22 41 59.9970000  0  6G18G11G19G16G 2G 6
  21533604.0484    5464737.82146   4245303.67461
  22009617.392    -6945208.167 6   -108214.04121
  20145934.0484   -3633200.99446  -2803738.46663
  23059791.704    -4116876.932 5  -3076704.40521
  20773180.907   -15034933.374 7 -11623879.29523
  22579449.3764   -6816235.52045  -5091395.68861
 91  4  1 22 42 14.9970000  0  6G18G11G19G16G 2G 6
  21539635.314     5496447.373 6   4270012.30821
  22009270.829    -6947013.663 6   -109620.94521
  20144934.2904   -3638462.94546  -2807838.69063
  23057849.2904   -4127071.84245  -3084648.54261
  20765488.915   -15075357.080 7 -11655378.20423
  22570521.5564   -6863135.86245  -5127941.23061
 91  4  1 22 42 29.9970000  0  6G18G11G19G16G 2G 6
  21545685.681     5528229.339 7   4294777.36521
  22008958.899    -6948667.294 6   -110909.51221
  20143942.8214   -3643666.11146  -2811893.10863
  23055934.806    -4137141.203 5  -3092494.87321
  20757810.3684  -15115703.93747 -11686817.22463
  22561599.2204   -6910032.64345  -5164483.98461
 91  4  1 22 42 44.9970000  0  6G18G11G19G16G 2G 6
  21551745.7514    5560085.30746   4319600.10561
  22008672.6734   -6950167.12946   -112078.24061
  20142965.1964   -3648808.42146  -2815900.10063
  23054039.5094   -4147083.34745  -3100242.05361
  20750148.548   -15155971.876 7 -11718194.75323
  22552676.9854   -6956923.76346  -5201022.34661
 91  4  1 22 42 59.9970000  0  6G18G11G19G16G 2G 6
  21557818.9784    5592011.65246   4344477.67261
  22008413.798    -6951516.785 6   -113129.93721
  20141998.0874   -3653893.17946  -2819862.25363
  23052175.462    -4156901.721 5  -3107892.80821
  20742498.196   -15196164.319 7 -11749513.46123
  22543749.8064   -7003812.67945  -5237559.00461
 91  4  1 22 43 14.9970000  0  6G18G11G19G16G 2G 6
  21563910.860     5624007.953 6   4369409.75221
  22008187.829    -6952716.578 6   -114064.86421
  20141042.6574   -3658920.61646  -2823779.73963
  23050329.321    -4166596.852 5  -3115447.52921
  20734865.728   -15236281.511 7 -11780773.52923
  22534832.298    -7050699.710 5  -5274094.16621
 91  4  1 22 43 29.9970000  0  6G18G11G19G16G 2G 6
  21570013.806     5656076.337 6   4394397.99121
  22007990.751    -6953763.909 6   -114880.98621
  20140094.5014   -3663887.83246  -2827650.30163
  23048504.501    -4176166.005 5  -3122904.08621
  20727245.689   -15276320.962 7 -11811973.02123
  22525909.4314   -7097582.24545  -5310625.84261
 91  4  1 22 43 44.9970000  0  6G18G11G19G16G 2G 6
  21576130.267     5688216.379 6   4419442.07321
  22007817.5244   -6954659.54546   -115578.91761
  20139162.6034   -3668795.39946  -2831474.38463
  23046710.9624   -4185609.93345  -3130263.08361
  20719639.712   -15316283.070 7 -11843112.24223
  22516989.767    -7144460.652 5  -5347154.30521
 91  4  1 22 43 59.9970000  0  6G18G11G19G16G 2G 6
  21582257.6894    5720422.65646   4444537.77561
  22007676.0014   -6955408.64846   -116162.65961
  20138236.4154   -3673648.25046  -2835255.83263
  23044934.524    -4194933.781 5  -3137528.50021
  20712049.985   -15356173.026 7 -11874195.24723
  22508067.9854   -7191340.12745  -5383683.58961
 91  4  1 22 44 14.9970000  0  6G18G11G19G16G 2G 6
  21588402.306     5752699.992 7   4469688.84221
  22007560.704    -6956006.005 6   -116628.15721
  20137326.2514   -3678441.03346  -2838990.47663
  23043184.610    -4204132.531 5  -3144696.44221
  20704474.243   -15395985.555 7 -11905217.92123
  22499147.8454   -7238215.30045  -5420209.53861
 91  4  1 22 44 29.9970000  0  6G18G11G19G16G 2G 6
  21594555.5954    5785045.56746   4494893.06761
  22007477.728    -6956454.055 6   -116977.31621
  20136425.0404   -3683176.01946  -2842680.08363
  23041458.071    -4213208.744 5  -3151768.89921
  20696912.564   -15435722.846 7 -11936181.96723
  22490225.251    -7285088.475 5  -5456733.91921
 91  4  1 22 44 44.9970000  0  6G18G11G19G16G 2G 6
  21600725.907     5817465.401 6   4520155.16921
  22007421.118    -6956747.136 6   -117205.70821
  20135537.7284   -3687847.32146  -2846320.06863
  23039755.3144   -4222156.65445  -3158741.35661
  20689365.774   -15475379.290 7 -11967083.01623
  22481306.548    -7331953.925 5  -5493252.27321
 91  4  1 22 44 59.9970000  0  6G18G11G19G16G 2G 6
  21606908.1814    5849957.90346   4545473.90761
  22007396.7744   -6956886.49946
  20134657.743    -3692455.857 6  -2849911.14323
  23038077.407    -4230977.504 5  -3165614.82621
  20681835.220   -15514955.877 7 -11997921.83623
  22472391.228    -7378812.560 5  -5529765.32721
 91  4  1 22 45 14.9960000  0  6G18G11G19G16G 2G 6
  21613104.8874    5882518.75146   4570845.87861
  22007401.1604   -6956874.09846
  20133794.2314   -3697002.98446  -2853454.37063
  23036421.231    -4239672.925 5  -3172390.54021
  20674317.926   -15554451.853 7 -12028697.84723
  22463476.895    -7425663.287 5  -5566272.23221
 91  4  1 22 45 29.9960000  0  6G18G11G19G16G 2G 6
  21619312.6374    5915159.65946   4596280.22761
  22007430.731    -6956702.459 6
  20132943.3954   -3701481.65446  -2856944.24963
  23034793.410    -4248236.603 5  -3179063.59421
  20666817.777   -15593864.915 7 -12059409.25223
  22454565.3484   -7472504.85445  -5602771.98861
 91  4  1 22 45 44.9960000  0  6G18G11G19G16G 2G 6
  21625540.965     5947872.618 6   4621770.74021
  22007490.035    -6956377.192 6
  20132102.3164   -3705897.22746  -2860384.96163
  23033187.2704   -4256673.69845  -3185638.01561
  20659334.004   -15633197.947 7 -12090058.28823
  22445650.402    -7519339.473 5  -5639266.33121
 91  4  1 22 45 59.9960000  0  6G18G11G19G16G 2G 6
  21631778.785     5980657.444 6   4647317.25621
  22007581.598    -6955898.369 6   -116544.45221
  20131276.4964   -3710249.52346  -2863776.37163
  23031605.012    -4264984.113 5  -3192113.75321
  20651864.856   -15672450.978 7 -12120644.99223
  22436738.7384   -7566167.08145  -5675755.20361
 91  4  1 22 46 14.9960000  0  6G18G11G19G16G 2G 6
  21638032.379     6013515.418 6   4672920.75021
  22007701.621    -6955264.748 6   -116050.74621
  20130457.801    -3714537.113 6  -2867117.36223
  23030048.402    -4273166.708 5  -3198489.86821
  20644409.4574  -15711622.50147 -12151168.19063
  22427829.1374   -7612986.33845  -5712237.57161
 91  4  1 22 46 29.9960000  0  6G18G11G19G16G 2G 6
  21644298.7624    6046439.01546   4698575.37861
  22007851.621    -6954483.699 6   -115442.15221
  20129651.1524   -3718767.05546  -2870413.42863
  23028517.3564   -4281228.92245  -3204772.22361
  20636971.074   -15750719.930 7 -12181633.64823
  22418918.5664   -7659804.41645  -5748719.04161
 91  4  1 22 46 44.9960000  0  6G18G11G19G16G 2G 6
  21650577.152     6079436.160 6   4724287.33021
  22008030.691    -6953547.047 6   -114712.32221
  20128860.2624   -3722931.02946  -2873658.08863
  23027005.9104   -4289162.84245  -3210954.58061
  20629543.637   -15789735.025 7 -12212034.94623
  22410011.1524   -7706613.21845  -5785193.26561
 91  4  1 22 46 59.9960000  0  6G18G11G19G16G 2G 6
  21656867.504     6112498.194 6   4750049.84621
  22008236.488    -6952463.109 6   -113867.71621
  20128079.3404   -3727037.05046  -2876857.59463
  23025520.106    -4296976.590 5  -3217043.29321
  20622136.3244  -15828675.91847 -12242378.43163
  22401106.793    -7753420.719 5  -5821666.47721
 91  4  1 22 47 14.9960000  0  6G18G11G19G16G 2G 6
  21663172.2854    6145621.67646   4775860.23061
  22008473.207    -6951235.242 6   -112910.96321
  20127307.3244   -3731088.30446  -2880014.42763
  23024053.926    -4304673.452 5  -3223040.92221
  20614738.910   -15867545.637 7 -12272666.45323
  22392198.504    -7800230.155 5  -5858141.18921
 91  4  1 22 47 29.9960000  0  6G18G11G19G16G 2G 6
  21669487.3244    6178810.85046   4801721.78861
  22008731.488    -6949859.363 6   -111838.87521
  20126546.6214   -3735080.34046  -2883125.10963
  23022611.4734   -4312249.47545  -3228944.40061
  20607355.856   -15906340.101 7 -12302895.83423
  22383294.918    -7847037.288 6  -5894614.11021
 91  4  1 22 47 44.9960000  0  6G18G11G19G16G 2G 6
  21675817.621     6212064.899 6   4827633.92221
  22009022.1524   -6948336.23946   -110652.05261
  20125798.6064   -3739013.89546  -2886190.22763
  23021194.8014   -4319705.53745  -3234754.39661
  20599987.2704  -15945059.95047 -12333067.07463
  22374380.7234   -7893842.68545  -5931085.70461
 91  4  1 22 47 59.9960000  0  6G18G11G19G16G 2G 6
  21682156.668     6245379.809 6   4853593.48321
  22009338.5044   -6946669.17046   -109353.07161
  20125060.9964   -3742892.06346  -2889212.18163
  23019796.5664   -4327045.15845  -3240473.66561
  20592634.6604  -15983708.46547 -12363182.72963
  22365474.941    -7940649.661 5  -5967558.51321
 91  4  1 22 48 14.9960000  0  6G18G11G19G16G 2G 6
  21688505.801     6278756.426 6   4879601.10321
  22009683.496    -6944857.392 6   -107941.32221
  20124334.3404   -3746713.80746  -2892190.16863
  23018423.4964   -4334267.31345  -3246101.38861
  20585290.1064  -16022284.68147 -12393242.05163
  22356572.387    -7987457.282 6  -6004031.81521
 91  4  1 22 48 29.9960000  0  6G18G11G19G16G 2G 6
  21694872.074     6312202.560 6   4905662.87921
  22010055.770    -6942893.032 6   -106410.68021
  20123619.6684   -3750470.94246  -2895117.80963
  23017071.0664   -4341364.53245  -3251631.76161
  20577967.3564  -16060780.35847 -12423238.61063
  22347661.9024   -8034257.24346  -6040499.15361
 91  4  1 22 48 44.9960000  0  6G18G11G19G16G 2G 6
  21701249.418     6345716.880 6   4931777.81721
  22010460.5984   -6940777.44446   -104762.20261
  20122917.3014   -3754164.62646  -2897996.01863
  23015744.8014   -4348337.99545  -3257065.70961
  20570657.7234  -16099197.02347 -12453173.60463
  22338757.012    -8081051.071 5  -6076961.73421
 91  4  1 22 48 59.9960000  0  6G18G11G19G16G 2G 6
  21707638.8164    6379294.53546   4957942.09961
  22010891.4184   -6938515.50746   -102999.68261
  20122223.7074   -3757799.55946  -2900828.43863
  23014442.770    -4355192.346 5  -3262406.86421
  20563359.8324  -16137539.37847 -12483050.69763
  22329851.9734   -8127843.30845  -6113423.04261
 91  4  1 22 49 14.9960000  0  6G18G11G19G16G 2G 6
  21714039.762     6412932.542 6   4984153.39921
  22011348.082    -6936109.658 6   -101125.01921
  20121544.7544   -3761378.01246  -2903616.84663
  23013160.262    -4361930.369 5  -3267657.34321
  20556076.6064  -16175809.77347 -12512871.72063
  22320953.4884   -8174636.39346  -6149885.02961
 91  4  1 22 49 29.9960000  0  6G18G11G19G16G 2G 6
  21720454.418     6446640.685 6   5010419.34321
  22011834.004    -6933549.884 6    -99130.41921
  20120876.4654   -3764889.48546  -2906353.06763
  23011899.027    -4368542.046 5  -3272809.38421
  20548812.3164  -16213997.96247 -12542628.68463
  22312045.4814   -8221419.97845  -6186339.62361
 91  4  1 22 49 44.9960000  0  6G18G11G19G16G 2G 6
  21726880.856     6480407.225 6   5036730.80321
  22012350.1294   -6930847.87746    -97024.99661
  20120219.2154   -3768345.58046  -2909046.13763
  23010664.910    -4375039.104 5  -3277872.13121
  20541555.5594  -16252115.40847 -12572330.52463
  22303141.246    -8268205.719 5  -6222795.87821
 91  4  1 22 49 59.9960000  0  6G18G11G19G16G 2G 6
  21733318.332     6514234.328 6   5063089.46621
  22012889.7154   -6928001.52446    -94807.08661
  20119573.3164   -3771743.89146  -2911694.17963
  23009449.551    -4381419.387 5  -3282843.86421
  20534317.1134  -16290159.94447 -12601975.54763
  22294240.6064   -8314991.22845  -6259251.95861
 91  4  1 22 50 14.9960000  0  6G18G11G19G16G 2G 6
  21739766.613     6548122.760 6   5089495.90321
  22013460.668    -6925010.098 6    -92476.14021
  20118936.551    -3775083.518 6  -2914296.50123
  23008259.3094   -4387682.70645  -3287724.46461
  20527090.7314  -16328130.80547 -12631563.16263
  22285338.3954   -8361775.71846  -6295707.25761
 91  4  1 22 50 29.9960000  0  6G18G11G19G16G 2G 6
  21746228.309     6582073.305 6   5115950.73521
  22014058.1294   -6921872.54246    -90031.31561
  20118310.3244   -3778363.25346  -2916852.14263
  23007088.4414   -4393827.99645  -3292513.08861
  20519881.2624  -16366026.89447 -12661092.51063
  22276435.2314   -8408557.95445  -6332160.79361
 91  4  1 22 50 44.9960000  0  6G18G11G19G16G 2G 6
  21752698.879     6616083.945 6   5142452.39121
  22014684.7624   -6918590.73446    -87474.08661
  20117699.184    -3781584.770 6  -2919362.42323
  23005941.0664   -4399856.63045  -3297210.82261
  20512681.9264  -16403849.89547 -12690564.91163
  22267534.4814   -8455339.60446  -6368613.87161
 91  4  1 22 50 59.9960000  0  6G18G11G19G16G 2G 6
  21759182.4574    6650146.74246   5168994.70961
  22015334.4344   -6915172.73346    -84810.73561
  20117094.1294   -3784755.68546  -2921833.27363
  23004816.246    -4405776.560 5  -3301823.85821
  20505496.7544  -16441607.55147 -12719986.39063
  22258628.020    -8502128.467 5  -6405072.57421
 91  4  1 22 51 14.9960000  0  6G18G11G19G16G 2G 6
  21765673.621     6684268.539 6   5195582.98821
  22016009.9814   -6911611.19346    -82035.53761
  20116505.4414   -3787868.57646  -2924258.90963
  23003715.6134   -4411580.78645  -3306346.73561
  20498325.809   -16479292.495 7 -12749351.20623
  22249725.7624   -8548917.20546  -6441531.17661
 91  4  1 22 51 29.9960000  0  6G18G11G19G16G 2G 6
  21772180.8564    6718460.57646   5222225.97761
  22016718.707    -6907894.629 6    -79139.54221
  20115926.0514   -3790911.65046  -2926630.14463
  23002631.5904   -4417258.03945  -3310770.62661
  20491171.066   -16516892.859 7 -12778650.12323
  22240825.3874   -8595694.05046  -6477980.50561
 91  4  1 22 51 44.9960000  0  6G18G11G19G16G 2G 6
  21778698.106     6752710.899 6   5248914.40521
  22017451.840    -6904035.130 6    -76132.16221
  20115357.1914   -3793896.59346  -2928956.08163
  23001571.2704   -4422820.52345  -3315105.14161
  20484030.707   -16554420.791 7 -12807892.59323
  22231921.731    -8642470.935 6  -6514429.88621
 91  4  1 22 51 59.9960000  0  6G18G11G19G16G 2G 6
  21785228.2464    6787020.14846   5275648.75861
  22018214.5744   -6900032.16046    -73012.98961
  20114797.8794   -3796822.79646  -2931236.24863
  23000537.4494   -4428267.62245  -3319349.72261
  20476901.8714  -16591875.62847 -12837078.11063
  22223022.231    -8689247.030 6  -6550878.63621
 91  4  1 22 52 14.9960000  0  6G18G11G19G16G 2G 6
  21791766.9344    6821391.32446   5302431.34861
  22019005.059    -6895882.602 6    -69779.60021
  20114256.0824   -3799686.86846  -2933467.99863
  22999520.5904   -4433596.21145  -3323501.96261
  20469788.4184  -16629254.18547 -12866204.18863
  22214121.106    -8736019.085 5  -6587324.24821
 91  4  1 22 52 29.9960000  0  6G18G11G19G16G 2G 6
  21798321.0204    6855820.50046   5329259.12161
  22019822.637    -6891589.766 6    -66434.56021
  20113721.2384   -3802491.84046  -2935653.69663
  22998530.316    -4438809.580 5  -3327564.41821
  20462689.9654  -16666559.60247 -12895273.27563
  22205219.3714   -8782790.32546  -6623769.21861
 91  4  1 22 52 44.9960000  0  6G18G11G19G16G 2G 6
  21804882.020     6890307.351 6   5356131.85321
  22020665.3324   -6887153.89046    -62978.06261
  20113198.7704   -3805237.63346  -2937793.28563
  22997561.277    -4443908.006 5  -3331537.33921
  20455605.4814  -16703792.02047 -12924285.48163
  22196320.5044   -8829560.87246  -6660213.64761
 91  4  1 22 52 59.9960000  0  6G18G11G19G16G 2G 6
  21811456.801     6924854.267 6   5383051.38521
  22021538.5354   -6882572.95946    -59408.53461
  20112686.1764   -3807922.01246  -2939885.01463
  22996613.371    -4448889.500 5  -3335419.10621
  20448534.5204  -16740949.18247 -12953239.04163
  22187418.199    -8876328.307 5  -6696655.67221
 91  4  1 22 53 14.9960000  0  6G18G11G19G16G 2G 6
  21818040.6454    6959461.24346   5410017.71261
  22022435.3094   -6877846.59046    -55725.68761
  20112188.7314   -3810544.51946  -2941928.53963
  22995684.6374   -4453753.76245  -3339209.52061
  20441477.668   -16778030.503 7 -12982133.50923
  22178523.4574   -8923092.13046  -6733094.86461
 91  4  1 22 53 29.9960000  0  6G18G11G19G16G 2G 6
  21824639.613     6994125.472 6   5437028.65321
  22023362.715    -6872977.528 6    -51931.64021
  20111702.4184   -3813107.65146  -2943925.79263
  22994781.9574   -4458503.45345  -3342910.67561
  20434435.8014  -16815038.69947 -13010970.99663
  22169621.066    -8969854.821 6  -6769533.18521
 91  4  1 22 53 44.9960000  0  6G18G11G19G16G 2G 6
  21831246.574     7028847.120 6   5464084.34221
  22024317.9814   -6867965.47746    -48026.17661
  20111226.0664   -3815610.75946  -2945876.27663
  22993900.9184   -4463138.38145  -3346522.40961
  20427406.8484  -16851973.26347 -13039751.10763
  22160723.957    -9016616.039 6  -6805970.35221
 91  4  1 22 53 59.9960000  0  6G18G11G19G16G 2G 6
  21837863.0904    7063619.63946   5491179.64861
  22025295.0274   -6862816.94946    -44014.35661
  20110758.1994   -3818060.00046  -2947784.78463
  22993041.215    -4467665.180 5  -3350049.87421
  20420389.9964  -16888840.65447 -13068478.87563
  22151825.231    -9063382.103 6  -6842411.29821
 91  4  1 22 54 14.9960000  0  6G18G11G19G16G 2G 6
  21844491.770     7098450.767 6   5518320.64421
  22026302.7704   -6857523.82846    -39889.88461
  20110303.1604   -3820447.15646  -2949644.91563
  22992195.5594   -4472075.72045  -3353486.74461
  20413389.3094  -16925632.61447 -13097147.86563
  22142926.699    -9110144.643 6  -6878849.50021
 91  4  1 22 54 29.9960000  0  6G18G11G19G16G 2G 6
  21851131.6064    7133335.89746   5545503.71161
  22027339.668    -6852090.795 6    -35656.37421
  20109857.9184   -3822776.67046  -2951460.12763
  22991381.535    -4476374.580 5  -3356836.63021
  20406402.7384  -16962353.56547 -13125761.52563
  22134027.191    -9156908.147 6  -6915288.45621
 91  4  1 22 54 44.9960000  0  6G18G11G19G16G 2G 6
  21857780.293     7168276.050 6   5572729.63321
  22028397.5664   -6846516.98546    -31313.17561
  20109428.762    -3825047.099 6  -2953229.30423
  22990586.6064   -4480561.06545  -3360098.90361
  20399428.1844  -16999002.38047 -13154318.97863
  22125127.363    -9203671.320 6  -6951727.15121
 91  4  1 22 54 59.9960000  0  6G18G11G19G16G 2G 6
  21864440.0514    7203265.92146   5599994.31361
  22029484.074    -6840807.352 6    -26864.14321
  20109004.5664   -3827263.39246  -2954956.29663
  22989811.2074   -4484640.39745  -3363277.67261
  20392466.7934  -17035583.87947 -13182823.97163
  22116227.6914   -9250439.04846  -6988169.39461
 91  4  1 22 55 14.9960000  0  6G18G11G19G16G 2G 6
  21871106.1064    7238304.50646   5627296.95761
  22030594.9024   -6834963.04846    -22310.16061
  20108595.012    -3829426.329 6  -2956641.71123
  22989051.387    -4488613.345 5  -3366373.55621
  20385517.1604  -17072099.12347 -13211277.34163
  22107329.027    -9297212.288 6  -7024615.94121
 91  4  1 22 55 29.9960000  0  6G18G11G19G16G 2G 6
  21877783.3564    7273394.62346   5654639.74861
  22031734.1994   -6828980.98546    -17648.84561
  20108194.2314   -3831532.42746  -2958282.83363
  22988317.0124   -4492477.02545  -3369384.30661
  20378581.8094  -17108544.79247 -13239676.49664
  22098428.152    -9343987.722 6  -7061064.19021
 91  4  1 22 55 44.9960000  0  6G18G11G19G16G 2G 6
  21884470.8484    7308538.37346   5682024.33961
  22032900.0824   -6822858.76946    -12878.32661
  20107805.4414   -3833579.16746  -2959877.70763
  22987604.660    -4496228.995 5  -3372308.01121
  20371660.9104  -17144918.43247 -13268019.52963
  22089524.3954   -9390762.77446  -7097512.14261
 91  4  1 22 55 59.9960000  0  6G18G11G19G16G 2G 6
  21891169.5044    7343737.08246   5709451.72561
  22034091.0904   -6816594.91446     -7997.41561
  20107426.559    -3835564.896 6  -2961425.03523
  22986909.941    -4499867.772 5  -3375143.49621
  20364753.8634  -17181218.28147 -13296305.06263
  22080623.910    -9437535.818 6  -7133958.52421
 91  4  1 22 56 14.9960000  0  6G18G11G19G16G 2G 6
  21897877.965     7378987.265 6   5736919.25521
  22035309.785    -6810193.289 6     -3009.17421
  20107061.3484   -3837493.16546  -2962927.59363
  22986234.1684   -4503397.51445  -3377894.05561
  20357858.8484  -17217448.13847 -13324536.05463
  22071726.496    -9484310.347 6  -7170406.06521
 91  4  1 22 56 29.9960000  0  6G18G11G19G16G 2G 6
  21904593.395     7414283.224 6   5764422.44221
  22036554.8714   -6803659.28546      2082.22761
  20106702.4654   -3839369.26246  -2964389.49363
  22985585.176    -4506823.731 5  -3380563.94221
  20350975.5274  -17253613.23947 -13352716.59464
  22062823.0044   -9531091.76646  -7206858.98561
 91  4  1 22 56 44.9960000  0  6G18G11G19G16G 2G 6
  21911319.887     7449624.149 6   5791960.65021
  22037821.5744   -6796993.37346      7276.40561
  20106356.2074   -3841193.26446  -2965810.80263
  22984955.004    -4510146.913 5  -3383153.50421
  20344108.2154  -17289714.09548 -13380847.06764
  22053915.340    -9577880.193 6  -7243317.36621
 91  4  1 22 56 59.9960000  0  6G18G11G19G16G 2G 6
  21918055.0044    7485012.37346   5819535.72561
  22039115.5744   -6790193.16246     12575.24261
  20106017.1374   -3842962.51446  -2967189.44963
  22984342.863    -4513364.348 5  -3385660.67621
  20337250.3244  -17325748.13147 -13408925.48364
  22045013.5984   -9624673.09346  -7279779.21361
 91  4  1 22 57 14.9960000  0  6G18G11G19G16G 2G 6
  21924796.5204    7520449.72046   5847149.09061
  22040434.410    -6783256.993 6     17980.01521
  20105693.2234   -3844674.94646  -2968523.82263
  22983750.637    -4516474.517 5  -3388084.28121
  20330406.3094  -17361713.35948 -13436950.27163
  22036107.020    -9671468.450 6  -7316242.99221
 91  4  1 22 57 29.9960000  0  6G18G11G19G16G 2G 6
  21931551.191     7555939.871 6   5874803.58321
  22041779.059    -6776180.860 6     23493.85921
  20105379.6844   -3846326.19546  -2969810.51563
  22983183.020    -4519473.427 5  -3390421.16821
  20323575.379   -17397605.633 7 -13464918.22324
  22027205.215    -9718262.068 6  -7352705.41421
 91  4  1 22 57 44.9960000  0  6G18G11G19G16G 2G 6
  21938317.535     7591490.064 6   5902504.87021
  22043158.457    -6768957.762 6     29122.22121
  20105077.3164   -3847909.10546  -2971043.95663
  22982634.5594   -4522354.22545  -3392666.01461
  20316760.4884  -17433417.78947 -13492823.73963
  22018302.8014   -9765046.75046  -7389160.87761
 91  4  1 22 57 59.9960000  0  6G18G11G19G16G 2G 6
  21945091.402     7627095.844 6   5930249.46221
  22044558.7154   -6761591.89746     34861.81461
  20104791.2234   -3849427.64946  -2972227.24963
  22982107.074    -4525121.218 5  -3394822.20821
  20309959.3484  -17469153.84247 -13520669.95564
  22009399.340    -9811826.432 6  -7425612.43221
 91  4  1 22 58 14.9960000  0  6G18G11G19G16G 2G 6
  21951878.051     7662750.319 6   5958031.99121
  22045988.3404   -6754089.97646     40707.44061
  20104512.691    -3850888.059 6  -2973365.24323
  22981600.465    -4527780.940 5  -3396894.80721
  20303173.4344  -17504820.26547 -13548461.91564
  22000495.652    -9858607.596 6  -7462065.14621
 91  4  1 22 58 29.9960000  0  6G18G11G19G16G 2G 6
  21958672.262     7698457.592 6   5985855.68421
  22047439.4814   -6746448.04846     46662.15061
  20104248.402    -3852286.228 6  -2974454.73623
  22981115.254    -4530329.352 5  -3398880.65521
  20296400.543   -17540412.974 7 -13576196.43824
  21991593.8634   -9905386.00446  -7498515.72561
 91  4  1 22 58 44.9960000  0  6G18G11G19G16G 2G 6
  21965477.324     7734216.819 6   6013719.85121
  22048922.3954   -6738666.53646     52725.62861
  20103990.801    -3853622.313 6  -2975495.84923
  22980654.996    -4532767.227 5  -3400780.42021
  20289641.262   -17575932.336 7 -13603873.80823
  21982692.824    -9952161.905 6  -7534964.33921
 91  4  1 22 58 59.9960000  0  6G18G11G19G16G 2G 6
  21972291.7704    7770019.73646   6041618.04961
  22050427.5904   -6730753.92746     58891.26161
  20103746.2234   -3854904.46046  -2976494.93463
  22980209.949    -4535103.019 5  -3402600.58921
  20282895.6134  -17611386.57847 -13631500.43163
  21973792.910    -9998943.555 6  -7571417.42821
 91  4  1 22 59 14.9960000  0  6G18G11G19G16G 2G 6
  21979113.145     7805877.251 6   6069558.79921
  22051957.0744   -6722699.07446     65167.73961
  20103515.012    -3856121.477 6  -2977443.26923
  22979783.2854   -4537325.49945  -3404332.50161
  20276161.152   -17646764.461 7 -13659067.55823
  21964890.191   -10045719.592 6  -7607866.15421
 91  4  1 22 59 29.9960000  0  6G18G11G19G16G 2G 6
  21985946.871     7841780.647 6   6097535.30321
  22053518.1064   -6714510.66646     71548.28361
  20103294.277    -3857281.619 6  -2978347.28523
  22979382.902    -4539443.450 5  -3405982.94721
  20269442.5744  -17682074.50547 -13686581.82264
  21955985.410   -10092498.511 6  -7644317.12521
 91  4  1 22 59 44.9960000  0  6G18G11G19G16G 2G 6
  21992788.277     7877735.079 6   6125551.57821
  22055104.3014   -6706183.39246     78037.01961
  20103086.082    -3858379.277 6  -2979202.61323
  22978996.824    -4541451.601 5  -3407547.82721
  20262737.3874  -17717311.12347 -13714038.87264
  21947086.496   -10139274.647 6  -7680765.92421
 91  4  1 22 59 59.9960000  0  6G18G11G19G16G 2G 6
  21999641.0274    7913742.35046   6153609.00661
  22056713.5434   -6697715.48446     84635.36661
  20102887.777    -3859412.347 6  -2980007.61823
  22978642.8404   -4543348.39545  -3409025.94861
  20256045.996   -17752472.595 7 -13741437.36624
  21938185.4024  -10186046.05546  -7717211.04561
 91  4  1 23  0 14.9960000  0  6G18G11G19G16G 2G 6
  22006503.941     7949796.452 6   6181702.92621
  22058350.7464   -6689112.80646     91338.71661
  20102703.7154   -3860386.46046  -2980766.67763
  22978298.402    -4545139.260 5  -3410421.51221
  20249368.410   -17787564.419 7 -13768781.58924
  21929286.965   -10232818.308 6  -7753656.81721
 91  4  1 23  0 29.9960000  0  6G18G11G19G16G 2G 6
  22013373.887     7985906.304 6   6209840.30021
  22060013.4264   -6680366.22246     98154.20961
  20102530.012    -3861292.282 6  -2981472.52423
  22977979.8014   -4546815.49145  -3411727.77161
  20242705.629   -17822577.382 7 -13796064.36623
  21920385.535   -10279582.090 6  -7790095.99321
 91  4  1 23  0 44.9960000  0  6G18G11G19G16G 2G 6
  22020254.871     8022061.516 6   6238013.02021
  22061706.1134   -6671486.30046    105073.59761
  20102369.051    -3862140.039 6  -2982133.12623
  22977679.465    -4548387.674 5  -3412952.93821
  20236055.566   -17857521.784 7 -13823293.71524
  21911487.418   -10326347.646 6  -7826536.55921
 91  4  1 23  0 59.9960000  0  6G18G11G19G16G 2G 6
  22027143.0434    8058261.99946   6266221.01461
  22063423.8484   -6662472.90846    112096.97761
  20102218.551    -3862929.230 6  -2982748.09523
  22977402.8484   -4549855.74145  -3414096.98261
  20229420.574   -17892397.380 8 -13850469.45424
  21902587.113   -10373114.690 6  -7862978.27521
 91  4  1 23  1 14.9960000  0  6G18G11G19G16G 2G 6
  22034040.8564    8094510.32046   6294466.27461
  22065163.0664   -6653323.45746    119226.38161
  20102081.395    -3863657.114 6  -2983315.28723
  22977142.4494   -4551217.11845  -3415157.88761
  20222796.121   -17927201.337 7 -13877589.37323
  21893690.2464  -10419880.31646  -7899418.89761
 91  4  1 23  1 29.9960000  0  6G18G11G19G16G 2G 6
  22040944.715     8130806.635 6   6322748.91621
  22066928.9414   -6644037.57046    126462.10061
  20101953.0824   -3864322.85946  -2983834.06163
  22976903.543    -4552471.290 5  -3416135.25621
  20216186.934   -17961933.032 7 -13904652.97723
  21884790.145   -10466643.835 6  -7935857.87821
 91  4  1 23  1 44.9960000  0  6G18G11G19G16G 2G 6
  22047862.0664    8167153.80446   6351071.21361
  22068721.4574   -6634612.47046    133806.31261
  20101841.3324   -3864923.52546  -2984302.12363
  22976685.3094   -4553615.62845  -3417027.07161
  20209591.652   -17996589.664 8 -13931658.08723
  21875891.0514  -10513402.32946  -7972292.92761
 91  4  1 23  1 59.9960000  0  6G18G11G19G16G 2G 6
  22054789.0824    8203550.27146   6379431.92161
  22070540.387    -6625049.697 6    141257.77821
  20101741.2234   -3865460.07646  -2984720.22263
  22976486.3484   -4554651.49645  -3417834.35861
  20203010.606   -18031172.440 8 -13958605.65523
  21866993.7774  -10560156.93546  -8008724.96561
 91  4  1 23  2 14.9960000  0  6G18G11G19G16G 2G 6
  22061729.5904    8239997.64346   6407832.26761
  22072388.8874   -6615347.44146    148817.93961
  20101648.973    -3865930.448 6  -2985086.75823
  22976312.473    -4555577.324 5  -3418555.89221
  20196444.879   -18065679.640 7 -13985494.33023
  21858099.5044  -10606905.74246  -8045152.48061
 91  4  1 23  2 29.9960000  0  6G18G11G19G16G 2G 6
  22068674.246     8276489.691 6   6436267.44321
  22074260.2234   -6605511.79746    156482.04061
  20101571.262    -3866340.558 6  -2985406.33723
  22976156.0124   -4556398.99645  -3419196.27861
  20189892.246   -18100117.045 8 -14012328.62023
  21849201.2314  -10653654.41646  -8081579.89461
 91  4  1 23  2 44.9960000  0  6G18G11G19G16G 2G 6
  22075626.5274    8313027.99546   6464738.65961
  22076159.8324   -6595541.19846    164251.29861
  20101503.9814   -3866688.50446  -2985677.47163
  22976019.8484   -4557115.15545  -3419754.44161
  20183351.879   -18134482.802 8 -14039107.08024
  21840307.4184  -10700401.14546  -8118005.79061
 91  4  1 23  2 59.9960000  0  6G18G11G19G16G 2G 6
  22082585.3244    8349612.30446   6493245.72961
  22078077.9734   -6585435.90246    172125.52361
  20101450.2074   -3866974.17146  -2985900.07863
  22975901.598    -4557726.064 5  -3420230.57121
  20176826.035   -18168776.880 8 -14065829.68423
  21831411.660   -10747145.849 6  -8154430.11021
 91  4  1 23  3 14.9960000  0  6G18G11G19G16G 2G 6
  22089554.5274    8386240.00246   6521786.61361
  22080029.8404   -6575198.59246    180102.60661
  20101408.449    -3867200.084 6  -2986076.12723
  22975806.3164   -4558234.24945  -3420626.68361
  20170313.277   -18203001.894 8 -14092498.47723
  21822516.2314  -10793890.97346  -8190854.75061
 91  4  1 23  3 29.9960000  0  6G18G11G19G16G 2G 6
  22096537.027     8422915.732 6   6550364.90921
  22082001.6524   -6564824.43846    188186.32661
  20101374.488    -3867361.047 6
  22975732.770    -4558634.925 5  -3420939.01921
  20163813.957   -18237153.068 8 -14119109.73023
  21813621.4344  -10840631.48446  -8227275.81261
 91  4  1 23  3 44.9960000  0  6G18G11G19G16G 2G 6
  22103522.8014    8459638.97846   6578980.21961
  22084003.2934   -6554313.84346    196376.35761
  20101359.324    -3867457.150 6
  22975676.9184   -4558928.86845  -3421168.16061
  20157330.324   -18271230.481 8 -14145663.50323
  21804727.0434  -10887367.56746  -8263693.41361
 91  4  1 23  3 59.9960000  0  6G18G11G19G16G 2G 6
  22110517.2934    8496407.87446   6607631.12361
  22086027.8714   -6543668.54246    204671.36661
  20101352.754    -3867489.829 6
  22975639.012    -4559117.825 5
  20150858.832   -18305235.626 8 -14172160.96623
  21795834.2384  -10934100.59246  -8300108.63961
 91  4  1 23  4 14.9960000  0  6G18G11G19G16G 2G 6
  22117519.731     8533215.821 6   6636312.47321
  22088077.7624   -6532895.18446    213066.15061
  20101358.637    -3867465.537 6
  22975621.5594   -4559208.38045
  20144399.895   -18339174.891 8 -14198607.09023
  21786939.3874  -10980836.97046  -8336526.47761
 91  4  1 23  4 29.9960000  0  6G18G11G19G16G 2G 6
  22124532.2384    8570065.14346   6665026.01661
  22090155.090    -6521991.241 6    221562.68821
  20101372.496    -3867381.468 6
  22975626.7314   -4559197.91145
  20137954.270   -18373045.694 8 -14224999.86723
  21778046.7074  -11027574.02446  -8372944.83261
 91  4  1 23  4 44.9960000  0  6G18G11G19G16G 2G 6
  22131554.8014    8606949.84446   6693767.12061
  22092252.2074   -6510962.49846    230156.48261
  20101399.770    -3867243.154 6
  22975644.8874   -4559092.28045
  20131519.902   -18406853.697 8 -14251343.71423
  21769152.2154  -11074317.17646  -8409367.94261
 91  4  1 23  4 59.9960000  0  6G18G11G19G16G 2G 6
  22138584.137     8643869.868 6   6722535.77821
  22094374.301    -6499809.267 6    238847.26221
  20101436.082    -3867050.417 6
  22975686.2704   -4558891.83845
  20125098.285   -18440598.738 8 -14277638.49523
  21760256.340   -11121066.319 6  -8445795.72821
 91  4  1 23  5 14.9960000  0  6G18G11G19G16G 2G 6
  22145616.637     8680834.951 6   6751339.54421
  22096524.527    -6488521.734 6    247642.69421
  20101485.449    -3866793.047 6
  22975741.1214   -4558586.73345
  20118691.9184  -18474270.91848 -14303876.50263
  21751360.371   -11167811.439 6  -8482220.37121
 91  4  1 23  5 29.9960000  0  6G18G11G19G16G 2G 6
  22152656.4734    8717839.91246   6780174.37161
  22098695.4024   -6477104.88046    256538.90861
  20101543.9104   -3866475.72246  -2985511.78563
  22975817.5594   -4558182.23445
  20112295.949   -18507875.169 8 -14330061.58024
  21742464.3014  -11214557.26646  -8518645.56661
 91  4  1 23  5 44.9960000  0  6G18G11G19G16G 2G 6
  22159705.098     8754879.089 6   6809035.86821
  22100891.9344   -6465564.88446    265531.06961
  20101614.762    -3866104.229 6  -2985222.32023
  22975914.527    -4557684.030 5
  20105913.957   -18541417.250 8 -14356198.21524
  21733567.6684  -11261309.55246  -8555075.79761
 91  4  1 23  5 59.9960000  0  6G18G11G19G16G 2G 6
  22166761.777     8791953.685 6   6837924.96321
  22103112.5514   -6453900.01646    274620.54261
  20101698.0434   -3865676.77346  -2984889.24763
  22976023.9654   -4557090.74645
  20099542.543   -18574895.286 8 -14382284.94124
  21724671.0904  -11308066.29346  -8591509.49561
 91  4  1 23  6 14.9960000  0  6G18G11G19G16G 2G 6
  22173823.074     8829065.730 6   6866843.20821
  22105357.801    -6442108.275 6    283808.86421
  20101790.6064   -3865190.95346  -2984510.69563
  22976156.2934   -4556400.44945  -3419199.15661
  20093186.418   -18608307.053 8 -14408320.03324
  21715773.5664  -11354825.32946  -8627944.97461
 91  4  1 23  6 29.9960000  0  6G18G11G19G16G 2G 6
  22180893.1524    8866212.32246   6895788.41661
  22107622.7704   -6430192.32846    293093.98861
  20101895.2854   -3864649.02446  -2984088.42463
  22976304.621    -4555615.717 5  -3418587.80121
  20086839.262   -18641655.188 8 -14434305.53824
  21706875.1914  -11401588.92446  -8664384.01661
 91  4  1 23  6 44.9960000  0  6G18G11G19G16G 2G 6
  22187970.2384    8903396.77746   6924763.12961
  22109914.434    -6418148.907 6    302478.42221
  20102007.660    -3864047.566 6  -2983619.76823
  22976474.4024   -4554733.49445  -3417900.46461
  20080506.137   -18674936.282 8 -14460238.80624
  21697974.8714  -11448353.63346  -8700823.92861
 91  4  1 23  6 59.9960000  0  5G18G11G19G 2G 6
  22195053.7464    8940621.26046   6953768.97861
  22112230.4964   -6405975.92146    311963.83261
  20102133.0514   -3863384.04946  -2983102.75163
  20074185.3094  -18708148.02948 -14486118.03163
  21689076.6684  -11495116.99946  -8737262.78561
 91  4  1 23  7 14.9960000  0  5G18G11G19G 2G 6
  22202145.4344    8977884.74146   6982805.24561
  22114569.277    -6393674.136 6    321549.59021
  20102273.020    -3862658.892 6  -2982537.70923
  20067879.527   -18741290.852 8 -14511943.55424
  21680176.762   -11541879.494 6  -8773700.96521
 91  4  1 23  7 29.9960000  0  5G18G11G19G 2G 6
  22209242.9654    9015191.01246   7011874.85361
  22116941.0274   -6381239.83546    331238.61361
  20102421.5984   -3861868.00046  -2981921.44163
  20061586.988   -18774360.679 8 -14537712.19724
  21671281.1374  -11588637.05446  -8810135.30461
 91  4  1 23  7 44.9960000  0  5G18G11G19G 2G 6
  22216349.6844    9052535.44946   7040974.21761
  22119328.176    -6368677.453 6    341027.44421
  20102585.2544   -3861015.69646  -2981257.31763
  20055306.090   -18807362.016 8 -14563427.47224
  21662381.5044  -11635393.88146  -8846569.07261
 91  4  1 23  7 59.9960000  0  5G18G11G19G 2G 6
  22223463.3634    9089920.02246   7070104.83561
  22121744.543    -6355985.270 6    350917.41921
  20102759.5744   -3860099.68546  -2980543.55063
  20049039.973   -18840292.848 8 -14589087.80624
  21653485.098   -11682147.998 6  -8883000.72221
 91  4  1 23  8 14.9960000  0  5G18G11G19G 2G 6
  22230585.684     9127345.310 6   7099267.17521
  22124184.418    -6343162.340 6    360909.26721
  20102945.6604   -3859118.87846  -2979779.29563
  20042787.035   -18873152.181 8 -14614692.43224
  21644586.8794  -11728898.06846  -8919429.21961
 91  4  1 23  8 29.9960000  0  5G18G11G19G 2G 6
  22237713.6454    9164805.40246   7128456.63861
  22126647.7704   -6330214.85546    370998.17561
  20103142.6994   -3858079.13846  -2978969.11263
  20036545.809   -18905945.861 8 -14640245.89824
  21635692.4574  -11775650.03446  -8955859.19961
 91  4  1 23  8 44.9960000  0  5G18G11G19G 2G 6
  22244852.0984    9202305.06846   7157676.93761
  22129136.793    -6317137.681 6    381188.14321
  20103352.7544   -3856974.97246  -2978108.73263
  20030319.512   -18938668.652 8 -14665744.12724
  21626795.6844  -11822398.43246  -8992286.40661
 91  4  1 23  8 59.9960000  0  5G18G11G19G 2G 6
  22251994.4884    9239842.77846   7186926.89561
  22131652.7544   -6303932.54046    391477.82761
  20103574.3164   -3855807.76646  -2977199.22863
  20024105.426   -18971322.095 8 -14691188.31624
  21617898.1134  -11869144.56546  -9028711.83461
 91  4  1 23  9 14.9960000  0  5G18G11G19G 2G 6
  22259145.074     9277417.698 6   7216205.83821
  22134186.8874   -6290600.21046    401866.61861
  20103810.5744   -3854578.04546  -2976241.01163
  20017905.035   -19003906.590 8 -14716578.78224
  21609004.6134  -11915888.98946  -9065135.93161
 91  4  1 23  9 29.9960000  0  5G18G11G19G 2G 6
  22266301.918     9315031.888 6   7245515.36721
  22136750.512    -6277138.510 6    412356.21021
  20104053.1374   -3853283.13546  -2975231.99863
  20011717.332   -19036419.730 8 -14741913.64924
  21600108.8324  -11962629.19046  -9101556.74761
 91  4  1 23  9 44.9960000  0  5G18G11G19G 2G 6
  22273467.754     9352680.916 6   7274852.05421
  22139333.7854   -6263551.90046    422943.13361
  20104313.9344   -3851927.36546  -2974175.56263
  20005545.160   -19068865.772 8 -14767196.22724
  21591215.426   -12009369.169 6  -9137977.37521
 91  4  1 23  9 59.9950000  0  5G18G11G19G 2G 6
  22280638.343     9390360.228 6   7304212.32021
  22141942.4134   -6249843.48846    433624.98161
  20104581.3354   -3850512.54246  -2973073.11363
  19999382.140   -19101244.693 8 -14792426.51024
  21582324.1084  -12056107.77346  -9174396.94961
 91  4  1 23 10 14.9950000  0  5G18G11G19G 2G 6
  22287815.1874    9428074.80846   7333600.09561
  22144574.1944   -6236011.21846    444403.33061
  20104864.4294   -3849038.05946  -2971924.16463
  19993232.507   -19133560.504 8 -14817607.61524
  21573427.2574  -12102850.78946  -9210819.96061
 91  4  1 23 10 29.9950000  0  5G18G11G19G 2G 6
  22294997.0234    9465827.65346   7363017.67561
  22147230.5934   -6222050.25246    455281.96761
  20105157.9214   -3847498.04646  -2970724.16363
  19987095.233   -19165804.919 8 -14842733.08824
  21564533.335   -12149589.054 6  -9247239.25021
 91  4  1 23 10 44.9950000  0  5G18G11G19G 2G 6
  22302191.913     9503621.314 6   7392467.05921
  22149912.804    -6207958.203 6    466262.74621
  20105462.6484   -3845889.66546  -2969470.88163
  19980975.444   -19197975.200 8 -14867800.79124
  21555640.3514  -12196319.91546  -9283652.79161
 91  4  1 23 10 59.9950000  0  5G18G11G19G 2G 6
  22309388.085     9541447.089 6   7421941.46821
  22152617.905    -6193743.522 6    477339.07021
  20105782.9134   -3844220.88146  -2968170.53663
  19974865.296   -19230079.618 8 -14892817.17824
  21546748.6484  -12243051.21246  -9320066.65861
 91  4  1 23 11 14.9950000  0  5G18G11G19G 2G 6
  22316591.4994    9579308.35645   7451443.51061
  22155348.8744   -6179403.16446    488513.33461
  20106109.9764   -3842488.31646  -2966820.49263
  19968770.241   -19262115.024 8 -14917779.78724
  21537855.6324  -12289779.76146  -9356478.39961
 91  4  1 23 11 29.9950000  0  5G18G11G19G 2G 6
  22323807.6084    9617206.96446   7480974.67161
  22158101.2024   -6164934.97746    499787.20961
  20106451.7494   -3840689.60846  -2965418.90963
  19962686.718   -19294079.185 8 -14942686.88024
  21528963.2104  -12336503.17446  -9392886.13561
 91  4  1 23 11 44.9950000  0  5G18G11G19G 2G 6
  22331022.093     9655140.481 6   7510533.05321
  22160877.030    -6150341.263 6    511158.88421
  20106807.0934   -3838826.66946  -2963967.27863
  19956617.187   -19325974.076 8 -14967539.99924
  21520071.5154  -12383223.35746  -9429291.34161
 91  4  1 23 11 59.9950000  0  5G18G11G19G 2G 6
  22338246.398     9693106.545 6   7540116.76321
  22163676.8984   -6135624.78746    522626.23561
  20107170.8434   -3836901.80146  -2962467.38763
  19950560.210   -19357802.155 8 -14992341.05124
  21511180.8824  -12429942.66046  -9465695.88861
 91  4  1 23 12 14.9950000  0  5G18G11G19G 2G 6
  22345481.9134    9731111.42746   7569730.70761
  22166502.1484   -6120779.27946    534194.11761
  20107555.5544   -3834908.38146  -2960914.07863
  19944518.3584  -19389556.98348 -15017085.03264
  21502294.3744  -12476654.38546  -9502094.50861
 91  4  1 23 12 29.9950000  0  5G18G11G19G 2G 6
  22352716.8824    9769148.35446   7599369.62861
  22169351.960    -6105811.301 6    545857.43021
  20107941.7734   -3832852.67946  -2959312.23963
  19938488.132   -19421244.945 8 -15041776.90524
  21493403.3824  -12523364.89246  -9538492.18761
 91  4  1 23 12 44.9950000  0  5G18G11G19G 2G 6
  22359964.921     9807216.389 6   7629032.81321
  22172222.585    -6090721.885 6    557615.37421
  20108346.483    -3830735.519 6  -2957662.51623
  19932469.241   -19452866.705 8 -15066417.19624
  21484516.1944  -12570074.70046  -9574889.31661
 91  4  1 23 12 59.9950000  0  5G18G11G19G 2G 6
  22367215.116     9845317.812 6   7658722.04321
  22175116.351    -6075508.557 6    569469.85921
  20108761.4054   -3828554.02646  -2955962.65963
  19926465.4294  -19484419.77748 -15091003.96564
  21475626.4764  -12616781.09346  -9611283.79861
 91  4  1 23 13 14.9950000  0  5G18G11G19G 2G 6
  22374471.3904    9883454.95545   7688439.04161
  22178036.3044   -6060168.93946    581422.77861
  20109190.5544   -3826305.54646  -2954210.60863
  19920475.1794  -19515901.50648 -15115535.14364
  21466740.452   -12663481.476 6  -9647673.58721
 91  4  1 23 13 29.9950000  0  5G18G11G19G 2G 6
  22381738.202     9921629.090 6   7718184.83621
  22180980.0694   -6044701.75046    593475.08461
  20109629.007    -3823988.301 6  -2952404.97323
  19914497.812   -19547310.336 8 -15140009.51423
  21457855.6084  -12710174.10046  -9684057.32861
 91  4  1 23 13 44.9950000  0  5G18G11G19G 2G 6
  22389005.218     9959828.869 6   7747950.69121
  22183944.1944   -6029118.50346    605617.83761
  20110083.8044   -3821613.57546  -2950554.55063
  19908531.2024  -19578657.61048 -15164435.92264
  21448969.976   -12756870.116 6  -9720443.71321
 91  4  1 23 13 59.9950000  0  5G18G11G19G 2G 6
  22396279.2104    9998056.96245   7777738.59361
  22186933.179    -6013416.176 6    617853.36321
  20110544.288    -3819178.052 6  -2948656.75023
  19902579.2964  -19609940.18848 -15188811.91764
  21440084.4914  -12803566.26946  -9756830.20961
 91  4  1 23 14 14.9950000  0  5G18G11G19G 2G 6
  22403564.7334   10036316.95346   7807551.34161
  22189946.851    -5997591.550 6    630184.20021
  20111021.585    -3816678.125 6  -2946708.76823
  19896639.8124  -19641154.62748 -15213134.81864
  21431196.0384  -12850259.05846  -9793214.08661
 91  4  1 23 14 29.9950000  0  5G18G11G19G 2G 6
  22410848.374    10074610.300 6   7837390.06721
  22192978.788    -5981642.886 6    642611.69421
  20111511.0304   -3814111.60046  -2944708.89363
  19890713.3824  -19672298.77748 -15237402.94463
  21422313.7334  -12896946.22446  -9829593.57761
 91  4  1 23 14 44.9950000  0  5G18G11G19G 2G 6
  22418142.163    10112931.732 6   7867250.66821
  22196037.648    -5965575.457 6    655131.71521
  20112011.148    -3811483.478 6  -2942661.01823
  19884799.0074  -19703377.68348 -15261620.23664
  21413429.5074  -12943632.73246  -9865972.55461
 91  4  1 23 14 59.9950000  0  5G18G11G19G 2G 6
  22425442.6084   10151291.45446   7897141.12661
  22199118.929    -5949378.964 6    667752.31321
  20112525.5464   -3808783.21346  -2940556.92863
  19878899.6554  -19734380.80848 -15285778.47564
  21404548.187   -12990307.972 6  -9902342.75521
 91  4  1 23 15 14.9950000  0  5G18G11G19G 2G 6
  22432746.0934   10189678.18945   7927052.62461
  22202223.648    -5933064.729 6    680464.66721
  20113050.3274   -3806021.84946  -2938405.22663
  19873012.054   -19765319.530 8 -15309886.52823
  21395667.077   -13036982.802 6  -9938712.64221
 91  4  1 23 15 29.9950000  0  5G18G11G19G 2G 6
  22440058.679    10228092.629 6   7956985.70621
  22205351.6244   -5916632.00446    693269.33761
  20113584.6014   -3803198.13146  -2936204.93363
  19867137.0624  -19796192.77248 -15333943.56063
  21386783.1014  -13083656.29646  -9975081.47861
 91  4  1 23 15 44.9950000  0  5G18G11G19G 2G 6
  22447371.1244   10266535.74146   7986941.17361
  22208499.6794   -5900079.76246    706167.14561
  20114135.835    -3800310.699 6  -2933955.00023
  19861274.5854  -19826999.24448 -15357948.56563
  21377901.937   -13130327.010 6 -10011448.15721
 91  4  1 23 15 59.9950000  0  5G18G11G19G 2G 6
  22454694.101    10305003.800 6   8016916.02321
  22211670.796    -5883412.256 6    719154.76421
  20114696.140    -3797363.570 6  -2931658.55123
  19855424.4604  -19857742.95748 -15381904.66464
  21369021.2334  -13176998.70046 -10047815.59261
 91  4  1 23 16 14.9950000  0  5G18G11G19G 2G 6
  22462015.6244   10343493.92745   8046908.05761
  22214866.0774   -5866631.92046    732230.30361
  20115269.8984   -3794358.69846  -2929317.10563
  19849585.9684  -19888426.08048 -15405813.55264
  21360138.101   -13223673.577 6 -10084185.52021
 91  4  1 23 16 29.9950000  0  5G18G11G19G 2G 6
  22469346.9444   10382009.15246   8076919.67861
  22218081.327    -5849735.632 6    745396.19921
  20115852.710    -3791292.755 6  -2926928.07123
  19843758.069   -19919045.354 8 -15429672.68624
  21351257.038   -13270348.170 6 -10120555.22021
 91  4  1 23 16 44.9950000  0  5G18G11G19G 2G 6
  22476679.921    10420550.792 5   8106951.90021
  22221316.9444   -5832722.35946    758653.24861
  20116447.0464   -3788164.14146  -2924490.19763
  19837944.0694  -19949599.41548 -15453481.00764
  21342375.843   -13317020.881 6 -10156923.46121
 91  4  1 23 16 59.9950000  0  5G18G11G19G 2G 6
  22484019.5774   10459117.18646   8137003.39961
  22224577.616    -5815593.544 6    772000.32921
  20117053.452    -3784974.018 6  -2922004.40223
  19832140.9054  -19980089.43348 -15477239.42364
  21333493.226   -13363692.934 6 -10193291.17721
 91  4  1 23 17 14.9950000  0  5G18G11G19G 2G 6
  22491359.9444   10497713.27245   8167078.02161
  22227860.648    -5798344.297 6    785441.24421
  20117674.8354   -3781717.06346  -2919466.52663
  19826352.3584  -20010510.23348 -15500943.90264
  21324613.765   -13410358.931 6 -10229654.18921
 91  4  1 23 17 29.9950000  0  5G18G11G19G 2G 6
  22498713.452    10536330.824 5   8197169.33021
  22231165.273    -5780982.643 6    798969.76521
  20118304.108    -3778400.909 6  -2916882.52123
  19820577.2964  -20040869.79948 -15524600.66963
  21315732.6244  -13457026.79246 -10266018.65961
 91  4  1 23 17 44.9950000  0  5G18G11G19G 2G 6
  22506066.280    10574969.620 5   8227277.24321
  22234490.905    -5763509.091 6    812585.46321
  20118948.780    -3775025.901 6  -2914252.66423
  19814810.2184  -20071168.37948 -15548209.91364
  21306850.101   -13503696.473 6 -10302384.53321
 91  4  1 23 17 59.9950000  0  5G18G11G19G 2G 6
  22513423.882    10613635.070 5   8257405.93621
  22237836.569    -5745918.034 6    826292.74321
  20119600.421    -3771586.064 6  -2911572.28423
  19809057.9214  -20101400.26548 -15571767.18463
  21297972.538   -13550362.127 6 -10338747.27321
 91  4  1 23 18 14.9950000  0  5G18G11G19G 2G 6
  22520785.257    10652326.641 5   8287554.96021
  22241205.983    -5728210.141 6    840091.04621
  20120270.007    -3768081.608 6  -2908841.55123
  19803316.9834  -20131565.75248 -15595272.71964
  21289093.3044  -13597023.84346 -10375106.95761
 91  4  1 23 18 29.9950000  0  5G18G11G19G 2G 6
  22528157.4054   10691044.19845   8317724.23761
  22244599.0074   -5710385.35646    853980.43961
  20120949.616    -3764512.212 6  -2906060.21823
  19797589.843   -20161664.640 8 -15618726.35923
  21280213.437   -13643681.457 6 -10411463.43821
 91  4  1 23 18 44.9950000  0  5G18G11G19G 2G 6
  22535530.374    10729792.264 5   8347917.26621
  22248012.398    -5692439.233 6    867964.38521
  20121642.1554   -3760872.81146  -2903224.33363
  19791875.6084  -20191692.14148 -15642124.37363
  21271334.6084  -13690329.82746 -10447812.71461
 91  4  1 23 18 59.9950000  0  5G18G11G19G 2G 6
  22542905.460    10768569.753 5   8378133.19221
  22251451.476    -5674372.927 6    882041.97521
  20122348.101    -3757164.403 6  -2900334.68123
  19786175.3274  -20221649.30048 -15665467.57564
  21262460.3194  -13736969.98346 -10484155.59561
 91  4  1 23 19 14.9950000  0  5G18G11G19G 2G 6
  22550292.835    10807369.263 5   8408366.34421
  22254910.7734   -5656193.71646    896207.53561
  20123066.085    -3753394.070 6  -2897396.77123
  19780486.1324  -20251543.18448 -15688761.47364
  21253587.4444  -13783608.72546 -10520497.37961
 91  4  1 23 19 29.9950000  0  5G18G11G19G 2G 6
  22557678.8274   10846189.67645   8438615.79761
  22258391.5074   -5637902.83046    910460.12361
  20123791.921    -3749562.619 6  -2894411.24323
  19774809.7414  -20281374.70248 -15712006.77564
  21244711.6324  -13830246.96146 -10556838.76261
 91  4  1 23 19 44.9950000  0  5G18G11G19G 2G 6
  22565071.898    10885032.642 5   8468882.77921
  22261894.374    -5619498.408 6    924801.17621
  20124536.343    -3745667.956 6  -2891376.44923
  19769145.1164  -20311141.61348 -15735201.73564
  21235835.8744  -13876882.50446 -10593178.05561
 91  4  1 23 19 59.9950000  0  5G18G11G19G 2G 6
  22572464.312    10923898.933 5   8499167.92321
  22265420.6794   -5600979.80546    939231.20661
  20125287.7574   -3741708.79146  -2888291.39963
  19763492.4134  -20340843.00648 -15758345.64064
  21226964.0854  -13923514.13646 -10629514.29461
 91  4  1 23 20 14.9950000  0  5G18G11G19G 2G 6
  22579871.108    10962792.547 5   8529474.33921
  22268965.382    -5582343.070 6    953753.26621
  20126055.663    -3737680.752 6  -2885152.67723
  19757853.8194  -20370474.82948 -15781435.33464
  21218092.1794  -13970137.46646 -10665844.07061
 91  4  1 23 20 29.9950000  0  5G18G11G19G 2G 6
  22587275.874    11001712.921 5   8559801.65821
  22272534.148    -5563588.740 6    968366.97921
  20126833.437    -3733584.135 6  -2881960.52623
  19752228.0464  -20400037.46248 -15804471.11664
  21209220.9294  -14016752.78146 -10702167.60161
 91  4  1 23 20 44.9950000  0  5G18G11G19G 2G 6
  22594688.202    11040654.594 5   8590145.57621
  22276123.0774   -5544722.39546    983067.97261
  20127626.233    -3729424.193 6  -2878719.02623
  19746615.8194  -20429536.24948 -15827457.14864
  21200348.8354  -14063365.27146 -10738488.93161
 91  4  1 23 20 59.9950000  0  5G18G11G19G 2G 6
  22602098.7964   11079623.45145   8620510.67461
  22279736.7024   -5525738.07346    997860.89361
  20128430.249    -3725194.594 6  -2875423.24523
  19741015.5384  -20458965.07048 -15850388.66264
  21191482.9524  -14109968.70646 -10774803.20361
 91  4  1 23 21 14.9950000  0  5G18G11G19G 2G 6
  22609521.5934   11118620.69045   8650897.84161
  22283372.3194   -5506634.81946   1012746.48861
  20129248.319    -3720893.783 6  -2872071.98323
  19735428.7574  -20488322.51448 -15873264.55564
  21182615.9054  -14156561.47946 -10811109.17161
 91  4  1 23 21 29.9950000  0  5G18G11G19G 2G 6
  22616949.569    11157639.664 6   8681301.96121
  22287029.655    -5487419.052 6   1027719.76021
  20130079.733    -3716527.948 6  -2868670.04523
  19729855.3124  -20517614.64748 -15896089.55564
  21173749.0854  -14203149.76646 -10847411.63861
 91  4  1 23 21 44.9950000  0  5G18G11G19G 2G 6
  22624379.608    11196687.155 5   8711728.29521
  22290707.671    -5468083.999 6   1042785.98621
  20130924.304    -3712090.016 6  -2865211.93023
  19724294.2654  -20546834.55848 -15918858.28564
  21164886.132   -14249726.318 6 -10883704.97421
 91  4  1 23 21 59.9950000  0  5G18G11G19G 2G 6
  22631810.913    11235756.693 5   8742171.81821
  22294409.8514   -5448636.16746   1057940.07961
  20131780.101    -3707586.331 6  -2861702.57823
  19718745.4764  -20575988.61548 -15941575.69764
  21156023.4994  -14296297.31946 -10919993.97661
 91  4  1 23 22 14.9950000  0  5G18G11G19G 2G 6
  22639253.0544   11274851.30145   8772634.90661
  22298132.960    -5429072.605 6   1073184.35121
  20132652.288    -3703013.477 6  -2858139.33023
  19713211.3824  -20605073.51448 -15964239.22064
  21147163.351   -14342859.269 6 -10956275.92321
 91  4  1 23 22 29.9950000  0  5G18G11G19G 2G 6
  22646693.9444   11313967.76345   8803115.01761
  22301875.718    -5409396.327 6   1088516.45121
  20133534.491    -3698374.076 6  -2854524.23023
  19707688.7414  -20634092.14148 -15986851.10363
  21138304.7104  -14389414.95346 -10992552.99761
 91  4  1 23 22 44.9950000  0  5G18G11G19G 2G 6
  22654142.1634   11353101.65545   8833608.66561
  22305642.437    -5389611.855 6   1103932.87821
  20134428.202    -3693672.156 6  -2850860.40623
  19702178.8584  -20663048.87748 -16009414.76064
  21129444.7184  -14435968.52046 -11028828.40961
 91  4  1 23 22 59.9950000  0  5G18G11G19G 2G 6
  22661593.3514   11392256.23445   8864118.42061
  22309426.1794   -5369715.86046   1119436.19361
  20135335.944    -3688904.214 6  -2847145.14623
  19696680.7964  -20691940.16648 -16031927.42063
  21120586.694   -14482516.119 6 -11065099.18221
 91  4  1 23 23 14.9950000  0  5G18G11G19G 2G 6
  22669050.437    11431434.497 5   8894646.66621
  22313239.296    -5349705.243 6   1135028.82621
  20136257.929    -3684066.784 6  -2843375.73523
  19691196.0154  -20720762.57848 -16054386.40664
  21111730.1244  -14529054.37046 -11101362.66161
 91  4  1 23 23 29.9950000  0  5G18G11G19G 2G 6
  22676510.0384   11470629.60745   8925188.06561
  22317063.5624   -5329587.33846   1150705.04361
  20137192.187    -3679166.682 6  -2839557.49523
  19685723.1634  -20749523.18248 -16076797.23764
  21102877.773   -14575590.150 6 -11137624.22521
 91  4  1 23 23 44.9950000  0  5G18G11G19G 2G 6
  22683976.405    11509847.694 5   8955747.34221
  22320912.3514   -5309355.71146   1166469.88761
  20138136.858    -3674197.036 6  -2835685.06123
  19680263.8124  -20778215.27748 -16099154.68064
  21094021.4764  -14622116.56846 -11173878.48561
 91  4  1 23 23 59.9950000  0  5G18G11G19G 2G 6
  22691440.2654   11549089.04345   8986324.74761
  22324784.335    -5289010.190 6   1182323.47921
  20139094.015    -3669157.383 6  -2831758.07623
  19674816.3824  -20806838.41948 -16121458.39164
  21085169.1874  -14668633.15346 -11210125.08761
 91  4  1 23 24 14.9950000  0  5G18G11G19G 2G 6
  22698913.116    11588355.249 5   9016921.47521
  22328678.429    -5268549.190 6   1198267.04921
  20140067.351    -3664046.004 6  -2827775.20423
  19669383.1244  -20835390.95748 -16143707.08964
  21076320.2654  -14715137.83446 -11246362.40761
 91  4  1 23 24 29.9950000  0  5G18G11G19G 2G 6
  22706390.8194   11627650.06045   9047540.48961
  22332593.0694   -5247968.91146   1214303.57361
  20141053.671    -3658858.479 6  -2823732.99423
  19663963.6404  -20863868.70748 -16165897.50864
  21067471.0774  -14761626.36546 -11282587.14161
 91  4  1 23 24 44.9950000  0  5G18G11G19G 2G 6
  22713871.124    11666962.005 5   9078172.95621
  22336530.905    -5227280.843 6   1230424.08821
  20142054.101    -3653605.874 6  -2819640.07223
  19658557.2414  -20892282.58248 -16188038.15664
  21058626.8434  -14808109.73746 -11318807.85861
 91  4  1 23 24 59.9950000  0  5G18G11G19G 2G 6
  22721354.9524   11706298.98645   9108824.88661
  22340491.1014   -5206477.24346   1246634.63061
  20143066.202    -3648280.160 6  -2815490.18623
  19653162.7734  -20920624.92848 -16210123.06864
  21049785.8664  -14854579.96746 -11355018.33661
 91  4  1 23 25 14.9950000  0  5G18G11G19G 2G 6
  22728846.077    11745653.115 5   9139490.18421
  22344469.687    -5185565.930 6   1262929.11121
  20144094.327    -3642889.026 6  -2811289.31723
  19647781.7654  -20948903.40348 -16232158.20964
  21040943.4444  -14901044.43846 -11391224.31961
 91  4  1 23 25 29.9950000  0  5G18G11G19G 2G 6
  22736338.483    11785023.688 5   9170168.26121
  22348471.6244   -5164547.40146   1279307.11561
  20145130.343    -3637432.535 6  -2807037.52523
  19642413.1874  -20977118.23448 -16254143.75864
  21032102.1554  -14947503.09546 -11427425.77161
 91  4  1 23 25 44.9950000  0  5G18G11G19G 2G 6
  22743835.655    11824411.590 5   9200859.85921
  22352491.9914   -5143421.00046   1295769.17861
  20146180.819    -3631909.585 6  -2802733.94223
  19637055.9054  -21005268.41248 -16276078.92963
  21023262.1164  -14993955.04046 -11463622.00361
 91  4  1 23 25 59.9950000  0  5G18G11G19G 2G 6
  22751329.835    11863817.930 5   9231565.77921
  22356529.483    -5122185.818 6   1312316.00521
  20147245.593    -3626318.879 6  -2798377.56523
  19631712.0074  -21033352.69648 -16297962.74964
  21014422.7104  -15040398.74846 -11499811.80561
 91  4  1 23 26 14.9950000  0  5G18G11G19G 2G 6
  22758831.132    11903245.092 5   9262287.97821
  22360592.9764   -5100839.21746   1328949.65661
  20148324.2024   -3620657.25046  -2793965.91163
  19626379.7654  -21061368.35848 -16319793.10664
  21005586.0154  -15086831.26946 -11535992.89461
 91  4  1 23 26 29.9950000  0  5G18G11G19G 2G 6
  22766341.413    11942692.940 5   9293026.28421
  22364678.5694   -5079381.67346   1345669.74861
  20149413.374    -3614924.857 6  -2789499.13723
  19621062.1944  -21089315.61548 -16341570.15164
  20996754.1404  -15133252.64246 -11572165.29861
 91  4  1 23 26 44.9950000  0  5G18G11G19G 2G 6
  22773853.3984   11982161.10745   9323780.44361
  22368782.687    -5057813.175 6   1362476.31521
  20150517.819    -3609121.277 6  -2784976.88623
  19615756.7654  -21117194.18148 -16363293.67864
  20987922.9914  -15179662.42846 -11608328.66861
 91  4  1 23 26 59.9950000  0  5G18G11G19G 2G 6
  22781368.0854   12021645.25645   9354547.03061
  22372904.444    -5036138.031 6   1379365.96221
  20151636.827    -3603250.593 6  -2780402.34123
  19610462.3744  -21145007.98748 -16384966.74164
  20979093.499   -15226064.565 6 -11644486.07921
 91  4  1 23 27 14.9950000  0  5G18G11G19G 2G 6
  22788883.9994   12061156.27145   9385334.56361
  22377052.7264   -5014345.87646   1396346.79461
  20152767.843    -3597302.071 6  -2775767.14723
  19605186.5384  -21172746.56048 -16406581.17564
  20970267.0624  -15272448.13546 -11680629.02161
 91  4  1 23 27 29.9950000  0  5G18G11G19G 2G 6
  22796406.0694   12100682.38945   9416133.82661
  22381220.7964   -4992448.22446   1413409.84461
  20153916.241    -3591286.876 6  -2771080.00223
  19599920.7414  -21200421.20048 -16428145.79764
  20961441.632   -15318824.385 6 -11716766.26121
 91  4  1 23 27 44.9950000  0  5G18G11G19G 2G 6
  22803933.046    12140231.756 5   9446951.18321
  22385408.0464   -4970436.93546   1430561.43361
  20155072.593    -3585196.414 6  -2766334.20223
  19594667.1084  -21228023.46648 -16449654.02464
  20952619.788   -15365184.680 6 -11752891.06021
 91  4  1 23 27 59.9950000  0  5G18G11G19G 2G 6
  22811464.6554   12179797.07445   9477781.03261
  22389617.2964   -4948319.46346   1447795.76461
  20156243.491    -3579037.819 6  -2761535.31323
  19589427.2104  -21255560.56048 -16471111.46664
  20943798.773   -15411536.063 6 -11789008.92221
 91  4  1 23 28 14.9950000  0  5G18G11G19G 2G 6
  22818997.8044   12219380.40745   9508624.93661
  22393846.788    -4926093.595 6   1465114.54621
  20157429.882    -3572808.229 6  -2756681.10023
  19584200.7734  -21283029.86848 -16492516.08564
  20934980.155   -15457875.812 6 -11825117.72321
 91  4  1 23 28 29.9950000  0  5G18G11G19G 2G 6
  22826533.4444   12258984.71045   9539485.15661
  22398096.4834   -4903756.47545   1482520.01861
  20158627.327    -3566504.688 6  -2751769.26423
  19578986.1084  -21310428.43148 -16513865.57864
  20926164.9214  -15504200.55246 -11861214.82261
 91  4  1 23 28 44.9950000  0  5G18G11G19G 2G 6
  22834069.2654   12298604.96445   9570357.81761
  22402369.233    -4881313.047 6   1500008.33621
  20159841.132    -3560131.809 6  -2746803.40223
  19573783.8744  -21337760.97348 -16535163.63164
  20917351.7804  -15550515.08546 -11897303.97061
 91  4  1 23 28 59.9950000  0  5G18G11G19G 2G 6
  22841615.5624   12338241.25745   9601242.89561
  22406658.8124   -4858763.27945   1517579.51961
  20161068.624    -3553689.046 6  -2741783.08023
  19568596.3984  -21365027.20248 -16556410.01063
  20908539.655   -15596818.630 6 -11933384.54621
 91  4  1 23 29 14.9950000  0  5G18G11G19G 2G 6
  22849164.1324   12377898.48245   9632144.34561
  22410968.9604   -4836102.15245   1535237.47961
  20162307.108    -3547170.920 6  -2736704.03823
  19563420.0934  -21392221.69248 -16577600.48864
  20899734.1164  -15643105.96546 -11969452.50261
 91  4  1 23 29 29.9950000  0  5G18G11G19G 2G 6
  22856713.7494   12417576.81445   9663062.26461
  22415304.4834   -4813329.85445   1552982.04461
  20163561.733    -3540577.432 6  -2731566.27222
  19558260.3434  -21419344.50248 -16598735.11364
  20890925.7734  -15689376.61546 -12005507.46561
 91  4  1 23 29 44.9950000  0  5G18G11G19G 2G 6
  22864262.5544   12457266.39245   9693988.98861
  22419658.569    -4790456.386 5   1570805.45821
  20164830.468    -3533918.207 6  -2726377.28523
  19553109.9214  -21446405.34448 -16619821.45364
  20882122.5774  -15735640.29446 -12041556.98361
 91  4  1 23 29 59.9950000  0  5G18G11G19G 2G 6
  22871819.030    12496971.709 4   9724927.84221
  22424029.5854   -4767477.23945   1588711.21361
  20166108.812    -3527188.458 6  -2721133.33823
  19547974.2964  -21473399.58548 -16640855.89664
  20873320.7804  -15781892.03646 -12077597.20561
 91  4  1 23 30 14.9950000  0  5G18G11G19G 2G 6
  22879377.585    12536688.552 5   9755875.83521
  22428421.4134   -4744396.56545   1606696.09961
  20167403.882    -3520391.959 6  -2715837.38723
  19542848.1324  -21500330.95948 -16661841.35364
  20864520.3984  -15828135.55046 -12113631.01461
 91  4  1 23 30 29.9950000  0  5G18G11G19G 2G 6
  22886942.038    12576420.950 5   9786835.79321
  22432835.7494   -4721210.24845   1624763.29561
  20168711.015    -3513524.033 6  -2710485.77923
  19537735.8354  -21527195.20948 -16682774.50464
  20855723.1484  -15874366.31746 -12149654.89661
 91  4  1 23 30 44.9950000  0  5G18G11G19G 2G 6
  22894503.093    12616160.740 5   9817801.59721
  22437264.976    -4697926.479 5   1642906.42721
  20170030.366    -3506592.282 6  -2705084.43223
  19532635.8274  -21554000.11148 -16703661.41164
  20846928.5854  -15920591.86946 -12185674.71561
 91  4  1 23 30 59.9950000  0  4G11G19G 2G 6
  22441717.2414   -4674537.70545   1661131.37361
  20171365.421    -3499589.040 6  -2699627.37823
  19527546.3194  -21580737.98848 -16724496.08964
  20838133.9604  -15966804.46946 -12221684.43661
 91  4  1 23 31 14.9950000  0  4G11G19G 2G 6
  22446186.9834   -4651052.05445   1679431.80861
  20172707.679    -3492522.147 6  -2694120.72623
  19522470.8584  -21607416.63848 -16745284.61864
  20829342.1794  -16013011.54146 -12257689.85661
 91  4  1 23 31 29.9950000  0  4G11G19G 2G 6
  22450670.7184   -4627470.15745   1697807.24661
  20174065.648    -3485391.740 6  -2688564.58923
  19517405.2494  -21634036.29148 -16766027.17664
  20820549.6404  -16059213.41346 -12293691.22861
 91  4  1 23 31 44.9950000  0  4G11G19G 2G 6
  22455180.116    -4603788.455 5   1716260.46421
  20175434.023    -3478193.938 6  -2682955.92723
  19512351.2654  -21660593.34848 -16786720.95564
  20811758.4914  -16105406.08146 -12329685.42661
 91  4  1 23 31 59.9950000  0  4G11G19G 2G 6
  22459708.124    -4580003.556 5   1734794.06321
  20176815.569    -3470925.038 6  -2677291.86023
  19507310.3584  -21687084.00748 -16807362.99564
  20802971.046   -16151585.800 6 -12365669.53921
 91  4  1 23 32 14.9950000  0  4G11G19G 2G 6
  22464252.2494   -4556115.48845   1753408.09061
  20178217.351    -3463584.819 6  -2671572.23023
  19502281.5624  -21713508.19848 -16827953.24563
  20794186.265   -16197752.024 6 -12401643.12921
 91  4  1 23 32 29.9950000  0  4G11G19G 2G 6
  22468818.898    -4532123.042 5   1772103.44921
  20179623.226    -3456171.446 6  -2665795.59723
  19497266.5154  -21739864.33448 -16848490.46164
  20785403.913   -16243903.208 6 -12437605.00821
 91  4  1 23 32 44.9950000  0  4G11G19G 2G 6
  22473400.202    -4508028.332 5   1790878.47721
  20181049.640    -3448686.631 6  -2659963.29423
  19492263.6244  -21766154.16148 -16868976.01364
  20776625.233   -16290040.744 6 -12473556.25221
 91  4  1 23 32 59.9950000  0  4G11G19G 2G 6
  22478007.468    -4483829.644 5   1809734.53621
  20182486.515    -3441128.261 6  -2654073.67222
  19487273.3274  -21792375.83248 -16889408.45664
  20767847.6014  -16336162.57146 -12509495.25361
 91  4  1 23 33 14.9950000  0  4G11G19G 2G 6
  22482632.351    -4459534.954 5   1828665.40921
  20183940.538    -3433503.977 6  -2648132.68922
  19482295.5694  -21818537.01848 -16909793.76863
  20759072.155   -16382276.278 6 -12545427.93521
 91  4  1 23 33 29.9950000  0  4G11G19G 2G 6
  22487273.5694   -4435138.62845   1847675.45061
  20185403.194    -3425807.726 6  -2642135.63323
  19477328.9214  -21844631.82048 -16930127.35364
  20750299.851   -16428375.679 6 -12581349.46721
 91  4  1 23 33 44.9950000  0  4G11G19G 2G 6
  22491937.0384   -4410636.10845   1866768.25861
  20186882.265    -3418034.757 6  -2636078.79222
  19472376.9684  -21870655.57248 -16950405.57164
  20741530.538   -16474455.829 6 -12617255.99521
 91  4  1 23 33 59.9950000  0  4G11G19G 2G 6
  22496618.5934   -4386033.40245   1885939.12561
  20188373.437    -3410190.670 6  -2629966.54522
  19467437.9834  -21896613.87748 -16970632.79264
  20732764.030   -16520522.422 6 -12653151.96721
 91  4  1 23 34 14.9950000  0  4G11G19G 2G 6
  22501319.2414   -4361331.79445   1905187.06761
  20189881.171    -3402276.122 6  -2623799.37922
  19462509.7184  -21922507.83148 -16990809.87164
  20724002.327   -16566576.099 6 -12689037.87121
 91  4  1 23 34 29.9950000  0  4G11G19G 2G 6
  22506036.2884   -4336535.24345   1924509.00461
  20191397.632    -3394294.722 6  -2617580.12722
  19457594.1324  -21948341.13648 -17010939.69364
  20715239.718   -16612620.310 6 -12724916.39921
 91  4  1 23 34 44.9940000  0  4G11G19G 2G 6
  22510773.822    -4311647.221 5   1943902.20121
  20192932.127    -3386248.653 6  -2611310.48222
  19452690.6114  -21974113.73148 -17031022.20363
  20706477.197   -16658653.426 6 -12760786.29021
 91  4  1 23 34 59.9940000  0  4G11G19G 2G 6
  22515528.705    -4286662.060 5   1963371.07621
  20194473.057    -3378134.209 6  -2604987.55322
  19447796.7834  -21999826.17448 -17051057.84364
  20697719.580   -16704678.741 6 -12796650.09522
 91  4  1 23 35 14.9940000  0  4G11G19G 2G 6
  22520300.0654   -4261581.89245   1982914.00461
  20196031.752    -3369951.800 6  -2598611.67622
  19442915.4554  -22025477.02848 -17071045.49564
  20688963.9164  -16750693.18746 -12832505.43861
 91  4  1 23 35 29.9940000  0  4G11G19G 2G 6
  22525091.775    -4236407.643 5   2002530.22621
  20197603.135    -3361702.056 6  -2592183.32222
  19438045.9794  -22051066.92048 -17090985.64264
  20680209.1194  -16796697.24346 -12868352.68361
 91  4  1 23 35 44.9940000  0  4G11G19G 2G 6
  22529897.385    -4211136.318 5   2022222.10221
  20199184.854    -3353381.569 6  -2585699.84723
  19433188.7834  -22076592.67648 -17110875.81964
  20671455.8464  -16842687.38146 -12904189.08361
 91  4  1 23 35 59.9940000  0  4G11G19G 2G 6
  22534726.791    -4185770.900 5   2041987.27921
  20200782.932    -3344992.984 6  -2579163.30522
  19428343.979   -22102057.047 8 -17130718.15724
  20662708.8854  -16888666.08546 -12940016.57862
 91  4  1 23 36 14.9940000  0  4G11G19G 2G 6
  22539573.658    -4160312.836 5   2061824.65821
  20202390.572    -3336537.288 6  -2572574.47222
  19423508.1194  -22127461.09448 -17150513.48864
  20653962.377   -16934634.507 6 -12975836.05521
 91  4  1 23 36 29.9940000  0  4G11G19G 2G 6
  22544433.4554   -4134759.40445   2081736.38161
  20204011.596    -3328011.373 6  -2565930.92022
  19418687.400   -22152801.934 8 -17170259.57324
  20645216.2914  -16980589.29646 -13011644.91262
 91  4  1 23 36 44.9940000  0  4G11G19G 2G 6
  22549310.815    -4109113.614 5   2101720.06121
  20205648.705    -3319417.968 6  -2559234.78222
  19413875.1504  -22178082.35448 -17189958.57464
  20636472.8154  -17026533.01546 -13047445.15061
 91  4  1 23 36 59.9940000  0  4G11G19G 2G 6
  22554213.9404   -4083369.21845   2121780.55761
  20207295.963    -3310750.430 6  -2552480.87622
  19409077.2524  -22203295.84048 -17209605.41764
  20627733.8544  -17072459.02846 -13083231.57762
 91  4  1 23 37 14.9940000  0  4G11G19G 2G 6
  22559127.9944   -4057533.96245   2141911.84861
  20208960.229    -3302016.148 6  -2545674.96022
  19404291.268   -22228449.888 8 -17229205.94924
  20618996.1194  -17118374.64246 -13119009.91362
 91  4  1 23 37 29.9940000  0  4G11G19G 2G 6
  22564063.6354   -4031606.01245   2162115.38961
  20210633.065    -3293212.938 6  -2538815.33022
  19399515.846   -22253542.222 8 -17248758.39324
  20610260.8774  -17164277.31246 -13154778.15961
 91  4  1 23 37 44.9940000  0  4G11G19G 2G 6
  22569016.533    -4005588.312 5   2182388.84121
  20212322.549    -3284343.374 6  -2531904.00222
  19394752.729   -22278575.626 8 -17268264.91123
  20601528.6824  -17210169.69146 -13190538.38461
 91  4  1 23 37 59.9940000  0  4G11G19G 2G 6
  22573981.5254   -3979480.45945   2202732.57061
  20214022.025    -3275406.678 6  -2524940.36323
  19390000.666   -22303549.409 8 -17287724.98123
  20592797.2914  -17256050.70546 -13226289.75962
 91  4  1 23 38 14.9940000  0  4G11G19G 2G 6
  22578967.525    -3953277.823 5   2223150.12421
  20215737.471    -3266397.803 6  -2517920.48322
  19385259.518   -22328458.675 8 -17307134.77524
  20584068.9004  -17301915.39946 -13262028.41461
 91  4  1 23 38 29.9940000  0  4G11G19G 2G 6
  22583972.9004   -3926985.01245   2243637.94861
  20217463.729    -3257320.870 6  -2510847.57322
  19380530.682   -22353307.805 8 -17326497.70724
  20575344.6434  -17347767.84946 -13297757.52961
 91  4  1 23 38 44.9940000  0  4G11G19G 2G 6
  22588992.229    -3900600.193 5   2264197.48521
  20219206.994    -3248173.871 6  -2503720.06022
  19375815.674   -22378094.752 8 -17345812.19024
  20566621.1434  -17393605.83946 -13333475.38361
 91  4  1 23 38 59.9940000  0  4G11G19G 2G 6
  22594030.486    -3874126.898 5   2284825.96621
  20220956.455    -3238959.705 6  -2496540.21323
  19371109.440   -22402822.610 8 -17365080.62724
  20557900.6664  -17439432.15146 -13369184.13161
 91  4  1 23 39 14.9940000  0  4G11G19G 2G 6
  22599083.752    -3847570.795 5   2305518.95021
  20222724.752    -3229683.811 6  -2489312.25622
  19366412.861   -22427496.754 8 -17384307.20924
  20549180.3694  -17485252.26246 -13404888.04861
 91  4  1 23 39 29.9940000  0  4G11G19G 2G 6
  22604154.002    -3820923.047 5   2326283.38721
  20224504.150    -3220336.933 6  -2482029.00222
  19361729.815   -22452108.010 8 -17403484.79024
  20540465.1664  -17531056.61046 -13440579.68762
 91  4  1 23 39 44.9940000  0  4G11G19G 2G 6
  22609242.994    -3794190.396 5   2347113.94721
  20226293.986    -3210925.491 6  -2474695.43522
  19357057.463   -22476662.915 8 -17422618.46124
  20531750.7364  -17576851.52746 -13476263.97061
 91  4  1 23 39 59.9940000  0  4G11G19G 2G 6
  22614346.424    -3767371.661 5   2368011.58521
  20228099.557    -3201447.958 6  -2467310.36422
  19352395.525   -22501160.099 8 -17441707.15324
  20523037.9554  -17622635.40646 -13511939.65762
 91  4  1 23 40 14.9940000  0  4G11G19G 2G 6
  22619466.947    -3740463.215 5   2388979.13821
  20229914.518    -3191900.244 6  -2459870.61122
  19347745.424   -22525595.660 8 -17460747.82624
  20514328.5184  -17668404.08046 -13547603.49261
 91  4  1 23 40 29.9940000  0  4G11G19G 2G 6
  22624602.947    -3713469.284 5   2410013.29021
  20231742.018    -3182286.233 6  -2452379.19022
  19343107.057   -22549973.558 8 -17479743.57024
  20505621.9864  -17714161.29746 -13583258.40262
 91  4  1 23 40 44.9940000  0  4G11G19G 2G 6
  22629758.4944   -3686388.60045   2431115.04661
  20233587.658    -3172604.172 6  -2444834.74622
  19338479.127   -22574292.154 8 -17498693.10324
  20496916.6274  -17759905.25446 -13618902.97462
 91  4  1 23 40 59.9940000  0  4G11G19G 2G 6
  22634925.486    -3659227.439 5   2452279.50121
  20235440.361    -3162859.911 6  -2437241.83822
  19333861.525   -22598557.454 8 -17517601.11023
  20488213.0884  -17805641.63346 -13654541.65262
 91  4  1 23 41 14.9940000  0  4G11G19G 2G 6
  22640113.0024   -3631979.75545   2473511.37861
  20237308.049    -3153047.175 6  -2429595.57022
  19329255.072   -22622763.203 8 -17536462.71123
  20479513.0964  -17851364.09846 -13690169.48362
 91  4  1 23 41 29.9940000  0  4G11G19G 2G 6
  22645312.6434   -3604647.52545   2494809.13861
  20239187.580    -3143167.537 6  -2421897.18022
  19324661.268   -22646911.109 8 -17555279.24024
  20470813.8694  -17897073.97446 -13725787.50362
 91  4  1 23 41 44.9940000  0  4G11G19G 2G 6
  22650529.4944   -3577232.65545   2516171.28861
  20241080.213    -3133222.557 6  -2414147.86622
  19320075.877   -22671002.898 8 -17574052.04323
  20462117.1274  -17942772.79146 -13761396.91362
 91  4  1 23 41 59.9940000  0  4G11G19G 2G 6
  22655758.971    -3549737.219 5   2537596.23721
  20242982.135    -3123213.895 6  -2406348.92822
  19315501.877   -22695040.239 8 -17592782.41724
  20453423.2684  -17988462.16046 -13796998.95062
 91  4  1 23 42 14.9940000  0  4G11G19G 2G 6
  22661010.650    -3522159.804 5   2559085.03421
  20244903.041    -3113139.654 6  -2398498.89822
  19310938.221   -22719021.272 8 -17611468.91924
  20444731.6584  -18034140.02046 -13832592.02262
 91  4  1 23 42 29.9940000  0  4G11G19G 2G 6
  22666276.4324   -3494492.14545   2580644.16861
  20246834.033    -3102991.411 6  -2390591.19322
  19306386.557   -22742937.808 8 -17630105.16123
  20436041.5024  -18079797.76846 -13868169.42662
 91  4  1 23 42 44.9940000  0  4G11G19G 2G 6
  22671553.096    -3466737.110 5   2602271.39921
  20248778.940    -3092771.478 6  -2382627.63022
  19301848.494   -22766792.352 8 -17648693.10024
  20427358.9244  -18125437.69446 -13903732.94162
 91  4  1 23 42 59.9940000  0  4G11G19G 2G 6
  22676854.049    -3438903.057 5   2623960.16321
  20250735.338    -3082487.779 6  -2374614.37822
  19297318.197   -22790592.909 8 -17667238.96823
  20418674.7524  -18171067.47646 -13939288.55162
 91  4  1 23 43 14.9940000  0  4G11G19G 2G 6
  22682163.4864   -3410988.03645   2645712.05761
  20252704.166    -3072138.245 6  -2366549.82622
  19292800.346   -22814337.268 8 -17685741.04624
  20409992.2294  -18216684.80746 -13974834.46062
 91  4  1 23 43 29.9940000  0  4G11G19G 2G 6
  22687492.4404   -3382991.44345   2667527.48861
  20254688.705    -3061721.717 6  -2358433.07122
  19288292.393   -22838024.436 8 -17704198.56424
  20401314.6274  -18262288.53446 -14010369.76762
 91  4  1 23 43 44.9940000  0  4G11G19G 2G 6
  22692835.5964   -3354909.49745   2689409.43261
  20256682.440    -3051234.127 6  -2350260.94922
  19283797.072   -22861650.421 8 -17722608.40124
  20392640.7054  -18307874.30846 -14045891.09162
 91  4  1 23 43 59.9940000  0  4G11G19G 2G 6
  22698198.3224   -3326745.50245   2711355.34261
  20258693.541    -3040678.345 6  -2342035.68722
  19279312.260   -22885218.307 8 -17740972.96924
  20383968.2134  -18353445.07846 -14081400.71662
 91  4  1 23 44 14.9940000  0  4G11G19G 2G 6
  22703571.4554   -3298496.82445   2733367.18861
  20260712.572    -3030051.361 6  -2333754.94622
  19274838.002   -22908725.196 8 -17759290.00924
  20375300.1904  -18398997.72046 -14116896.21562
 91  4  1 23 44 29.9940000  0  4G11G19G 2G 6
  22708961.940    -3270167.256 5   2755442.11321
  20262745.846    -3019356.518 6  -2325421.32522
  19270375.893   -22932174.598 8 -17777562.24924
  20366636.3774  -18444535.45146 -14152380.09862
 91  4  1 23 44 44.9940000  0  4G11G19G 2G 6
  22714371.033    -3241748.920 5   2777586.17621
  20264798.2684   -3008585.64346  -2317028.46162
  19265927.080   -22955558.378 8 -17795783.35623
  20357973.5494  -18490049.85346 -14187845.80462
 91  4  1 23 44 59.9940000  0  4G11G19G 2G 6
  22719790.9004   -3213252.64045   2799791.01461
  20266859.072    -2997749.193 6  -2308584.50422
  19261487.307   -22978886.976 8 -17813961.46523
  20349315.5884  -18535551.29346 -14223301.40462
 91  4  1 23 45 14.9940000  0  4G11G19G 2G 6
  22725233.9164   -3184666.18645   2822066.08061
  20268935.338    -2986834.499 6  -2300079.57022
  19257061.869   -23002147.854 8 -17832086.80324
  20340661.1504  -18581026.98646 -14258736.94662
 91  4  1 23 45 29.9940000  0  4G11G19G 2G 6
  22730689.8464   -3155993.52745   2844408.32161
  20271029.0024   -2975845.27146  -2291516.56262
  19252645.815   -23025344.721 8 -17850162.26524
  20332011.0884  -18626480.30346 -14294155.05462
 91  4  1 23 45 44.9940000  0  4G11G19G 2G 6
  22736160.5574   -3127236.26945   2866816.49861
  20273133.768    -2964782.784 6  -2282896.46522
  19248243.479   -23048478.976 8 -17868188.93623
  20323366.2604  -18671912.57646 -14329556.75862
 91  4  1 23 45 59.9940000  0  4G11G19G 2G 6
  22741651.549    -3098393.414 5   2889291.34421
  20275252.2914   -2953645.70946  -2274218.25962
  19243853.979   -23071549.525 8 -17886165.96623
  20314722.9084  -18717322.26546 -14364940.86862
 91  4  1 23 46 14.9940000  0  4G11G19G 2G 6
  22747153.2364   -3069471.18745   2911828.09261
  20277384.377    -2942439.762 6  -2265486.37522
  19239474.994   -23094562.236 8 -17904097.93023
  20306086.3614  -18762714.95846 -14400311.73862
 91  4  1 23 46 29.9940000  0  4G11G19G 2G 6
  22752673.150    -3040464.582 5   2934430.55121
  20279528.5574   -2931159.52046  -2256696.60862
  19235106.736   -23117511.704 8 -17921980.60923
  20297452.8854  -18808085.11346 -14435665.04162
 91  4  1 23 46 44.9940000  0  4G11G19G 2G 6
  22758209.697    -3011376.378 5   2957096.61621
  20281691.518    -2919807.442 6  -2247850.85722
  19230752.330   -23140400.482 8 -17939815.99824
  20288822.7684  -18853435.03246 -14471002.57562
 91  4  1 23 46 59.9940000  0  4G11G19G 2G 6
  22763763.2364   -2982203.31345   2979828.78061
  20283864.5024   -2908379.75146  -2238946.19362
  19226408.338   -23163224.882 8 -17957601.22423
  20280197.1824  -18898760.95546 -14506321.41762
 91  4  1 23 47 14.9940000  0  4G11G19G 2G 6
  22769328.072    -2952945.435 5   3002627.01521
  20286055.2214   -2896876.25846  -2229982.46362
  19222078.549   -23185984.984 8 -17975336.34724
  20271578.2834  -18944062.42046 -14541621.19862
 91  4  1 23 47 29.9940000  0  4G11G19G 2G 6
  22774911.299    -2923605.476 5   3025489.24521
  20288259.3224   -2885299.34746  -2220961.52162
  19217758.525   -23208683.091 8 -17993023.16523
  20262961.2294  -18989341.64746 -14576903.65162
 91  4  1 23 47 44.9940000  0  4G11G19G 2G 6
  22780505.4474   -2894190.45745   3048409.96561
  20290474.9794   -2873655.56246  -2211888.46962
  19213448.635   -23231325.784 8 -18010666.80123
  20254348.5104  -19034605.01546 -14612173.74462
 91  4  1 23 47 59.9940000  0  4G11G19G 2G 6
  22786120.1504   -2864698.46845   3071390.65761
  20292706.7994   -2861942.75146  -2202761.63662
  19209151.963   -23253910.871 8 -18028265.54824
  20245737.8304  -19079850.14146 -14647429.63362
 91  4  1 23 48 14.9940000  0  4G11G19G 2G 6
  22791745.705    -2835127.088 5   3094433.22421
  20294945.580    -2850158.220 6  -2193578.91322
  19204865.150   -23276435.820 8 -18045817.43624
  20237130.4324  -19125074.15546 -14682669.06262
 91  4  1 23 48 29.9940000  0  3G19G 2G 6
  20297204.7684   -2838302.72046  -2184340.89262
  19200589.619   -23298901.544 8 -18063323.17823
  20228531.127   -19170277.649 7 -14717892.50522
 91  4  1 23 48 44.9940000  0  3G19G 2G 6
  20299472.6824   -2826376.80346  -2175048.00262
  19196325.440   -23321308.689 8 -18080783.26924
  20219931.1974  -19215461.11446 -14753100.34562
 91  4  1 23 48 59.9940000  0  3G19G 2G 6
  20301753.5254   -2814378.03046  -2165698.34362
  19192074.205   -23343655.115 8 -18098196.05124
  20211338.8154  -19260622.13647 -14788290.68862
 91  4  1 23 49 14.9940000  0  3G19G 2G 6
  20304049.690    -2802311.060 6  -2156295.53022
  19187831.830   -23365945.335 8 -18115565.03424
  20202746.838   -19305765.020 6 -14823466.91022
 91  4  1 23 49 29.9940000  0  3G19G 2G 6
  20306361.1744   -2790172.95446  -2146837.30062
  19183601.143   -23388176.516 8 -18132888.01123
  20194160.307   -19350886.689 6 -14858626.59622
 91  4  1 23 49 44.9940000  0  3G19G 2G 6
  20308683.9944   -2777963.10046  -2137323.16062
  19179383.377   -23410348.040 8 -18150164.50223
  20185578.518   -19395986.306 6 -14893769.10222
 91  4  1 23 49 59.9940000  0  3G19G 2G 6
  20311020.2914   -2765679.48646  -2127751.54662
  19175175.291   -23432458.182 8 -18167393.16424
  20176999.5804  -19441061.82446 -14928892.82562
 91  4  1 23 50 14.9940000  0  3G19G 2G 6
  20313373.5254   -2753324.65846  -2118124.43562
  19170978.338   -23454509.480 8 -18184575.97223
  20168427.7914  -19486115.57447 -14963999.58962
 91  4  1 23 50 29.9940000  0  3G19G 2G 6
  20315738.4714   -2740896.06746  -2108439.85162
  19166794.057   -23476499.406 8 -18201710.96024
  20159859.307   -19531144.820 7 -14999087.25522
 91  4  1 23 50 44.9940000  0  3G19G 2G 6
  20318115.6274   -2728393.24846  -2098697.42962
  19162621.752   -23498427.614 8 -18218797.85723
  20151295.9474  -19576148.95047 -15034155.34962
 91  4  1 23 50 59.9940000  0  3G19G 2G 6
  20320509.2134   -2715824.05846  -2088903.28462
  19158458.424   -23520302.042 8 -18235842.84724
  20142733.736   -19621135.640 7 -15069209.86822
 91  4  1 23 51 14.9940000  0  3G19G 2G 6
  20322914.7134   -2703186.56646  -2079055.91762
  19154306.119   -23542120.972 8 -18252844.59223
  20134177.893   -19666102.901 7 -15104249.23522
 91  4  1 23 51 29.9940000  0  3G19G 2G 6
  20325330.6824   -2690481.04146  -2069155.53962
  19150165.315   -23563884.469 8 -18269803.14224
  20125624.0494  -19711050.58747 -15139273.35162
 91  4  1 23 51 44.9940000  0  3G19G 2G 6
  20327763.9004   -2677708.13346  -2059202.65462
  19146033.908   -23585593.644 8 -18286719.36324
  20117073.182   -19755979.291 7 -15174282.67622
 91  4  1 23 51 59.9940000  0  4G15G19G 2G 6
  22476412.7444         -0.33955
  20330208.315    -2664864.210 6  -2049194.43022
  19141913.830   -23607244.733 8 -18303590.32324
  20108529.385   -19800885.277 7 -15209274.29822
 91  4  1 23 52 14.9940000  0  4G15G19G 2G 6
  22468284.041      -42719.264 5
  20332663.479    -2651949.514 6  -2039131.05722
  19137804.619   -23628837.874 8 -18320416.12824
  20099986.783   -19845768.357 7 -15244248.07322
 91  4  1 23 52 29.9940000  0  4G15G19G 2G 6
  22460167.221      -85367.589 5
  20335137.7524   -2638969.67846  -2029016.93062
  19133706.908   -23650379.186 8 -18337201.54724
  20091449.0104  -19890634.42847 -15279208.59062
 91  4  1 23 52 44.9940000  0  4G15G19G 2G 6
  22452068.174     -127938.423 5
  20337617.1744   -2625918.49146  -2018847.20562
  19129617.729   -23671862.334 8 -18353941.64424
  20082916.8694  -19935476.92047 -15314150.73762
 91  4  1 23 52 59.9940000  0  4G15G19G 2G 6
  22443978.3224    -170426.86545        -0.39871
  20340116.127    -2612791.440 6  -2008618.36222
  19125541.557   -23693282.864 8 -18370632.94524
  20074388.3224  -19980290.99247 -15349070.73662
 91  4  1 23 53 14.9940000  0  4G15G19G 2G 6
  22435910.947     -212838.360 5    -33048.19121
  20342627.604    -2599594.050 6  -1998334.70922
  19121475.822   -23714646.507 8 -18387279.92024
  20065865.455   -20025082.301 7 -15383972.99822
 91  4  1 23 53 29.9940000  0  4G15G19G 2G 6
  22427852.057     -255179.461 2
  20345151.322    -2586333.389 5  -1988001.75421
  19117421.2524  -23735960.31148 -18403888.06162
  20057343.8854  -20069857.48747 -15418862.69561
 91  4  1 23 53 44.9940000  0  4G15G19G 2G 6
  22419810.604     -297448.119 5
  20347686.065    -2573007.587 6  -1977618.04622
  19113374.2134  -23757222.56047 -18420456.03262
  20048827.5574  -20114614.70045 -15453738.33061
 91  4  1 23 53 59.9940000  0  4G15G19G 2G 6
  22411784.002     -339636.227 5
  20350237.979    -2559608.918 6  -1967177.57122
  19109338.986   -23778425.398 8 -18436977.68923
  20040316.236   -20159345.924 7 -15488593.85222
 91  4  1 23 54 14.9940000  0  4G15G19G 2G 6
  22403767.549     -381743.230 5
  20352799.479    -2546137.214 6  -1956680.14122
  19105315.275   -23799568.949 8 -18453453.17624
  20031806.9714  -20204050.81847 -15523428.75462
 91  4  1 23 54 29.9940000  0  4G15G19G 2G 6
  22395766.4554    -423775.88244
  20355374.8154   -2532599.71946  -1946131.48462
  19101302.268   -23820660.329 8 -18469887.99624
  20023304.9244  -20248736.38247 -15558248.61262
 91  4  1 23 54 44.9940000  0  4G15G19G 2G 6
  22387787.002     -465731.965 5        -0.05431
  20357965.494    -2518994.607 6  -1935530.12722
  19097298.658   -23841697.797 8 -18486280.80924
  20014806.6744  -20293400.49447 -15593051.75862
 91  4  1 23 54 59.9940000  0  4G15G19G 2G 6
  22379818.0724    -507611.47145    -32633.35461
  20360567.7754   -2505321.98946  -1924876.17662
  19093305.025   -23862681.812 8 -18502631.97224
  20006310.1974  -20338043.34847 -15627838.34262
 91  4  1 23 55 14.9940000  0  4G15G19G 2G 6
  22371861.557     -549408.288 5    -65202.24421
  20363182.0254   -2491576.21346  -1914165.20462
  19089323.932   -23883606.765 8 -18518937.11024
  19997819.1274  -20382659.14147 -15662603.83562
 91  4  1 23 55 29.9940000  0  4G15G19G 2G 6
  22363922.0024    -591126.41845    -97709.75661
  20365811.6274   -2477761.71746  -1903400.69162
  19085352.627   -23904477.029 8 -18535199.63524
  19989335.0334  -20427251.91447 -15697351.38462
 91  4  1 23 55 44.9940000  0  4G15G19G 2G 6
  22355998.025     -632767.909 5   -130157.56121
  20368452.7364   -2463880.73846  -1892584.37462
  19081391.986   -23925295.112 8 -18551421.50224
  19980852.244   -20471823.917 7 -15732082.75922
 91  4  1 23 55 59.9940000  0  4G15G19G 2G 6
  22348089.1194    -674322.70445   -162537.86461
  20371111.1664   -2449923.88146  -1881708.93362
  19077440.971   -23946051.463 8 -18567595.26324
  19972376.8154  -20516365.39247 -15766790.33862
 91  4  1 23 56 14.9940000  0  4G15G19G 2G 6
  22340195.650     -715799.938 5   -194857.66621
  20373777.8224   -2435900.59246  -1870781.72262
  19073500.432   -23966755.462 8 -18583728.23124
  19963904.9864  -20560885.48447 -15801481.25862
 91  4  1 23 56 29.9940000  0  4G15G19G 2G 6
  22332324.0654    -757192.21845   -227111.33861
  20376462.979    -2421803.707 6  -1859797.16422
  19069572.408   -23987400.274 8 -18599815.07624
  19955439.4404  -20605377.07547 -15836149.96962
 91  4  1 23 56 44.9940000  0  4G15G19G 2G 6
  22324459.7834    -798504.62145   -259302.73261
  20379157.1904   -2407638.33946  -1848759.24762
  19065655.018   -24007991.208 8 -18615859.94124
  19946976.3074  -20649845.12447 -15870800.33462
 91  4  1 23 56 59.9940000  0  4G15G19G 2G 6
  22316616.1584    -839735.15445   -291430.33061
  20381862.7684   -2393403.32146  -1837667.05962
  19061745.768   -24028526.962 8 -18631861.81224
  19938518.0724  -20694288.14047 -15905431.19662
 91  4  1 23 57 14.9940000  0  4G15G19G 2G 6
  22308781.8384    -880887.21845   -323496.86661
  20384586.6044   -2379102.19646  -1826523.35662
  19057848.065   -24049011.143 8 -18647823.49024
  19930065.0884  -20738709.38747 -15940045.09562
 91  4  1 23 57 29.9940000  0  4G15G19G 2G 6
  22300968.455     -921961.173 5   -355502.40421
  20387318.3854   -2364735.48146  -1815328.54562
  19053960.932   -24069444.418 8 -18663745.50624
  19921617.2054  -20783109.40947 -15974642.45062
 91  4  1 23 57 44.9940000  0  4G15G19G 2G 6
  22293168.8934    -962953.52245   -387444.36361
  20390067.072    -2350300.301 6  -1804080.38222
  19050082.268   -24089824.008 8 -18679625.69324
  19913171.8304  -20827485.05047 -16009220.81362
 91  4  1 23 57 59.9940000  0  4G15G19G 2G 6
  22285383.385    -1003863.400 5   -419322.16221
  20392826.0884   -2335796.03346  -1792778.38562
  19046214.400   -24110149.202 8 -18695463.48824
  19904732.4164  -20871835.40947 -16043779.47562
 91  4  1 23 58 14.9940000  0  4G15G19G 2G 6
  22277610.5654   -1044685.81845   -451131.78361
  20395600.5574   -2321217.88346  -1781418.82562
  19042357.229   -24130415.319 8 -18711255.25324
  19896298.5494  -20916155.58147 -16078314.61662
 91  4  1 23 58 29.9940000  0  4G15G19G 2G 6
  22269861.650    -1085424.896 5   -482876.38921
  20398388.4084   -2306570.76946  -1770005.52462
  19038511.736   -24150627.356 8 -18727004.87524
  19887867.8774  -20960450.13847 -16112829.79562
 91  4  1 23 58 44.9940000  0  4G15G19G 2G 6
  22262124.5184   -1126081.41145   -514556.74661
  20401189.5254   -2291855.55846  -1758539.16062
  19034674.260   -24170786.336 8 -18742713.15824
  19879446.5724  -21004719.86347 -16147325.62462
 91  4  1 23 58 59.9940000  0  5G15G13G19G 2G 6
  22254401.221    -1166651.165 5   -546169.50421
  22203154.4084         -0.49955
  20404001.7214   -2277068.43146  -1747016.75962
  19030850.072   -24190888.393 8 -18758377.08324
  19871027.3224  -21048960.75847 -16181798.98962
 91  4  1 23 59 14.9940000  0  5G15G13G19G 2G 6
  22246699.018    -1207140.375 5   -577719.44321
  22188791.7684     -75482.99645
  20406828.979    -2262216.098 6  -1735443.54122
  19027034.471   -24210940.307 8 -18774001.93824
  19862611.877   -21093179.179 7 -16216254.84822
 91  4  1 23 59 29.9940000  0  5G15G13G19G 2G 6
  22239009.4324   -1247543.07545   -609201.98061
  22174431.4864    -150936.72445
  20409667.5104   -2247292.74646  -1723814.98562
  19023228.275   -24230936.444 8 -18789583.32724
  19854202.8154  -21137369.25347 -16250688.61562
 91  4  1 23 59 44.9930000  0  5G15G13G19G 2G 6
  22231340.810    -1287857.276 5   -640615.52721
  22160079.9504    -226357.24945
  20412522.2714   -2232300.37946  -1712132.65462
  19019434.380   -24250876.421 8 -18805120.95924
  19845798.857   -21181528.760 7 -16285098.56222
 91  4  1 23 59 59.9930000  0  5G15G13G19G 2G 6
  22223683.208    -1328089.571 5   -671965.32821
  22145735.6384    -301755.71745
  20415385.7394   -2217238.62646  -1700396.25562
  19015649.669   -24270764.747 8 -18820618.33724
  19837402.2004  -21225665.13147 -16319490.47962
 91  4  2  0  0 14.9930000  0  5G15G13G19G 2G 6
  22216044.317    -1368236.432 5   -703248.50921
  22131389.4504    -377126.17045        -0.09971
  20418263.9584   -2202108.03246  -1688606.21562
  19011875.411   -24290599.587 8 -18836074.03924
  19829006.747   -21269774.596 7 -16353861.43622
 91  4  2  0  0 29.9930000  0  5G15G13G19G 2G 6
  22208421.489    -1408297.812 5   -734465.09821
  22117056.489     -452468.835 5    -58708.24821
  20421160.6074   -2186908.84546  -1676762.72362
  19008110.685   -24310381.310 8 -18851488.35524
  19820618.552   -21313857.301 7 -16388211.53522
 91  4  2  0  0 44.9930000  0  5G15G13G19G 2G 6
  22200813.0054   -1448272.39645   -765614.07261
  22102722.857     -527782.104 5   -117393.53321
  20424062.1534   -2171640.22946  -1664865.13162
  19004356.982   -24330108.942 8 -18866860.51824
  19812234.630   -21357912.026 7 -16422539.84222
 91  4  2  0  0 59.9930000  0  5G15G13G19G 2G 6
  22193218.4424   -1488167.12645   -796700.75561
  22088396.8414    -603072.74345   -176061.21361
  20426984.3724   -2156309.24046  -1652918.94462
  19000612.192   -24349789.610 8 -18882196.08824
  19803854.294   -21401945.805 7 -16456851.82122
 91  4  2  0  1 14.9930000  0  5G15G13G19G 2G 6
  22185647.0524   -1527974.24145   -827719.21761
  22074073.153     -678333.330 5   -234705.44321
  20429910.7864   -2140908.56446  -1640918.45662
  18996877.177   -24369416.341 8 -18897489.62924
  19795480.513   -21445951.171 7 -16491141.66022
 91  4  2  0  1 29.9930000  0  5G15G13G19G 2G 6
  22178087.474    -1567692.205 5   -858668.22921
  22059762.153     -753562.236 5   -293324.95321
  20432856.1694   -2125437.25546  -1628862.92262
  18993152.372   -24388988.142 8 -18912740.37124
  19787112.575   -21489926.861 7 -16525408.37922
 91  4  2  0  1 44.9930000  0  5G15G13G19G 2G 6
  22170547.333    -1607319.324 5   -889546.42621
  22045450.474     -828757.888 5   -351918.56221
  20435812.9354   -2109894.15946  -1616751.44962
  18989439.474   -24408503.835 8 -18927947.38724
  19778750.146   -21533871.432 7 -16559650.84722
 91  4  2  0  1 59.9930000  0  5G15G13G19G 2G 6
  22163025.6144   -1646859.77845   -920357.10961
  22031142.067     -903924.175 5   -410489.28321
  20438787.6614   -2094283.34146  -1604587.21062
  18985735.146   -24427967.563 8 -18943113.91324
  19770393.583   -21577788.687 7 -16593872.03422
 91  4  2  0  2 14.9930000  0  5G15G13G19G 2G 6
  22155519.138    -1686304.874 5   -951093.47921
  22016847.0444    -979052.36745   -469030.38861
  20441769.4354   -2078596.72346  -1592363.90362
  18982042.630   -24447371.165 8 -18958233.58624
  19762042.638   -21621670.417 7 -16628065.53422
 91  4  2  0  2 29.9930000  0  5G15G13G19G 2G 6
  22148027.841    -1725658.257 5   -981758.38221
  22002557.403    -1054145.962 5   -527544.47221
  20444766.2714   -2062838.11546  -1580084.50362
  18978360.802   -24466718.779 8 -18973309.63224
  19753697.9894  -21665520.30647 -16662234.22362
 91  4  2  0  2 44.9930000  0  5G15G13G19G 2G 6
  22140558.466    -1764915.882 5  -1012348.65921
  21988274.958    -1129201.050 5   -586028.59721
  20447780.583    -2047004.018 6  -1567746.28422
  18974691.8334  -24486006.64148 -18988339.12364
  19745360.833   -21709334.285 7 -16696374.93522
 91  4  2  0  2 59.9930000  0  5G15G13G19G 2G 6
  22133106.067    -1804079.748 5  -1042865.93021
  21973998.802    -1204219.334 5   -644484.00021
  20450808.3174   -2031096.54746  -1555350.88462
  18971029.591   -24505237.187 8 -19003323.94924
  19737029.880   -21753114.514 7 -16730489.34122
 91  4  2  0  3 14.9930000  0  5G15G13G19G 2G 6
  22125668.6464   -1843149.40745  -1073309.75461
  21959731.5284   -1279200.20045   -702910.26261
  20453847.8884   -2015115.48046  -1542898.13662
  18967382.349   -24524410.285 8 -19018264.00624
  19728705.122   -21796860.443 7 -16764577.02622
 91  4  2  0  3 29.9930000  0  5G15G13G19G 2G 6
  22118253.747    -1882127.653 5  -1103682.34721
  21945468.716    -1354146.731 5   -761309.77521
  20456904.8884   -1999064.22246  -1530390.70462
  18963743.903   -24543529.357 8 -19033161.97124
  19720385.974   -21840575.459 7 -16798640.62522
 91  4  2  0  3 44.9930000  0  5G15G13G19G 2G 6
  22110854.317    -1921017.895 5  -1133986.36921
  21931211.4744   -1429062.15245   -819685.03561
  20459968.7634   -1982946.32046  -1517831.33262
  18960115.802   -24562597.982 8 -19048020.62324
  19712072.716   -21884262.875 7 -16832682.72122
 91  4  2  0  3 59.9930000  0  5G15G13G19G 2G 6
  22103470.8334   -1959811.73345  -1164215.28761
  21916960.458    -1503937.901 5   -878029.37121
  20463053.6224   -1966753.77746  -1505213.80062
  18956498.411   -24581608.228 8 -19062833.78724
  19703766.271   -21927914.419 7 -16866696.85622
 91  4  2  0  4 14.9930000  0  5G15G13G19G 2G 6
  22096101.896    -1998504.410 5  -1194365.34521
  21902719.1854   -1578769.26345   -936339.14161
  20466147.1614   -1950482.37246  -1492534.82462
  18952892.747   -24600555.931 8 -19077598.21624
  19695467.224   -21971525.503 7 -16900679.47022
 91  4  2  0  4 29.9930000  0  5G15G13G19G 2G 6
  22088763.810    -2037100.766 5  -1224440.36821
  21888487.458    -1653561.313 5   -994618.27421
  20469260.9824   -1934137.33046  -1479798.46162
  18949297.997   -24619446.320 8 -19092317.98424
  19687175.708   -22015101.229 7 -16934634.53422
 91  4  2  0  4 44.9930000  0  5G15G13G19G 2G 6
  22081436.8254   -2075606.78245  -1254445.01361
  21874260.224    -1728319.727 5  -1052871.23121
  20472382.1534   -1917724.88346  -1467009.58362
  18945712.864   -24638285.603 8 -19106997.93024
  19678888.208   -22058647.564 7 -16968566.69722
 91  4  2  0  4 59.9930000  0  5G15G13G19G 2G 6
  22074122.388    -2114020.546 5  -1284377.74521
  21860042.778    -1803042.672 5  -1111096.54421
  20475518.6144   -1901243.50846  -1454166.98861
  18942137.232   -24657072.473 8 -19121637.03724
  19670608.224   -22102162.693 7 -17002474.53822
 91  4  2  0  5 14.9930000  0  5G15G13G19G 2G 6
  22066833.0054   -2152338.98545  -1314236.21161
  21845825.825    -1877726.824 5  -1169291.58021
  20478667.9974   -1884690.25946  -1441268.39361
  18938573.122   -24675803.895 8 -19136232.93524
  19662333.036   -22145643.508 7 -17036355.64422
 91  4  2  0  5 29.9930000  0  5G15G13G19G 2G 6
  22059558.8334   -2190561.74945  -1344020.12961
  21831626.903    -1952371.826 5  -1227456.12721
  20481833.161    -1868065.347 6  -1428313.95721
  18935019.896   -24694480.018 8 -19150785.74424
  19654065.864   -22189089.931 7 -17070209.95222
 91  4  2  0  5 44.9930000  0  5G15G13G19G 2G 6
  22052305.1384   -2228686.86045  -1373727.94061
  21817430.3724   -2026975.68145  -1285588.62161
  20485007.2714   -1851367.21746  -1415302.46862
  18931476.513   -24713099.264 8 -19165294.23324
  19645806.341   -22232500.158 7 -17104036.05522
 91  4  2  0  5 59.9930000  0  5G15G13G19G 2G 6
  22045065.896    -2266713.571 5  -1403359.13321
  21803243.0284   -2101537.39245  -1343688.27761
  20488202.4824   -1834595.28446  -1402233.47461
  18927943.427   -24731661.414 8 -19179758.23424
  19637551.544   -22275873.418 7 -17137833.35322
 91  4  2  0  6 14.9930000  0  5G15G13G19G 2G 6
  22037850.091    -2304638.717 5  -1432911.10721
  21789060.075    -2176053.675 5  -1401752.55021
  20491407.130    -1817746.561 6  -1389104.63821
  18924423.505   -24750163.479 8 -19194175.40924
  19629304.075   -22319206.529 7 -17171599.36922
 91  4  2  0  6 29.9930000  0  5G15G13G19G 2G 6
  22030655.474    -2342462.754 5  -1462384.31021
  21774886.302    -2250524.922 5  -1459781.74721
  20494632.857    -1800821.867 5  -1375916.60921
  18920913.911   -24768606.226 8 -19208546.36624
  19621066.567   -22362500.125 7 -17205334.58922
 91  4  2  0  6 44.9930000  0  5G15G13G19G 2G 6
  22023473.7864   -2380192.65445  -1491784.21561
  21760722.4894   -2324958.10945  -1517781.26061
  20497861.482    -1783828.706 6  -1362675.23421
  18917414.153   -24786997.285 8 -19222877.04824
  19612834.153   -22405761.306 7 -17239044.55422
 91  4  2  0  6 59.9930000  0  5G15G13G19G 2G 6
  22016311.021    -2417816.269 5  -1521101.21821
  21746567.591    -2399341.275 5  -1575741.79621
  20501111.630    -1766755.423 6  -1349371.41721
  18913925.5284  -24805324.99748 -19237158.38364
  19604611.528   -22448978.221 7 -17272720.02522
 91  4  2  0  7 14.9930000  0  5G15G13G19G 2G 6
  22009175.8884   -2455340.44845  -1550340.77161
  21732424.2784   -2473681.52145  -1633668.85661
  20504370.8334   -1749609.11346  -1336010.69462
  18910448.692   -24823596.680 8 -19251396.03324
  19596394.036   -22492157.869 7 -17306366.46122
 91  4  2  0  7 29.9930000  0  5G15G13G19G 2G 6
  22002054.3334   -2492764.64445  -1579502.44361
  21718284.7554   -2547978.23545  -1691562.05061
  20507653.013    -1732389.829 6  -1322593.11921
  18906982.935   -24841812.151 8 -19265589.89124
  19588183.497   -22535299.871 7 -17339983.55422
 91  4  2  0  7 44.9930000  0  5G15G13G19G 2G 6
  21994950.458    -2530093.764 5  -1608590.00521
  21704152.661    -2622235.828 5  -1749424.76521
  20510939.122    -1715102.571 6  -1309122.57221
  18903527.099   -24859976.658 8 -19279744.04124
  19579981.3644  -22578409.09247 -17373575.11462
 91  4  2  0  7 59.9930000  0  5G15G13G19G 2G 6
  21987864.146    -2567327.046 5  -1637602.91021
  21690027.3174   -2696453.63445  -1807256.48761
  20514243.239    -1697746.839 6  -1295598.66922
  18900079.513   -24878089.662 8 -19293858.05124
  19571783.661   -22621484.793 7 -17407140.55122
 91  4  2  0  8 14.9930000  0  5G15G13G19G 2G 6
  21980794.0994   -2604465.72345  -1666542.07661
  21675914.6144   -2770632.64445  -1865057.95661
  20517557.317    -1680324.100 6  -1282022.55422
  18896642.130   -24896152.868 8 -19307933.26324
  19563592.310   -22664528.169 7 -17440680.79722
 91  4  2  0  8 29.9930000  0  5G15G13G19G 2G 6
  21973745.911    -2641504.827 5  -1695403.65421
  21661805.255    -2844768.019 5  -1922825.43121
  20520892.2084   -1662830.04646  -1268390.86561
  18893215.474   -24914161.902 8 -19321966.26324
  19555408.6694  -22707534.71147 -17474192.34762
 91  4  2  0  8 44.9930000  0  5G15G13G19G 2G 6
  21966717.771    -2678442.776 5  -1724186.40521
  21647708.802    -2918857.758 5  -1980557.36021
  20524228.771    -1645263.275 6  -1254702.52221
  18889798.997   -24932115.193 8 -19335955.82424
  19547233.208   -22750502.601 7 -17507673.77622
 91  4  2  0  8 59.9930000  0  5G15G13G19G 2G 6
  21959710.8574   -2715275.06345  -1752886.83561
  21633617.786    -2992897.518 5  -2038250.33621
  20527592.396    -1627619.710 5  -1240954.33921
  18886393.521   -24950008.886 8 -19349898.94524
  19539062.607   -22793427.738 7 -17541121.89422
 91  4  2  0  9 14.9930000  0  5G15G13G19G 2G 6
  21952718.0444   -2751999.10045  -1781502.92961
  21619541.5284   -3066884.82345  -2095902.42861
  20530959.169    -1609896.884 6  -1227144.39121
  18883000.755   -24967840.644 8 -19363793.80624
  19530903.630   -22836307.404 7 -17574534.57722
 91  4  2  0  9 29.9930000  0  5G15G13G19G 2G 6
  21945753.294    -2788618.869 5  -1810037.71221
  21605465.161    -3140823.399 5  -2153516.60021
  20534348.0054   -1592099.30746  -1213276.19361
  18879617.482   -24985614.924 8 -19377643.88224
  19522751.388   -22879145.751 7 -17607915.06322
 91  4  2  0  9 44.9930000  0  5G15G13G19G 2G 6
  21938800.5754   -2825136.93945  -1838493.31461
  21591408.575    -3214715.572 5  -2211094.56321
  20537745.903    -1574230.072 6  -1199352.15921
  18876246.302   -25003334.413 8 -19391451.26424
  19514607.232   -22921945.309 7 -17641265.31822
 91  4  2  0  9 59.9930000  0  5G15G13G19G 2G 6
  21931872.6144   -2861553.49445  -1866869.82561
  21577350.5604   -3288561.46845  -2268636.47861
  20541160.161    -1556289.398 6  -1185372.45921
  18872885.021   -25020999.443 8 -19405216.20724
  19506470.8574  -22964706.26547 -17674585.50462
 91  4  2  0 10 14.9930000  0  5G15G13G19G 2G 6
  21924964.1464   -2897866.43045  -1895165.56561
  21563308.8024   -3362359.14445  -2326140.84361
  20544588.364    -1538275.707 6  -1171335.86021
  18869533.497   -25038608.874 8 -19418937.83024
  19498339.599   -23007426.838 7 -17707874.21922
 91  4  2  0 10 29.9930000  0  5G15G13G19G 2G 6
  21918069.224    -2934075.624 5  -1923380.46421
  21549276.5524   -3436108.32245  -2383607.40961
  20548034.482    -1520189.184 6  -1157242.52021
  18866192.966   -25056162.825 8 -19432616.22224
  19490219.1924  -23050106.82747 -17741131.31262
 91  4  2  0 10 44.9930000  0  5G15G13G19G 2G 6
  21911202.302    -2970181.475 5  -1951514.85121
  21535247.9584   -3509809.59145  -2441036.64561
  20551485.747    -1502030.767 6  -1143093.14821
  18862863.427   -25073662.095 8 -19446252.00524
  19482104.122   -23092747.019 7 -17774357.39522
 91  4  2  0 10 59.9930000  0  5G15G13G19G 2G 6
  21904352.3254   -3006177.02145  -1979563.27561
  21521237.0754   -3583455.90045  -2498423.06561
  20554958.060    -1483793.683 6  -1128882.47721
  18859544.724   -25091099.955 8 -19459839.93324
  19473997.802   -23135340.393 7 -17807546.99022
 91  4  2  0 11 14.9930000  0  5G15G13G19G 2G 6
  21897520.8414   -3042077.71645  -2007537.78761
  21507229.661    -3657062.653 5  -2555778.65921
  20558439.224    -1465493.527 6  -1114622.66821
  18856235.091   -25108492.354 8 -19473392.43824
  19465900.2004  -23177902.43147 -17840712.17862
 91  4  2  0 11 29.9930000  0  5G15G13G19G 2G 6
  21890707.419    -3077877.144 5  -2035433.38321
  21493230.966    -3730622.853 5  -2613097.99021
  20561934.872    -1447124.364 5  -1100309.08821
  18852935.263   -25125833.320 8 -19486904.86524
  19457806.950   -23220426.835 7 -17873848.03122
 91  4  2  0 11 44.9930000  0  5G15G13G19G 2G 6
  21883915.560    -3113566.070 5  -2063242.92721
  21479240.4824   -3804127.58545  -2670374.10261
  20565444.388    -1428677.587 6  -1085935.02821
  18849647.3494  -25143114.06048 -19500370.36764
  19449724.146   -23262904.552 7 -17906947.50822
 91  4  2  0 11 59.9930000  0  5G15G13G19G 2G 6
  21877142.9744   -3149154.99045  -2090974.47961
  21465263.317    -3877587.370 5  -2727615.20121
  20568968.497    -1410163.929 6  -1071508.84921
  18846369.271   -25160345.287 8 -19513797.28424
  19441648.1224  -23305346.12547 -17940018.82362
 91  4  2  0 12 14.9930000  0  5G15G13G19G 2G 6
  21870388.3104   -3184643.80145  -2118628.06961
  21451297.458    -3951001.481 5  -2784820.66121
  20572502.396    -1391583.340 6  -1057030.51021
  18843097.7714  -25177527.08148 -19527185.68464
  19433579.294   -23347751.258 7 -17973061.73622
 91  4  2  0 12 29.9930000  0  5G15G13G19G 2G 6
  21863659.0524   -3220030.98445  -2146202.42961
  21437329.239    -4024368.754 5  -2841989.65621
  20576053.349    -1372934.662 6  -1042499.12921
  18839839.0214  -25194658.43248 -19540534.77964
  19425516.8254  -23390118.68447 -18006075.27262
 91  4  2  0 12 44.9930000  0  5G15G13G19G 2G 6
  21856939.5524   -3255314.73345  -2173696.23461
  21423378.4744   -4097687.24845  -2899120.64361
  20579615.067    -1354216.565 6  -1027913.64121
  18836588.114   -25211737.816 8 -19553843.37524
  19417461.5284  -23432446.61147 -18039058.03362
 91  4  2  0 12 59.9930000  0  5G15G13G19G 2G 6
  21850250.3884   -3290496.52045  -2201110.55361
  21409435.505    -4170958.416 5  -2956214.76921
  20583196.021    -1335430.706 5  -1013275.36521
  18833347.911   -25228767.146 8 -19567112.97024
  19409414.419   -23474736.620 7 -18072011.24623
 91  4  2  0 13 14.9930000  0  5G15G13G19G 2G 6
  21843571.3414   -3325577.88445  -2228446.65861
  21395502.1304   -4244183.62545  -3013273.08961
  20586774.802    -1316578.889 6   -998585.68521
  18830116.599   -25245748.251 8 -19580344.99024
  19401374.575   -23516990.149 7 -18104936.02722
 91  4  2  0 13 29.9930000  0  5G15G13G19G 2G 6
  21836914.200    -3360552.767 5  -2255699.74721
  21381579.3104   -4317356.56445  -3070290.62861
  20590384.747    -1297655.488 5   -983840.22921
  18826894.989   -25262675.357 8 -19593534.93124
  19393341.138   -23559201.271 7 -18137827.76522
 91  4  2  0 13 44.9930000  0  5G15G13G19G 2G 6
  21830277.474    -3395427.001 5  -2282874.43921
  21367661.841    -4390483.084 6  -3127272.04121
  20593991.802    -1278666.794 6   -969043.89621
  18823683.107   -25279554.828 8 -19606687.75324
  19385316.5214  -23601375.96547 -18170691.12162
 91  4  2  0 13 59.9930000  0  5G15G13G19G 2G 6
  21823664.302    -3430197.349 5  -2309968.13121
  21353753.0214   -4463559.88245  -3184214.72961
  20597618.005    -1259609.779 5   -954194.32321
  18820480.1854  -25296383.79748 -19619801.22364
  19377297.239   -23643511.084 7 -18203523.64122
 91  4  2  0 14 14.9930000  0  5G15G13G19G 2G 6
  21817062.2474   -3464866.38845  -2336982.92761
  21339860.271    -4536589.539 5  -3241120.64321
  20601256.794    -1240487.638 6   -939294.00921
  18817287.5914  -25313165.25848 -19632877.67764
  19369286.427   -23685609.436 7 -18236327.50823
 91  4  2  0 14 29.9930000  0  5G15G13G19G 2G 6
  21810490.3964   -3499431.95245  -2363917.10661
  21325973.880    -4609569.620 6  -3297987.94721
  20604911.333    -1221298.396 6   -924341.40421
  18814102.6144  -25329897.28648 -19645915.60964
  19361283.7004  -23727668.70247 -18269100.91863
 91  4  2  0 14 44.9930000  0  5G15G13G19G 2G 6
  21803932.317    -3533885.009 5  -2390763.59821
  21312089.677    -4682491.310 5  -3354809.77621
  20608575.1854   -1202033.44346   -909329.80761
  18810929.341   -25346571.469 8 -19658908.46824
  19353287.130   -23769679.969 7 -18301836.92523
 91  4  2  0 14 59.9930000  0  5G15G13G19G 2G 6
  21797398.2474   -3568232.25445  -2417527.61961
  21298229.169    -4755361.063 6  -3411591.09421
  20612254.778    -1182699.829 6   -894264.69821
  18807766.161   -25363194.629 8 -19671861.56424
  19345302.325   -23811649.988 7 -18334540.79022
 91  4  2  0 15 14.9930000  0  5G15G13G19G 2G 6
  21790879.794    -3602477.151 5  -2444211.94021
  21284369.247    -4828182.537 5  -3468334.82721
  20615945.442    -1163301.221 6   -879148.96221
  18804612.2784  -25379770.73448 -19684778.00064
  19337321.599   -23853582.329 7 -18367215.29722
 91  4  2  0 15 29.9930000  0  5G15G13G19G 2G 6
  21784383.1144   -3636625.60045  -2470821.06761
  21270517.349    -4900961.048 5  -3525045.05621
  20619649.349    -1143843.851 5   -863987.42821
  18801466.317   -25396305.761 8 -19697662.42224
  19329349.0284  -23895482.77047 -18399864.94663
 91  4  2  0 15 44.9930000  0  5G15G13G19G 2G 6
  21777902.974    -3670661.668 5  -2497342.62821
  21256679.310    -4973680.681 5  -3581709.42921
  20623365.6694   -1124311.98846   -848767.85861
  18798330.036   -25412784.249 8 -19710502.79124
  19321383.2244  -23937335.48947 -18432477.41263
 91  4  2  0 15 59.9930000  0  5G15G13G19G 2G 6
  21771447.013    -3704593.134 5  -2523782.64321
  21242853.864    -5046349.163 5  -3638333.94321
  20627095.4354   -1104713.80345   -833496.60361
  18795203.825   -25429214.375 8 -19723305.47324
  19313427.286   -23979148.309 7 -18465058.78522
 91  4  2  0 16 14.9930000  0  5G15G13G19G 2G 6
  21765010.083    -3738426.952 5  -2550146.64521
  21229034.4974   -5118973.23946  -3694923.84761
  20630833.3334   -1085056.84446   -818179.55461
  18792085.075   -25445603.446 8 -19736076.16424
  19305477.005   -24020928.405 7 -18497614.66022
 91  4  2  0 16 29.9930000  0  5G15G13G19G 2G 6
  21758589.5054   -3772158.04045  -2576430.56361
  21215218.4894   -5191548.10445  -3751475.45361
  20634588.8964   -1065336.32445   -802812.97461
  18788973.739   -25461946.711 8 -19748811.16324
  19297534.013   -24062670.704 7 -18530141.08322
 91  4  2  0 16 44.9930000  0  5G15G13G19G 2G 6
  21752188.9114   -3805783.52545  -2602632.20161
  21201419.692    -5264070.801 5  -3807986.35121
  20638352.5834   -1045549.52046   -787394.73961
  18785874.192   -25478241.665 8 -19761508.51724
  19289597.942   -24104372.276 7 -18562635.77023
 91  4  2  0 16 59.9930000  0  5G15G13G19G 2G 6
  21745813.6224   -3839304.78845  -2628752.61761
  21187628.6304   -5336542.39145  -3864457.44761
  20642137.5834   -1025698.18045   -771926.21961
  18782781.349   -25494490.004 8 -19774169.54824
  19281669.216   -24146034.492 7 -18595099.79223
 91  4  2  0 17 14.9930000  0  5G15G13G19G 2G 6
  21739455.7634   -3872720.13345  -2654790.48961
  21173847.708    -5408961.277 6  -3920887.46821
  20645921.1534   -1005781.06045   -756406.44361
  18779699.692   -25510690.433 8 -19786793.24424
  19273747.716   -24187655.857 7 -18627531.98123
 91  4  2  0 17 29.9930000  0  5G15G13G19G 2G 6
  21733118.255    -3906027.136 5  -2680743.97021
  21160078.599    -5481325.038 5  -3977274.56221
  20649728.4114    -985796.19945   -740833.89061
  18776625.700   -25526841.120 8 -19799378.18324
  19265836.794   -24229234.191 7 -18659930.63723
 91  4  2  0 17 44.9930000  0  5G15G13G19G 2G 6
  21726795.8804   -3939230.19145  -2706616.44661
  21146315.4664   -5553637.84245  -4033621.97261
  20653537.7324    -965748.16146   -725212.10161
  18773561.607   -25542946.617 8 -19811927.90924
  19257932.122   -24270773.748 7 -18692299.07922
 91  4  2  0 17 59.9930000  0  5G15G13G19G 2G 6
  21720501.677    -3972313.277 5  -2732395.43421
  21132566.294    -5625883.255 6  -4089916.82521
  20657370.2784    -945620.93145   -709528.60861
  18770507.489   -25558990.946 8 -19824429.97124
  19250039.583   -24312258.371 7 -18724624.71223
 91  4  2  0 18 14.9930000  0  5G15G13G19G 2G 6
  21714223.0134   -4005288.16245  -2758090.10261
  21118830.7244   -5698073.27145  -4146168.52761
  20661211.536     -925426.924 5   -693793.06821
  18767464.185   -25574986.653 8 -19836894.14424
  19242152.708   -24353700.136 7 -18756916.95523
 91  4  2  0 18 29.9930000  0  5G15G13G19G 2G 6
  21707972.646    -4038161.364 5  -2783705.55221
  21105104.2554   -5770213.98346  -4202381.81361
  20665065.380     -905172.930 5   -678010.79321
  18764428.036   -25590940.242 8 -19849325.49624
  19234273.107   -24395105.257 7 -18789180.64423
 91  4  2  0 18 44.9930000  0  5G15G13G19G 2G 6
  21701734.1924   -4070921.52645  -2809232.90361
  21091384.841    -5842293.855 6  -4258547.70121
  20668931.872     -884847.726 5   -662173.02621
  18761402.247   -25606840.651 8 -19861715.40924
  19226402.185   -24436462.251 7 -18821406.82623
 91  4  2  0 18 59.9930000  0  5G15G13G19G 2G 6
  21695526.6464   -4103573.19045  -2834675.71561
  21077683.044    -5914317.895 6  -4314670.08521
  20672817.9664    -864456.58845   -646283.88561
  18758386.278   -25622692.953 8 -19874067.83824
  19218541.075   -24477776.109 7 -18853599.39923
 91  4  2  0 19 14.9930000  0  5G15G13G19G 2G 6
  21689330.583    -4136125.227 5  -2860040.89421
  21063985.6224   -5986294.65646  -4370755.60961
  20676705.622     -844008.559 5   -630350.40921
  18755376.2944  -25638506.20148 -19886389.84264
  19210686.372   -24519055.650 7 -18885765.23123
 91  4  2  0 19 29.9930000  0  5G15G13G19G 2G 6
  21683159.310    -4168562.146 5  -2885316.36421
  21050296.8254   -6058208.55746  -4426792.20561
  20680612.0134    -823488.33645   -614360.68161
  18752377.6464  -25654265.34048 -19898669.67864
  19202839.880   -24560285.363 7 -18917892.23723
 91  4  2  0 19 44.9930000  0  5G15G13G19G 2G 6
  21677005.7864   -4200883.53745  -2910501.85161
  21036626.1924   -6130059.01846  -4482779.33061
  20684528.6464    -802896.12845   -598314.86561
  18749389.669   -25669970.387 8 -19910907.36424
  19195004.0524  -24601465.03247 -18949980.24963
 91  4  2  0 19 59.9930000  0  5G15G13G19G 2G 6
  21670873.450    -4233094.080 5  -2935600.91921
  21022964.028    -6201850.554 6  -4538720.53821
  20688463.677     -782236.735 5   -582216.69921
  18746410.177   -25685626.217 8 -19923106.70024
  19187175.396   -24642599.185 7 -18982032.79623
 91  4  2  0 20 14.9930000  0  5G15G13G19G 2G 6
  21664769.060    -4265186.398 5  -2960607.86721
  21009314.1384   -6273576.09546  -4594610.32361
  20692407.6534    -761503.38246   -566060.90461
  18743441.646   -25701226.149 8 -19935262.48024
  19179358.8574  -24683680.87947 -19014044.46263
 91  4  2  0 20 29.9930000  0  5G15G13G19G 2G 6
  21658682.3644   -4297163.25245  -2985524.87461
  20995680.4824   -6345237.91846  -4650450.48261
  20696365.1384    -740698.99345   -549849.75261
  18740483.2554  -25716772.98748 -19947376.88964
  19171551.0754  -24724712.58947 -19046017.18563
 91  4  2  0 20 44.9930000  0  5G15G13G19G 2G 6
  21652617.9504   -4329028.04945  -3010354.55661
  20982054.6774   -6416839.55146  -4706243.74761
  20700336.5054    -719827.27546   -533586.14161
  18737533.5214  -25732270.65148 -19959452.97964
  19163751.388   -24765697.985 7 -19077953.81123
 91  4  2  0 20 59.9930000  0  5G15G13G19G 2G 6
  21646576.403    -4360787.686 5  -3035102.29021
  20968435.2864   -6488387.92546  -4761995.49461
  20704323.036     -698895.391 5   -517275.62521
  18734592.341   -25747726.282 8 -19971496.31724
  19155960.3964  -24806643.75047 -19109859.56463
 91  4  2  0 21 14.9930000  0  5G15G13G19G 2G 6
  21640553.7084   -4392433.74345  -3059761.53361
  20954833.0994   -6559873.84546  -4817698.58861
  20708316.544     -677894.969 5   -500911.73021
  18731661.3804  -25763131.46348 -19983500.34564
  19148177.302   -24847541.151 7 -19141727.62223
 91  4  2  0 21 29.9930000  0  5G15G13G19G 2G 6
  21634552.403    -4423974.011 5  -3084338.31321
  20941239.388    -6631305.536 6  -4873359.41521
  20712328.692     -656834.565 5   -484501.08921
  18728738.021   -25778494.682 8 -19995471.67224
  19140402.005   -24888398.330 7 -19173564.34623
 91  4  2  0 21 44.9930000  0  5G15G13G19G 2G 6
  21628573.974    -4455397.453 5  -3108824.06221
  20927662.302    -6702671.630 6  -4928969.11921
  20716343.9824    -635703.16645   -468035.12861
  18725824.185   -25793805.094 8 -20007401.84824
  19132637.3644  -24929204.23047 -19205361.11063
 91  4  2  0 21 59.9930000  0  5G15G13G19G 2G 6
  21622617.732    -4486709.561 5  -3133223.04721
  20914090.677    -6773977.687 6  -4984532.06421
  20720379.5524    -614506.99045   -451518.69361
  18722919.9424  -25809068.58648 -20019295.47064
  19124880.5214  -24969964.48347 -19237122.30963
 91  4  2  0 22 14.9930000  0  5G15G13G19G 2G 6
  21616675.442    -4517907.672 5  -3157533.25721
  20900531.575    -6845220.835 6  -5040045.98821
  20724425.966     -593243.451 5   -434949.75821
  18720024.7324  -25824282.82448 -20031150.71164
  19117132.958   -25010676.338 7 -19268845.78723
 91  4  2  0 22 29.9930000  0  5G15G13G19G 2G 6
  21610763.7004   -4548994.92645  -3181757.02961
  20886990.8644   -6916404.09246  -5095513.23061
  20728483.8884    -571916.03845   -418331.05661
  18717137.3174  -25839451.03648 -20042970.08564
  19109394.7004  -25051342.86447 -19300533.95363
 91  4  2  0 22 44.9930000  0  5G15G13G19G 2G 6
  21604868.560    -4579971.964 5  -3205894.96921
  20873452.2554   -6987528.14946  -5150934.33561
  20732553.6614    -550525.94645   -401663.52361
  18714260.1854  -25854574.37548 -20054754.49664
  19101664.825   -25091964.949 7 -19332187.48223
 91  4  2  0 22 59.9930000  0  5G15G13G19G 2G 6
  21598986.6774   -4610842.64645  -3229950.00561
  20859927.6774   -7058596.70946  -5206312.19861
  20736639.7004    -529077.23345   -384950.30961
  18711389.2244  -25869656.89748 -20066507.10164
  19093941.2944  -25132546.35347 -19363809.31863
 91  4  2  0 23 14.9930000  0  5G15G13G19G 2G 6
  21593139.3574   -4641600.89245  -3253917.42461
  20846419.3964   -7129603.18246  -5261641.68961
  20740729.5364    -507563.80745   -368186.66361
  18708528.997   -25884692.825 8 -20078223.39824
  19086229.1694  -25173080.81647 -19395394.57063
 91  4  2  0 23 29.9930000  0  5G15G13G19G 2G 6
  21587309.138    -4672239.496 5  -3277791.63121
  20832919.7324   -7200540.40946  -5316917.24061
  20744839.982     -485978.729 5   -351367.19121
  18705678.4664  -25899675.20648 -20089897.96964
  19078524.9504  -25213561.02947 -19426937.55663
 91  4  2  0 23 44.9930000  0  5G15G13G19G 2G 6
  21581498.489    -4702767.663 5  -3301579.77921
  20819431.7714   -7271417.56346  -5372145.96561
  20748954.5284    -464331.61645   -334499.37961
  18702834.6774  -25914613.59848 -20101538.26864
  19070830.2714  -25253996.34547 -19458445.55463
 91  4  2  0 23 59.9930000  0  5G15G13G19G 2G 6
  21575711.1464   -4733186.88845  -3325283.04561
  20805952.8644   -7342236.30946  -5427329.14561
  20753086.9974    -442624.63045   -317584.90561
  18699999.8024  -25929509.91348 -20113145.77564
  19063144.1384  -25294388.45047 -19489919.88063
 91  4  2  0 24 14.9930000  0  5G15G13G19G 2G 6
  21569945.3414   -4763496.04945  -3348900.53761
  20792488.2244   -7412995.18446  -5482465.70561
  20757230.864     -420856.814 5   -300623.04421
  18697174.1854  -25944363.42248 -20124719.92764
  19055465.5834  -25334736.13647 -19521359.59263
 91  4  2  0 24 29.9930000  0  5G15G13G19G 2G 6
  21564197.177    -4793695.786 5  -3372432.76221
  20779036.4974   -7483694.61646  -5537555.93661
  20761383.8494    -399029.13045   -283614.51361
  18694355.5834  -25959175.09748 -20136261.48264
  19047797.091   -25375040.020 7 -19552765.17523
 91  4  2  0 24 44.9930000  0  5G15G13G19G 2G 6
  21558473.388    -4823778.071 5  -3395873.48421
  20765595.513    -7554326.580 6  -5592593.62621
  20765551.9194    -377134.06445   -266553.49361
  18691546.5134  -25973937.34348 -20147764.52064
  19040136.6774  -25415292.32947 -19584130.56963
 91  4  2  0 24 59.9920000  0  5G15G13G19G 2G 6
  21552770.5784   -4853739.94645  -3419220.34861
  20752167.219    -7624885.350 6  -5647574.25221
  20769728.7584    -355172.33745   -249440.51061
  18688746.1414  -25988648.28948 -20159227.58364
  19032488.430   -25455489.252 7 -19615452.80623
 91  4  2  0 25 14.9920000  0  5G15G13G19G 2G 6
  21547088.0864   -4883583.78745  -3442475.26961
  20738753.227    -7695378.401 6  -5702503.65621
  20773922.3054    -333139.69745   -232272.29361
  18685956.2274  -26003308.52448 -20170651.13364
  19024849.344   -25495634.506 7 -19646734.78523
 91  4  2  0 25 29.9920000  0  5G15G13G19G 2G 6
  21541433.9774   -4913309.61345  -3465638.19661
  20725350.984    -7765803.050 6  -5757379.77621
  20778130.828     -311039.923 5   -215051.73221
  18683176.289   -26017919.444 8 -20182036.25324
  19017218.766   -25535727.414 7 -19677975.96823
 91  4  2  0 25 44.9920000  0  5G15G13G19G 2G 6
  21535798.852    -4942916.294 5  -3488708.31421
  20711963.7274   -7836158.25146  -5812201.78361
  20782343.5944    -288872.16445   -197778.22861
  18680405.774   -26032480.425 8 -20193382.46024
  19009599.9064  -25575767.01847 -19709175.62163
 91  4  2  0 25 59.9920000  0  5G15G13G19G 2G 6
  21530188.5314   -4972415.22145  -3511694.44961
  20698583.649    -7906455.275 6  -5866978.44421
  20786579.1954    -266648.29145   -180460.98061
  18677640.8914  -26047002.81648 -20204698.60064
  19001988.250   -25615764.480 7 -19740342.43123
 91  4  2  0 26 14.9920000  0  5G15G13G19G 2G 6
  21524599.3364   -5001792.87845  -3534586.09561
  20685220.852    -7976680.057 6  -5921698.82621
  20790816.3524    -244354.75945   -163089.46561
  18674888.2114  -26061473.27748 -20215974.27164
  18994387.1724  -25655706.02747 -19771465.67663
 91  4  2  0 26 29.9920000  0  5G15G13G19G 2G 6
  21519032.578    -5031041.634 5  -3557377.32721
  20671874.3364   -8046825.29146  -5976357.22861
  20795075.8914    -221984.41945   -145658.09461
  18672146.2194  -26075884.90948 -20227204.10564
  18986799.7744  -25695584.43847 -19802539.72463
 91  4  2  0 26 44.9920000  0  5G15G13G19G 2G 6
  21513485.6804   -5060162.99545  -3580069.26661
  20658538.555    -8116892.065 6  -6030954.48221
  20799345.031     -199539.004 5   -128168.23321
  18669414.7504  -26090239.30248 -20238389.33464
  18979222.0084  -25735400.93147 -19833565.52463
 91  4  2  0 26 59.9920000  0  5G15G13G19G 2G 6
  21507970.7894   -5089159.42845  -3602663.83661
  20645222.4844   -8186882.96046  -6085492.60561
  20803633.5244    -177021.55745   -110622.22961
  18666693.594   -26104539.252 8 -20249532.14124
  18971656.2424  -25775158.10247 -19864545.09663
 91  4  2  0 27 14.9920000  0  5G15G13G19G 2G 6
  21502479.000    -5118027.778 5  -3625158.63721
  20631917.8364   -8256794.53646  -6139968.94361
  20807927.524     -154428.940 5    -93017.65821
  18663982.7194  -26118781.83348 -20260630.24464
  18964102.1564  -25814852.70947 -19895475.92063
 91  4  2  0 27 29.9920000  0  5G15G13G19G 2G 6
  21497008.1254   -5146764.93345  -3647551.19761
  20618629.8444   -8326623.58346  -6194380.98461
  20812245.5554    -131758.42545    -75352.38661
  18661283.1724  -26132964.36248 -20271681.55464
  18956562.234   -25854481.701 7 -19926355.61123
 91  4  2  0 27 44.9920000  0  5G15G13G19G 2G 6
  21491564.227    -5175375.226 5  -3669844.91921
  20605356.141    -8396374.334 6  -6248731.98521
  20816570.594     -109014.970 5    -57630.27521
  18658596.070   -26147091.456 8 -20282689.67024
  18949032.375   -25894049.520 7 -19957187.63723
 91  4  2  0 27 59.9920000  0  5G15G13G19G 2G 6
  21486149.5314   -5203853.28145  -3692035.57861
  20592094.828    -8466041.087 6  -6303017.54721
  20820915.2504     -86193.09645    -39847.06461
  18655918.7894  -26161157.62548 -20293650.30664
  18941515.1494  -25933550.36347 -19987967.47663
 91  4  2  0 28 14.9920000  0  5G15G13G19G 2G 6
  21480750.258    -5232204.276 5  -3714127.23821
  20578852.9144   -8535628.93246  -6357241.61661
  20825271.5474     -63298.40645    -22007.10161
  18653252.7274  -26175168.68448 -20304568.00564
  18934009.2894  -25972989.53347 -20018699.25863
 91  4  2  0 28 29.9920000  0  5G15G13G19G 2G 6
  21475377.563    -5260433.324 5  -3736123.87521
  20565627.2274   -8605143.24146  -6411408.41061
  20829642.5634     -40336.46945     -4114.75061
  18650595.961   -26189130.243 8 -20315447.12524
  18926515.883   -26012372.281 7 -20049387.07223
 91  4  2  0 28 44.9920000  0  5G15G13G19G 2G 6
  21470031.2344   -5288531.91545  -3758018.85761
  20552416.0634   -8674575.07346  -6465510.91861
  20834026.055      -17298.978 5     13836.47421
  18647949.609   -26203033.792 8 -20326281.04924
  18919032.7274  -26051690.07247 -20080024.27563
 91  4  2  0 28 59.9920000  0  5G15G13G19G 2G 6
  21464709.149    -5316499.588 5  -3779811.84421
  20539218.6494   -8743923.96946  -6519548.82061
  20838423.6174       5814.01945     31846.53461
  18645315.641   -26216879.374 8 -20337069.80024
  18911564.3994  -26090942.48647 -20110610.53163
 91  4  2  0 29 14.9920000  0  5G15G13G19G 2G 6
  21459410.906    -5344332.729 5  -3801499.97821
  20526038.149    -8813185.858 6  -6573518.91721
  20842834.9774      29006.16345     49918.27361
  18642693.1564  -26230663.38348 -20347810.58064
  18904108.8594  -26130125.60547 -20141142.79463
 91  4  2  0 29 29.9920000  0  5G15G13G19G 2G 6
  21454139.711    -5372036.468 5  -3823087.27221
  20512875.008    -8882366.027 6  -6627425.32521
  20847267.5394      52271.96345     68047.40361
  18640079.664   -26244391.245 8 -20358507.60024
  18896663.6804  -26169244.56247 -20171625.06263
 91  4  2  0 29 44.9920000  0  5G15G13G19G 2G 6
  21448893.844    -5399611.085 5  -3844573.96821
  20499725.6254   -8951464.50846  -6681268.10461
  20851704.9534      75610.60345     86233.28861
  18637477.6334  -26258063.59848 -20369161.37064
  18889230.1334  -26208299.73747 -20202057.62763
 91  4  2  0 29 59.9920000  0  5G15G13G19G 2G 6
  21443671.8524   -5427058.50045  -3865961.53461
  20486589.0944   -9020483.31546  -6735048.80961
  20856162.766       99019.720 5    104474.08221
  18634886.9144  -26271682.85648 -20379773.76864
  18881811.7194  -26247293.01847 -20232441.96463
 91  4  2  0 30 14.9920000  0  5G15G13G19G 2G 6
  21438473.820    -5454375.705 5  -3887247.64121
  20473471.031    -9089419.038 6  -6788764.75721
  20860626.2584     122502.25845    122772.10261
  18632304.8674  -26285246.09448 -20390342.51364
  18874403.9064  -26286221.27147 -20262775.63463
 91  4  2  0 30 29.9920000  0  5G15G13G19G 2G 6
  21433301.2744   -5481564.96745  -3908434.07561
  20460369.969    -9158274.025 6  -6842417.79021
  20865111.0784     146055.78045    141125.42761
  18629734.7274  -26298755.84148 -20400869.57964
  18867007.9454  -26325086.70447 -20293060.35063
 91  4  2  0 30 44.9920000  0  5G15G13G19G 2G 6
  21428147.1174   -5508625.42045  -3929520.10861
  20447282.594    -9227047.310 6  -6896007.19821
  20869606.0394     169680.64945    159534.34561
  18627174.4534  -26312211.62248 -20411354.59364
  18859624.4614  -26363888.65447 -20323295.59963
 91  4  2  0 30 59.9920000  0  5G15G13G19G 2G 6
  21423023.656    -5535561.379 5  -3950509.14621
  20434207.5784   -9295742.90046  -6949536.04261
  20874116.2584     193372.37545    177995.36661
  18624623.156   -26325617.845 8 -20421800.98624
  18852251.2424  -26402631.11747 -20353484.49563
 91  4  2  0 31 14.9920000  0  5G15G13G19G 2G 6
  21417923.445    -5562366.511 5  -3971396.23521
  20421152.234    -9364354.245 6  -7002999.23121
  20878638.6254     217137.12645    196513.29461
  18622083.2584  -26338968.43848 -20432204.03564
  18844891.7194  -26441307.66747 -20383622.02863
 91  4  2  0 31 29.9920000  0  5G15G13G19G 2G 6
  21412848.7974   -5589037.21945  -3992178.59461
  20408111.727    -9432877.843 6  -7056394.07621
  20883176.2744     240977.98645    215090.51861
  18619553.1024  -26352260.06748 -20442561.14164
  18837544.8674  -26479914.81447 -20413705.48463
 91  4  2  0 31 44.9920000  0  5G15G13G19G 2G 6
  21407801.063    -5615580.611 5  -4012861.73621
  20395089.4844   -9501320.57846  -7109725.90261
  20887725.055      264887.716 5    233721.39821
  18617033.3444  -26365500.18648 -20452878.10764
  18830210.2114  -26518459.60247 -20443740.35063
 91  4  2  0 31 59.9920000  0  5G15G13G19G 2G 6
  21402771.5394   -5641987.49945  -4033438.53261
  20382081.4064   -9569673.19146  -7162987.50761
  20892289.7584     288874.90945    252412.66161
  18614525.7894  -26378680.10948 -20463148.16964
  18822888.7424  -26556933.03047 -20473719.60863
 91  4  2  0 32 14.9920000  0  5G15G13G19G 2G 6
  21397771.039    -5668265.587 5  -4053914.94821
  20369088.3834   -9637943.30446  -7216184.81461
  20896866.2504     312931.53145    271158.01261
  18612027.359   -26391807.689 8 -20473377.43824
  18815580.1094  -26595342.67747 -20503649.16763
 91  4  2  0 32 29.9920000  0  5G15G13G19G 2G 6
  21392795.6884   -5694409.08745  -4074286.47061
  20356114.008    -9706124.615 6  -7269312.95321
  20901456.6884     337063.19445    289961.83361
  18609541.4694  -26404877.27348 -20483561.51764
  18808284.5084  -26633682.50847 -20533524.32963
 91  4  2  0 32 44.9920000  0  5G15G13G19G 2G 6
  21387847.1254   -5720418.81845  -4094553.77761
  20343157.555    -9774217.940 6  -7322372.53221
  20906065.0244     361268.73745    308823.23461
  18607064.2194  -26417889.82048 -20493701.15464
  18801002.5084  -26671953.31447 -20563345.69763
 91  4  2  0 32 59.9920000  0  5G15G13G19G 2G 6
  21382920.688    -5746297.777 5  -4114719.19121
  20330214.828    -9842226.224 6  -7375365.80121
  20910688.203      385544.833 5    327739.58621
  18604598.4844  -26430848.69048 -20503798.96364
  18793731.2424  -26710157.99647 -20593115.54663
 91  4  2  0 33 14.9920000  0  5G15G13G19G 2G 6
  21378018.7584   -5772049.83945  -4134785.71661
  20317288.797    -9910153.115 6  -7428295.70721
  20915317.102      409887.465 5    346707.80221
  18602142.1414  -26443757.88748 -20513858.06964
  18786473.5784  -26748300.34847 -20622836.82663
 91  4  2  0 33 29.9920000  0  5G15G13G19G 2G 6
  21373145.1884   -5797669.21845  -4154748.83061
  20304381.445    -9977992.871 6  -7481157.68521
  20919966.8524     434302.03345    365732.06461
  18599694.922   -26456611.955 8 -20523874.21524
  18779227.8444  -26786374.71947 -20652505.13063
 91  4  2  0 33 44.9920000  0  5G15G13G19G 2G 6
  21368295.6094   -5823156.53745  -4174609.06861
  20291483.899   -10045746.088 6  -7533952.23621
  20924624.399      458787.605 5    384811.65321
  18597260.4924  -26469412.15248 -20533848.38464
  18771995.5474  -26824381.74547 -20682120.95963
 91  4  2  0 33 59.9920000  0  5G15G13G19G 2G 6
  21363468.680    -5848509.714 5  -4194364.77321
  20278610.922   -10113410.261 6  -7586677.41821
  20929298.570      483346.057 5    403948.03721
  18594835.9144  -26482156.22048 -20543778.81864
  18764776.1414  -26862319.04947 -20711682.45763
 91  4  2  0 34 14.9920000  0  5G15G13G19G 2G 6
  21358671.9384   -5873735.36645  -4214021.11261
  20265752.2194  -10180991.70246  -7639338.11761
  20933978.3444     507970.68945    423135.98361
  18592418.7814  -26494851.01748 -20553670.85964
  18757568.2894  -26900192.98547 -20741194.58363
 91  4  2  0 34 29.9920000  0  5G15G13G19G 2G 6
  21353898.914    -5898823.550 5  -4233570.31721
  20252908.0474  -10248480.47046  -7691926.60861
  20938683.984      532671.028 5    442382.91721
  18590013.274   -26507486.933 8 -20563517.01424
  18750375.3524  -26937993.81947 -20770649.74163
 91  4  2  0 34 44.9920000  0  5G15G13G19G 2G 6
  21349148.688    -5923777.045 5  -4253014.58421
  20240081.430   -10315879.421 6  -7744445.11721
  20943396.227      557443.860 5    461686.34821
  18587619.438   -26520067.056 8 -20573319.69624
  18743195.6724  -26975724.21847 -20800050.01563
 91  4  2  0 34 59.9920000  0  5G15G13G19G 2G 6
  21344426.883    -5948599.831 5  -4272356.99121
  20227271.8134  -10383192.52646  -7796896.73261
  20948125.4224     582284.77445    481042.82661
  18585236.1254  -26532595.55648 -20583082.15164
  18736028.6724  -27013388.26447 -20829398.58863
 91  4  2  0 35 14.9920000  0  5G15G13G19G 2G 6
  21339723.578    -5973293.995 5  -4291599.19421
  20214480.1804  -10450421.33546  -7849282.65961
  20952863.797      607191.590 5    500450.66021
  18582863.047   -26545074.539 8 -20592806.02024
  18728872.5314  -27050987.75047 -20858696.85063
 91  4  2  0 35 29.9920000  0  5G15G13G19G 2G 6
  21335048.133    -5997852.506 5  -4310735.67321
  20201703.8754  -10517558.68546  -7901597.32461
  20957620.0554     632170.76845    519914.86761
  18580497.891   -26557497.577 8 -20602486.29724
  18721731.8284  -27088515.83947 -20887939.47963
 91  4  2  0 35 44.9920000  0  5G15G13G19G 2G 6
  21330401.5394   -6022277.80745  -4329768.36761
  20188944.2114  -10584606.88346  -7953842.50961
  20962384.508      657219.681 5    539433.42021
  18578143.461   -26569867.299 8 -20612125.02924
  18714604.5474  -27125974.70447 -20917128.17363
 91  4  2  0 35 59.9920000  0  5G15G13G19G 2G 6
  21325781.5084   -6046568.72745  -4348696.35161
  20176201.1334  -10651564.74746  -8006017.33661
  20967162.328      682339.307 5    559007.09321
  18575800.789   -26582182.904 8 -20621721.59424
  18707488.8914  -27163363.27247 -20946262.08463
 91  4  2  0 36 14.9920000  0  5G15G13G19G 2G 6
  21321183.9454   -6070726.37045  -4367520.45661
  20163477.0784  -10718432.98746  -8058122.28761
  20971952.570      707528.595 5    578635.02821
  18573466.3594  -26594445.54048 -20631276.88464
  18700387.2584  -27200682.22847 -20975341.75763
 91  4  2  0 36 29.9920000  0  5G15G13G19G 2G 6
  21316612.852    -6094751.618 5  -4386241.41221
  20150770.2974  -10785212.37446  -8110158.04361
  20976763.289      732786.299 5    598316.26721
  18571142.8994  -26606656.16948 -20640791.64564
  18693298.7034  -27237932.45447 -21004367.87063
 91  4  2  0 36 44.9920000  0  5G15G13G19G 2G 6
  21312068.5164   -6118644.09845  -4404858.93161
  20138079.336   -10851902.553 6  -8162124.26821
  20981582.211      758112.351 5    618050.77721
  18568829.586   -26618814.702 8 -20650265.81524
  18686223.4144  -27275113.61047 -21033340.16663
 91  4  2  0 36 59.9920000  0  5G15G13G19G 2G 6
  21307544.945    -6142411.105 5  -4423378.65821
  20125405.0474  -10918510.43546  -8214026.34761
  20986415.227      783499.089 5    637832.57221
  18566524.406   -26630928.691 8 -20659705.27624
  18679158.7974  -27312232.79747 -21062264.17263
 91  4  2  0 37 14.9920000  0  5G15G13G19G 2G 6
  21303047.094    -6166040.050 5  -4441790.78521
  20112745.375   -10985023.686 6  -8265854.71421
  20991258.1804     808958.68145    657671.13561
  18564229.727   -26642986.000 8 -20669100.56724
  18672111.0164  -27349277.51947 -21091130.15163
 91  4  2  0 37 29.9920000  0  5G15G13G19G 2G 6
  21298576.063    -6189536.304 5  -4460099.53821
  20100105.7744  -11051447.37246  -8317613.29361
  20996119.649      834485.642 5    677562.19221
  18561945.7974  -26654992.16148 -20678456.00564
  18665074.5634  -27386252.92547 -21119942.12463
 91  4  2  0 37 44.9920000  0  5G15G13G19G 2G 6
  21294129.2584   -6212899.31645  -4478304.46561
  20087484.6094  -11117780.63646  -8369301.40661
  21000983.8674     860080.17845    697505.91961
  18559670.477   -26666946.654 8 -20687771.17924
  18658052.2344  -27423158.51047 -21148699.68563
 91  4  2  0 37 59.9920000  0  5G15G13G19G 2G 6
  21289706.7584   -6236132.01445  -4496407.85561
  20074878.1094  -11184026.23946  -8420921.20161
  21005870.258      885739.066 5    717499.77521
  18557404.5944  -26678852.71248 -20697048.61664
  18651041.1024  -27459997.01047 -21177404.97663
 91  4  2  0 38 14.9920000  0  5G15G13G19G 2G 6
  21285311.383    -6259232.733 5  -4514408.40121
  20062288.000   -11250182.522 6  -8472471.42021
  21010764.1954     911463.54845    737544.74161
  18555147.7504  -26690709.19248 -20706287.42164
  18644042.8914  -27496766.85347 -21206056.76863
 91  4  2  0 38 29.9920000  0  5G15G13G19G 2G 6
  21280944.8364   -6282198.23845  -4532303.59461
  20049715.9064  -11316246.01146  -8523949.32261
  21015675.930      937256.913 5    757643.39921
  18552902.039   -26702512.577 8 -20715484.84924
  18637060.3444  -27533464.50747 -21234652.30663
 91  4  2  0 38 44.9920000  0  5G15G13G19G 2G 6
  21276597.3054   -6305032.59445  -4550096.60361
  20037163.516   -11382220.465 6  -8575357.83521
  21020589.7814     963114.75845    777792.28261
  18550665.5944  -26714267.19948 -20724644.28564
  18630089.6334  -27570093.97347 -21263194.70963
 91  4  2  0 38 59.9920000  0  5G15G13G19G 2G 6
  21272274.500    -6327739.245 5  -4567790.08721
  20024621.922   -11448109.228 6  -8626699.61121
  21025528.7894     989033.14045    797988.34461
  18548436.336   -26725976.911 8 -20733768.72124
  18623132.3834  -27606658.70047 -21291686.67363
 91  4  2  0 39 14.9920000  0  5G15G13G19G 2G 6
  21267981.6094   -6350312.89145  -4585379.93461
  20012101.4614  -11513906.96146  -8677970.41461
  21030473.7344    1015017.04645    818235.45961
  18546218.6024  -26737636.91848 -20742854.43064
  18616187.1494  -27643153.36547 -21320124.04063
 91  4  2  0 39 29.9920000  0  5G15G13G19G 2G 6
  21263707.672    -6372752.761 5  -4602865.52821
  19999597.3054  -11579612.85046  -8729169.68361
  21035430.2584    1041067.08245    838534.10261
  18544008.758   -26749246.586 8 -20751900.91224
  18609256.7344  -27679577.07747 -21348506.12063
 91  4  2  0 39 44.9920000  0  5G15G13G19G 2G 6
  21259462.609    -6395058.180 5  -4620246.34921
  19987113.414   -11645225.856 6  -8780296.57421
  21040398.742     1067183.801 5    858884.70621
  18541809.2974  -26760805.12248 -20760907.55264
  18602338.6954  -27715928.91547 -21376832.19563
 91  4  2  0 39 59.9920000  0  5G15G13G19G 2G 6
  21255241.7664   -6417230.62145  -4637523.58761
  19974646.531   -11710747.179 6  -8831352.00821
  21045382.477     1093365.306 5    879285.79921
  18539619.672   -26772314.293 8 -20769875.72424
  18595433.9844  -27752210.23547 -21405103.32063
 91  4  2  0 40 14.9920000  0  5G15G13G19G 2G 6
  21251053.3994   -6439269.84545  -4654697.00561
  19962194.2894  -11776176.66546  -8882335.90061
  21050374.3284    1119611.48145    899737.28461
  18537438.7664  -26783774.12748 -20778805.45464
  18588543.9614  -27788420.84247 -21433319.34263
 91  4  2  0 40 29.9920000  0  5G15G13G19G 2G 6
  21246880.758    -6461175.673 5  -4671766.46021
  19949759.0944  -11841513.81346  -8933247.83561
  21055383.234     1145922.438 5    920239.24321
  18535268.1254  -26795184.57948 -20787696.70964
  18581666.5394  -27824560.26247 -21461479.90163
 91  4  2  0 40 44.9920000  0  5G15G13G19G 2G 6
  21242739.024    -6482949.392 5  -4688733.00321
  19937344.149   -11906759.911 6  -8984088.82521
  21060397.766     1172296.498 5    940790.38321
  18533105.0864  -26806547.32848 -20796550.78964
  18574802.2114  -27860629.82447 -21489586.02263
 91  4  2  0 40 59.9920000  0  5G15G13G19G 2G 6
  21238621.4454   -6504589.46345  -4705595.40061
  19924947.4924  -11971913.21846  -9034857.49861
  21065432.7584    1198734.93445    961391.66861
  18530951.7504  -26817860.79148 -20805366.47264
  18567952.6884  -27896627.95847 -21517636.48463
 91  4  2  0 41 14.9920000  0  5G15G13G19G 2G 6
  21234533.711    -6526094.866 5  -4722352.83121
  19912565.680   -12036972.284 6  -9085552.76621
  21070471.1644    1225238.31245    982043.57961
  18528808.5314  -26829124.28648 -20814143.21464
  18561116.3674  -27932553.41447 -21545630.31763
 91  4  2  0 41 29.9920000  0  5G15G13G19G 2G 6
  21230467.0164   -6547465.97446  -4739005.65661
  19900202.906   -12101937.713 6  -9136175.05521
  21075531.1414    1251806.22545   1002745.74861
  18526674.1804  -26840338.31748 -20822881.41664
  18554294.5004  -27968406.49347 -21573567.75363
 91  4  2  0 41 44.9920000  0  5G15G13G19G 2G 6
  21226422.664    -6568700.644 6  -4755552.12721
  19887859.0394  -12166807.14346  -9186722.53961
  21080598.094     1278440.397 5   1023499.57521
  18524550.8444  -26851501.07548 -20831579.66364
  18547485.4304  -28004184.91847 -21601447.01763
 91  4  2  0 41 59.9920000  0  5G15G13G19G 2G 6
  21222408.516    -6589800.395 5  -4771993.47121
  19875533.5164  -12231581.54246  -9237195.98061
  21085678.766     1305139.234 4   1044303.77221
  18522435.7034  -26862613.98448 -20840239.06864
  18540690.492   -28039890.037 7 -21629269.16123
 91  4  2  0 42 14.9920000  0  5G15G13G19G 2G 6
  21218417.9454   -6610771.03945  -4788334.21161
  19863224.7034  -12296266.70946  -9287599.87761
  21090767.8754    1331896.70845   1065153.66461
  18520329.3834  -26873683.46648 -20848864.63564
  18533910.0784  -28075527.54147 -21657038.61463
 91  4  2  0 42 29.9920000  0  5G15G13G19G 2G 6
  21214455.805    -6631608.053 5  -4804570.83021
  19850931.781   -12360858.192 6  -9337930.79821
  21095876.594     1358716.670 5   1086052.24321
  18518232.2114  -26884705.13148 -20857452.93864
  18527141.055   -28111093.062 7 -21684751.98423
 91  4  2  0 42 44.9920000  0  5G15G13G19G 2G 6
  21210515.461    -6652309.172 5  -4820701.54821
  19838660.0554  -12425353.35546  -9388186.64261
  21100990.5704    1385601.24645   1107001.17461
  18516144.1954  -26895676.81148 -20866002.29464
  18520386.1954  -28146584.05147 -21712407.27163
 91  4  2  0 42 59.9920000  0  5G15G13G19G 2G 6
  21206596.0164   -6672875.00645  -4836726.87161
  19826405.594   -12489752.659 6  -9438367.80421
  21106120.2974    1412549.79445   1127999.95261
  18514065.3594  -26906599.11448 -20874513.17764
  18513648.484   -28182000.920 7 -21740004.80523
 91  4  2  0 43 14.9920000  0  5G15G13G19G 2G 6
  21202711.2034   -6693312.19045  -4852651.93761
  19814163.6094  -12554062.35546  -9488479.13461
  21111257.4614    1439555.52445   1149043.28761
  18511995.0554  -26917478.70548 -20882990.77864
  18506919.961   -28217350.048 7 -21767549.55723
 91  4  2  0 43 29.9920000  0  5G15G13G19G 2G 6
  21198848.1094   -6713614.65945  -4868472.03961
  19801944.875   -12618276.658 6  -9538516.14821
  21116411.9924    1466623.88245   1170135.43461
  18509934.3834  -26928310.14048 -20891430.85464
  18500208.524   -28252625.537 7 -21795036.92323
 91  4  2  0 43 44.9920000  0  5G15G13G19G 2G 6
  21195005.9844   -6733781.06545  -4884186.13061
  19789742.3524  -12682393.80946  -9588477.44361
  21121570.5864    1493756.04945   1191277.28761
  18507882.1094  -26939092.25948 -20899832.50164
  18493510.0004  -28287825.78647 -21822465.66463
 91  4  2  0 43 59.9920000  0  5G15G13G19G 2G 6
  21191200.5634   -6753804.91845  -4899789.13861
  19777563.578   -12746407.071 6  -9638357.79821
  21126749.7744    1520958.23745   1212473.69861
  18505840.0864  -26949818.78148 -20908190.83164
  18486828.047   -28322944.226 7 -21849830.65723
 91  4  2  0 44 14.9920000  0  5G15G13G19G 2G 6
  21187416.453    -6773693.901 5  -4915287.03021
  19765399.094   -12810324.117 6  -9688163.18821
  21131934.9774    1548222.64945   1233718.60161
  18503809.0314  -26960497.48848 -20916511.89664
  18480158.203   -28357988.488 7 -21877137.85323
 91  4  2  0 44 29.9920000  0  5G15G13G19G 2G 6
  21183655.8524   -6793444.30645  -4930676.96061
  19753257.258   -12874141.038 6  -9737890.52621
  21137139.453     1575552.566 5   1255014.54021
  18501786.2424  -26971124.72748 -20924792.86164
  18473505.524   -28392954.581 7 -21904384.13523
 91  4  2  0 44 44.9920000  0  5G15G13G19G 2G 6
  21179924.141    -6813061.042 5  -4945962.72021
  19741131.9614  -12937862.53046  -9787543.53261
  21142350.399     1602942.966 5   1276357.61621
  18499773.3994  -26981705.74948 -20933037.80764
  18466864.281   -28427847.358 7 -21931573.29123
 91  4  2  0 44 59.9920000  0  5G15G13G19G 2G 6
  21176212.4614   -6832548.00545  -4961147.34961
  19729022.742   -13001492.254 6  -9837125.03421
  21147575.9924    1630389.36845   1297744.32261
  18497767.8134  -26992244.65748 -20941249.94464
  18460238.203   -28462670.774 7 -21958708.39723
 91  4  2  0 45 14.9920000  0  5G15G13G19G 2G 6
  21172532.7814   -6851900.10445  -4976226.89561
  19716932.2424  -13065024.98646  -9886630.94161
  21152805.1174    1657896.48745   1319178.35661
  18495771.1414  -27002736.49848 -20949425.39864
  18453625.133   -28497419.484 7 -21985785.29323
 91  4  2  0 45 29.9920000  0  5G15G13G19G 2G 6
  21168876.242    -6871114.142 5  -4991198.86621
  19704862.109   -13128457.090 6  -9936058.44921
  21158057.969     1685467.916 5   1340662.49721
  18493784.7344  -27013177.70048 -20957561.39964
  18447028.172   -28532089.825 7 -22012801.12623
 91  4  2  0 45 44.9920000  0  5G15G13G19G 2G 6
  21165241.9064   -6890194.92145  -5006066.99061
  19692809.938   -13191793.313 7  -9985411.24621
  21163311.383     1713098.223 5   1362192.52521
  18491806.1954  -27023573.75548 -20965662.21664
  18440445.031   -28566686.677 7 -22039759.68723
 91  4  2  0 45 59.9920000  0  5G15G13G19G 2G 6
  21161640.0704   -6909133.86245  -5020824.59761
  19680775.6094  -13255025.08146 -10034682.64061
  21168590.852     1740795.808 5   1383774.94821
  18489838.2424  -27033916.10748 -20973721.19164
  18433876.789   -28601201.350 7 -22066654.21823
 91  4  2  0 46 14.9920000  0  5G15G13G19G 2G 6
  21158062.289    -6927940.932 5  -5035479.44521
  19668762.805   -13318162.348 7 -10083880.40521
  21173865.0704    1768550.16145   1405401.63961
  18487879.0394  -27044215.07148 -20981746.35764
  18427321.719   -28635643.857 7 -22093492.51523
 91  4  2  0 46 29.9920000  0  5G15G13G19G 2G 6
  21154512.3054   -6946608.51345  -5050025.60661
  19656765.914   -13381196.856 6 -10132998.10121
  21179163.7114    1796368.91645   1427078.51261
  18485927.5164  -27054463.19548 -20989731.90864
  18420784.133   -28670006.122 7 -22120268.28723
 91  4  2  0 46 44.9920000  0  5G15G13G19G 2G 6
  21150983.649    -6965137.365 5  -5064463.66921
  19644790.672   -13444129.206 7 -10182036.18021
  21184466.8364    1824251.14345   1448804.81461
  18483987.7114  -27064661.39148 -20997678.55164
  18414259.195   -28704288.903 7 -22146982.11823
 91  4  2  0 46 59.9920000  0  5G15G13G19G 2G 6
  21147484.188    -6983529.805 5  -5078795.43721
  19632835.688   -13506961.767 7 -10230996.52021
  21189782.7584    1852194.13445   1470578.49661
  18482055.2194  -27074812.15948 -21005588.23764
  18407750.180   -28738494.401 7 -22173635.73623
 91  4  2  0 47 14.9920000  0  5G15G13G19G 2G 6
  21144011.727    -7001785.223 5  -5093020.40421
  19620896.281   -13569693.600 6 -10279878.35721
  21195111.883     1880198.376 5   1492399.89021
  18480132.6804  -27084914.83548 -21013460.44964
  18401257.320   -28772621.889 7 -22200228.56223
 91  4  2  0 47 29.9920000  0  5G15G13G19G 2G 6
  21140561.4224   -7019911.61845  -5107144.87561
  19608977.172   -13632332.966 7 -10328688.14321
  21200452.125     1908255.413 5   1514262.41621
  18478218.5314  -27094977.78948 -21021301.70964
  18394774.524   -28806679.226 7 -22226766.72823
 91  4  2  0 47 44.9920000  0  5G15G13G19G 2G 6
  21137137.5394   -7037899.42145  -5121161.34361
  19597077.125   -13694869.683 7 -10377417.95321
  21205801.3834    1936374.96345   1536173.65861
  18476312.8284  -27104991.30048 -21029104.44364
  18388309.633   -28840656.460 7 -22253242.47423
 91  4  2  0 47 59.9920000  0  5G15G13G19G 2G 6
  21133737.8594   -7055753.93545  -5135073.92961
  19585196.383   -13757308.851 7 -10426071.73921
  21211164.7114    1964551.34144   1558129.19061
  18474416.0244  -27114960.86448 -21036872.93364
  18381857.781   -28874558.781 7 -22279659.84623
 91  4  2  0 48 14.9920000  0  5G15G13G19G 2G 6
  21130368.9454   -7073470.71245  -5148879.20261
  19573331.9224  -13819645.77347 -10474645.85461
  21216538.992     1992788.672 4   1580132.20321
  18472528.1024  -27124882.25848 -21044603.88664
  18375422.188   -28908381.558 7 -22306015.23623
 91  4  2  0 48 29.9920000  0  5G15G13G19G 2G 6
  21127023.3134   -7091048.15245  -5162575.89561
  19561491.680   -13881878.971 7 -10523139.15821
  21221924.391     2021088.227 4   1602183.70621
  18470648.8594  -27134754.31048 -21052296.39264
  18369000.672   -28942123.308 7 -22332307.48723
 91  4  2  0 48 44.9920000  0  5G15G13G19G 2G 6
  21123706.203    -7108486.991 5  -5176164.58321
  19549668.156   -13944008.537 7 -10571551.70821
  21227318.8364    2049449.29645   1624283.14361
  18468779.7274  -27144577.58548 -21059950.88464
  18362595.883   -28975784.327 7 -22358536.83023
 91  4  2  0 48 59.9920000  0  5G15G13G19G 2G 6
  21120409.945    -7125788.625 5  -5189646.35221
  19537864.063   -14006036.013 7 -10619884.69221
  21232727.7114    2077869.73844   1646428.84461
  18466919.5634  -27154353.92548 -21067568.80964
  18356204.992   -29009366.029 7 -22384704.36623
 91  4  2  0 49 14.9920000  0  5G15G13G19G 2G 6
  21117140.7114   -7142952.03945  -5203020.43361
  19526080.633   -14067960.415 7 -10668137.37421
  21238146.625     2106350.326 5   1668621.40321
  18465068.5244  -27164082.40048 -21075149.43064
  18349830.281   -29042867.470 7 -22410809.36123
 91  4  2  0 49 29.9920000  0  5G15G13G19G 2G 6
  21113910.4304   -7159977.85145  -5216287.30661
  19514314.289   -14129781.997 7 -10716309.93421
  21243575.1414    2134890.41144   1690860.35461
  18463225.8204  -27173763.70148 -21082693.29864
  18343469.938   -29076288.936 7 -22436852.03823
 91  4  2  0 49 44.9920000  0  5G15G13G19G 2G 6
  21110694.570    -7176866.587 5  -5229447.32821
  19502568.492   -14191501.095 7 -10764402.63821
  21249021.102     2163489.392 4   1713145.17821
  18461391.7814  -27183398.44448 -21090200.88364
  18337124.641   -29109630.735 7 -22462832.63923
 91  4  2  0 49 59.9920000  0  5G15G13G19G 2G 6
  21107502.313    -7193620.286 5  -5242502.13521
  19490842.969   -14253119.127 7 -10812416.58121
  21254473.7744    2192145.01845   1735474.11861
  18459566.7664  -27192988.67548 -21097673.78464
  18330796.0554  -29142894.70647 -22488752.58763
 91  4  2  0 50 14.9920000  0  5G15G13G19G 2G 6
  21104343.609    -7210230.324 5  -5255445.01721
  19479139.7894  -14314627.42947 -10860345.03361
  21259937.6804    2220865.28945   1757853.44561
  18457753.1884  -27202526.14148 -21105105.56464
  18324481.344   -29176072.036 7 -22514605.02923
 91  4  2  0 50 29.9920000  0  5G15G13G19G 2G 6
  21101209.5244   -7226702.24745  -5268280.27361
  19467454.133   -14376031.689 7 -10908192.41221
  21265419.5314    2249644.67044   1780278.85261
  18455947.4534  -27212016.50848 -21112500.65264
  18318184.2894  -29209168.29647 -22540394.29463
 91  4  2  0 50 44.9920000  0  5G15G13G19G 2G 6
  21098103.500    -7243039.253 5  -5281010.38921
  19455789.5864  -14437334.87647 -10955961.02561
  21270902.555     2278479.727 4   1802747.62321
  18454148.1884  -27221462.93648 -21119861.49864
  18311900.266   -29242186.353 7 -22566122.62623
 91  4  2  0 50 59.9910000  0  5G15G13G19G 2G 6
  21095018.964    -7259238.083 5  -5293632.82921
  19444142.7614  -14498530.51647 -11003645.84361
  21276409.2064    2307370.32944   1825259.65761
  18452360.7614  -27230862.88148 -21127186.11964
  18305632.4484  -29275121.80347 -22591786.58363
 91  4  2  0 51 14.9910000  0  5G15G13G19G 2G 6
  21091962.5194   -7275295.83845  -5306145.36261
  19432517.1124  -14559621.28947 -11051248.95061
  21281907.6444    2336325.30244   1847821.88861
  18450580.8164  -27240212.61548 -21134471.61964
  18299381.3164  -29307973.57347 -22617385.33863
 91  4  2  0 51 29.9910000  0  5G15G13G19G 2G 6
  21088932.0814   -7291212.88845  -5318548.25261
  19420913.651   -14620604.606 7 -11098768.31821
  21287432.253     2365340.952 4   1870431.38321
  18448811.2064  -27249513.18148 -21141718.80364
  18293146.7224  -29340740.94147 -22642918.32263
 91  4  2  0 51 44.9910000  0  5G15G13G19G 2G 6
  21085930.8084   -7306994.30645  -5330845.47361
  19409328.2924  -14681485.47047 -11146207.86161
  21292960.1284    2394411.93144   1893083.97061
  18447049.6594  -27258769.86848 -21148931.79564
  18286925.9094  -29373428.84747 -22668389.39263
 91  4  2  0 51 59.9910000  0  5G15G13G19G 2G 6
  21082952.9874   -7322636.67245  -5343034.28761
  19397762.8944  -14742259.96547 -11193564.52061
  21298509.730     2423541.647 4   1915782.35521
  18445297.2694  -27267979.21148 -21156107.90164
  18280720.4804  -29406033.44747 -22693795.54263
 91  4  2  0 52 14.9910000  0  5G15G13G19G 2G 6
  21079997.3314   -7338142.03145  -5355116.39061
  19386218.2614  -14802930.03347 -11240839.80861
  21304055.761     2452727.572 4   1938524.52721
  18443553.659   -27277143.472 8 -21163248.86824
  18274532.0734  -29438556.89147 -22719138.46063
 91  4  2  0 52 29.9910000  0  5G15G13G19G 2G 6
  21077079.1594   -7353510.84545  -5367092.08061
  19374692.9174  -14863495.91247 -11288033.90761
  21309628.659     2481968.917 4   1961309.86921
  18441817.6514  -27286263.40448 -21170355.30264
  18268357.7844  -29470999.54147 -22744418.41863
 91  4  2  0 52 44.9910000  0  5G15G13G19G 2G 6
  21074184.1914   -7368740.03245  -5378958.98561
  19363187.753   -14923954.009 7 -11335144.02321
  21315196.901     2511269.164 4   1984141.13121
  18440091.870   -27295335.545 8 -21177424.48924
  18262200.8624  -29503357.56447 -22769632.43463
 91  4  2  0 52 59.9910000  0  5G15G13G19G 2G 6
  21071310.1284   -7383831.01045  -5390718.16861
  19351703.0974  -14984306.08047 -11382171.53161
  21320789.0894    2540626.07944   2007016.53061
  18438374.175   -27304361.769 8 -21184457.89924
  18256059.4334  -29535632.60247 -22794781.78863
 91  4  2  0 53 14.9910000  0  5G15G13G19G 2G 6
  21068462.3704   -7398781.28345  -5402367.72361
  19340240.4484  -15044549.12447 -11429114.07561
  21326384.519     2570042.043 4   2029937.95921
  18436665.1284  -27313339.59748 -21191453.59964
  18249934.4014  -29567821.90747 -22819864.33263
 91  4  2  0 53 29.9910000  0  5G15G13G19G 2G 6
  21065645.081    -7413594.466 5  -5413910.45621
  19328795.886   -15104686.631 7 -11475974.38821
  21331995.995     2599513.142 4   2052902.33221
  18434965.1594  -27322272.83248 -21198414.55064
  18243824.175   -29599929.142 7 -22844882.93023
 91  4  2  0 53 44.9910000  0  5G15G13G19G 2G 6
  21062851.714    -7428275.940 5  -5425350.53321
  19317370.917   -15164723.764 7 -11522756.48521
  21337610.0114    2629033.86144   2075905.36861
  18433272.8554  -27331166.82148 -21205344.92464
  18237728.714   -29631959.234 7 -22869841.41523
 91  4  2  0 53 59.9910000  0  5G15G13G19G 2G 6
  21060083.628    -7442815.566 5  -5436680.12221
  19305966.675   -15224650.200 7 -11569452.32921
  21343242.0344    2658614.20544   2098954.89761
  18431589.362   -27340011.664 8 -21212236.99524
  18231650.7534  -29663901.83047 -22894731.72563
 91  4  2  0 54 14.9910000  0  5G15G13G19G 2G 6
  21057342.730    -7457213.238 5  -5447899.05221
  19294584.7534  -15284465.38247 -11616061.47961
  21348878.9484    2688254.14744   2122050.82261
  18429916.1204  -27348807.19548 -21219090.64664
  18225589.355   -29695756.636 7 -22919553.62723
 91  4  2  0 54 29.9910000  0  5G15G13G19G 2G 6
  21054631.089    -7471475.388 5  -5459012.40921
  19283221.839   -15344175.736 7 -11662588.94421
  21354536.3004    2717946.91844   2145187.94361
  18428250.550   -27357560.042 8 -21225911.03524
  18219543.394   -29727529.885 7 -22944311.97623
 91  4  2  0 54 44.9910000  0  5G15G13G19G 2G 6
  21051941.487    -7485594.150 5  -5470014.02321
  19271880.386   -15403773.291 7 -11709028.51821
  21360190.870     2747700.090 4   2168372.12021
  18426594.6204  -27366262.51948 -21232692.17564
  18213513.597   -29759213.618 7 -22969000.57623
 91  4  2  0 54 59.9910000  0  5G15G13G19G 2G 6
  21049278.8704   -7499571.75245  -5480905.66361
  19260560.167   -15463260.018 7 -11755381.73421
  21365869.9174    2777511.18444   2191601.41561
  18424946.7454  -27374917.05948 -21239435.96264
  18207500.292   -29790809.965 7 -22993621.07723
 91  4  2  0 55 14.9910000  0  5G15G13G19G 2G 6
  21046646.737    -7513412.479 5  -5491690.63821
  19249261.964   -15522639.990 7 -11801651.76621
  21371547.206     2807375.808 4   2214872.43621
  18423308.7534  -27383527.79248 -21246145.61364
  18201503.472   -29822322.844 7 -23018176.54223
 91  4  2  0 55 29.9910000  0  5G15G13G19G 2G 6
  21044041.8864   -7527115.73945  -5502368.49261
  19237981.769   -15581912.375 7 -11847837.95821
  21377242.308     2837294.133 4   2238185.27621
  18421679.167   -27392094.418 8 -21252820.89324
  18195523.722   -29853751.644 7 -23042666.49123
 91  4  2  0 55 44.9910000  0  5G15G13G19G 2G 6
  21041464.2924   -7540680.15645  -5512938.17461
  19226723.167   -15641075.631 7 -11893939.12121
  21382947.3084    2867267.48044   2261541.02961
  18420056.8234  -27400615.70348 -21259460.84264
  18189558.167   -29885094.646 7 -23067089.58523
 91  4  2  0 55 59.9910000  0  5G15G13G19G 2G 6
  21038904.456    -7554102.048 5  -5523396.77321
  19215487.292   -15700126.129 7 -11939952.42521
  21388664.331     2897299.054 4   2284942.12221
  18418444.581   -27409088.225 8 -21266062.79624
  18183611.784   -29916348.334 7 -23091443.08423
 91  4  2  0 56 14.9910000  0  5G15G13G19G 2G 6
  21036376.526    -7567381.558 5  -5533744.44421
  19204270.105   -15759063.426 7 -11985877.51921
  21394387.480     2927388.887 4   2308388.63021
  18416842.6984  -27417511.78448 -21272626.59664
  18177682.050   -29947512.187 7 -23115726.58023
 91  4  2  0 56 29.9910000  0  5G15G13G19G 2G 6
  21033879.0584   -7580520.07045  -5543982.22661
  19193076.011   -15817888.572 7 -12031715.22621
  21400129.058     2957535.312 4   2331879.23221
  18415248.620   -27425887.936 8 -21279153.45724
  18171767.042   -29978587.424 7 -23139941.02523
 91  4  2  0 56 44.9910000  0  5G15G13G19G 2G 6
  21031403.839    -7593523.200 5  -5554114.52221
  19181903.097   -15876607.242 7 -12077469.95821
  21405869.6594    2987732.51344   2355409.37561
  18413662.4014  -27434222.45948 -21285647.88164
  18165870.870   -30009579.589 7 -23164090.74023
 91  4  2  0 56 59.9910000  0  5G15G13G19G 2G 6
  21028954.5664   -7606382.64245  -5564134.84961
  19170751.284   -15935211.075 7 -12123135.20521
  21411630.823     3017988.484 4   2378985.34421
  18412086.144   -27442507.146 8 -21292103.46824
  18159990.089   -30040480.208 7 -23188169.12223
 91  4  2  0 57 14.9910000  0  5G15G13G19G 2G 6
  21026536.7844   -7619099.63345  -5574044.18961
  19159621.2844  -15993701.13547 -12168711.80361
  21417396.7534    3048301.66744   2402605.88861
  18410518.5344  -27450743.46148 -21298521.36664
  18154126.534   -30071290.257 7 -23212176.92823
 91  4  2  0 57 29.9910000  0  5G15G13G19G 2G 6
  21024141.511    -7631681.320 5  -5583848.08121
  19148510.441   -16052083.959 7 -12214204.83721
  21423174.0664    3078664.95043   2426265.44161
  18408958.2224  -27458938.43948 -21304907.05264
  18148279.9874  -30102016.57047 -23236119.48563
 91  4  2  0 57 44.9910000  0  5G15G13G19G 2G 6
  21021777.8314   -7644122.63345  -5593542.61061
  19137422.237   -16110354.495 7 -12259610.37721
  21428964.800     3109083.036 4   2449967.73821
  18407408.1984  -27467087.09148 -21311256.63764
  18142450.011   -30132653.888 7 -23259992.69523
 91  4  2  0 57 59.9910000  0  5G15G13G19G 2G 6
  21019435.5194   -7656418.59245  -5603123.87361
  19126356.6594  -16168507.45647 -12304924.30261
  21434762.2694    3139560.65544   2473716.38761
  18405866.8944  -27475184.30548 -21317566.14964
  18136636.886   -30163196.933 7 -23283792.44523
 91  4  2  0 58 14.9910000  0  5G15G13G19G 2G 6
  21017119.8084   -7668576.48945  -5612597.54561
  19115310.980   -16226549.877 7 -12350152.09621
  21440573.4014    3170090.32144   2497505.63461
  18404333.8704  -27483237.83648 -21323841.61564
  18130842.191   -30193653.107 7 -23307524.50723
 91  4  2  0 58 29.9910000  0  5G15G13G19G 2G 6
  21014839.0344   -7680596.52845  -5621963.80361
  19104286.5894  -16284481.84747 -12395293.82061
  21446398.9014    3200671.69644   2521335.12361
  18402809.9174  -27491247.99948 -21330083.29364
  18125063.339   -30224022.237 7 -23331188.73723
 91  4  2  0 58 44.9910000  0  5G15G13G19G 2G 6
  21012574.620    -7692475.162 5  -5631219.86521
  19093284.3624  -16342299.58847 -12440346.53761
  21452223.6284    3231308.05943   2545207.51761
  18401295.2454  -27499211.19948 -21336288.37764
  18119300.558   -30254300.580 7 -23354782.23023
 91  4  2  0 58 59.9910000  0  5G15G13G19G 2G 6
  21010343.3234   -7704213.18745  -5640366.36361
  19082303.3234  -16400003.70847 -12485310.71661
  21458065.4484    3261998.26643   2569121.79861
  18399788.1124  -27507128.41348 -21342457.63164
  18113556.847   -30284488.910 7 -23378305.57723
 91  4  2  0 59 14.9910000  0  5G15G13G19G 2G 6
  21008130.1284   -7715813.69945  -5649405.72161
  19071342.7924  -16457597.06747 -12530188.59361
  21463912.1914    3292739.24644   2593075.66961
  18398289.7844  -27515002.63248 -21348593.37864
  18107827.066   -30314589.835 7 -23401760.82123
 91  4  2  0 59 29.9910000  0  5G15G13G19G 2G 6
  21005956.792    -7727276.983 5  -5658338.12021
  19060405.706   -16515079.708 7 -12574980.18921
  21469777.222     3323530.600 4   2617068.79621
  18396798.9414  -27522834.16448 -21354695.86664
  18102116.901   -30344603.220 7 -23425147.85023
 91  4  2  0 59 44.9910000  0  5G15G13G19G 2G 6
  21003796.0894   -7738598.30245  -5667159.93761
  19049489.4644  -16572446.66347 -12619681.64661
  21475640.4414    3354376.65743   2641104.59661
  18395317.9724  -27530618.38048 -21360761.48264
  18096422.487   -30374524.454 7 -23448463.07423
 91  4  2  0 59 59.9910000  0  5G15G13G19G 2G 6
  21001665.1364   -7749782.21845  -5675874.66461
  19038592.6284  -16629702.31547 -12664296.37361
  21481522.5894    3385272.73344   2665179.27361
  18393845.2614  -27538360.02448 -21366793.92864
  18090745.597   -30404357.885 7 -23471709.88024
 91  4  2  1  0 14.9910000  0  5G15G13G19G 2G 6
  20999566.4174   -7760823.99445  -5684478.63761
  19027719.4724  -16686841.87447 -12708820.63861
  21487406.964     3416223.365 3   2689296.57221
  18392381.1834  -27546054.49848 -21372789.61664
  18085087.519   -30434098.588 7 -23494884.42823
 91  4  2  1  0 29.9910000  0  5G15G13G19G 2G 6
  20997495.495    -7771721.435 5  -5692970.13021
  19016869.4014  -16743862.86247 -12753252.51561
  21493311.5344    3447230.55243   2713457.83661
  18390926.5814  -27553699.49348 -21378746.75064
  18079445.245   -30463744.096 7 -23517984.80223
 91  4  2  1  0 44.9910000  0  5G15G13G19G 2G 6
  20995449.2224   -7782480.99645  -5701354.20261
  19006040.1834  -16800771.28247 -12797596.67761
  21499219.753     3478287.650 4   2737658.05721
  18389479.8084  -27561301.48348 -21384670.37064
  18073820.831   -30493300.458 7 -23541015.70823
 91  4  2  1  0 59.9910000  0  5G15G13G19G 2G 6
  20993427.9094   -7793103.31145  -5709631.33361
  18995231.8704  -16857567.49747 -12841853.39961
  21505143.675     3509393.803 4   2761896.44921
  18388040.3234  -27568861.28248 -21390561.11764
  18068213.5504  -30522768.16147 -23563977.53263
 91  4  2  1  1 14.9910000  0  5G15G13G19G 2G 6
  20991434.8784   -7803583.12545  -5717797.41361
  18984445.7764  -16914245.95147 -12886018.36461
  21511071.776     3540554.286 4   2786177.21221
  18386611.6284  -27576373.62348 -21396414.88364
  18062624.526   -30552141.672 7 -23586865.95623
 91  4  2  1  1 29.9910000  0  5G15G13G19G 2G 6
  20989462.3394   -7813922.53845  -5725854.10161
  18973683.0894  -16970808.57347 -12930093.07561
  21517006.8164    3571766.72043   2810498.49561
  18385191.8864  -27583840.46748 -21402233.20064
  18057051.347   -30581422.864 7 -23609682.44523
 91  4  2  1  1 44.9910000  0  5G15G13G19G 2G 6
  20987524.7614   -7824122.37945  -5733802.01561
  18962940.3624  -17027256.32147 -12974078.26861
  21522959.9804    3603029.91543   2834859.24661
  18383777.9724  -27591262.89848 -21408016.90564
  18051496.480   -30610612.478 7 -23632427.57623
 91  4  2  1  1 59.9910000  0  5G15G13G19G 2G 6
  20985606.8944   -7834190.24945  -5741647.11261
  18952219.6834  -17083596.51747 -13017979.65661
  21528914.5974    3634336.11743   2859253.57961
  18382372.7064  -27598648.58148 -21413771.97464
  18045958.355   -30639717.739 7 -23655106.97423
 91  4  2  1  2 14.9910000  0  5G15G13G19G 2G 6
  20983718.0194   -7844116.08045  -5749381.51561
  18941520.1204  -17139818.80747 -13061789.17261
  21534883.7844    3665695.23644   2883689.10361
  18380975.4334  -27605987.44148 -21419490.56564
  18040437.675   -30668728.391 7 -23677712.65023
 91  4  2  1  2 29.9910000  0  5G15G13G19G 2G 6
  20981853.3164   -7853901.72645  -5757006.70161
  18930845.0424  -17195924.71747 -13105507.99461
  21540861.487     3697105.015 3   2908164.12221
  18379587.9874  -27613281.45148 -21425174.20364
  18034934.816   -30697646.208 7 -23700245.99223
 91  4  2  1  2 44.9910000  0  5G15G13G19G 2G 6
  20980024.2144   -7863542.84845  -5764519.25161
  18920190.2694  -17251909.71247 -13149132.60161
  21546847.214     3728569.892 4   2932682.06321
  18378208.5974  -27620526.30747 -21430819.53764
  18029450.855   -30726466.300 7 -23722703.18123
 91  4  2  1  2 59.9910000  0  5G15G13G19G 2G 6
  20978214.8084   -7873039.34745  -5771919.13261
  18909560.9954  -17307773.72847 -13192662.94061
  21552852.605     3760089.781 3   2957242.84721
  18376839.4644  -27627721.92347 -21436426.50464
  18023985.339   -30755188.579 7 -23745084.15423
 91  4  2  1  3 14.9910000  0  5G15G13G19G 2G 6
  20976438.597    -7882394.686 5  -5779208.98021
  18898951.4014  -17363519.81847 -13236101.38661
  21558853.761     3791660.856 3   2981843.57521
  18375478.9484  -27634871.75247 -21441997.79164
  18018537.316   -30783816.157 7 -23767391.33123
 91  4  2  1  3 29.9910000  0  5G15G13G19G 2G 6
  20974682.9564   -7891609.36345  -5786389.24261
  18888365.3084  -17419148.29547 -13279448.18461
  21564878.081     3823282.403 3   3006483.57621
  18374127.9874  -27641976.41948 -21447533.88464
  18013107.183   -30812349.491 7 -23789625.07323
 91  4  2  1  3 44.9910000  0  5G15G13G19G 2G 6
  20972953.198    -7900686.798 5  -5793462.55621
  18877802.1984  -17474662.38047 -13322705.84561
  21570898.9644    3854950.85744   3031160.13661
  18372784.7144  -27649039.49348 -21453037.56864
  18007695.605   -30840791.681 7 -23811787.79923
 91  4  2  1  3 59.9910000  0  5G15G13G19G 2G 6
  20971255.9874   -7909619.96745  -5800423.46161
  18867260.7064  -17530054.87147 -13365868.76661
  21576932.5814    3886673.08043   3055878.66661
  18371448.2924  -27656053.87348 -21458503.31064
  18002300.769   -30869135.326 7 -23833873.73323
 91  4  2  1  4 14.9910000  0  5G15G13G19G 2G 6
  20969584.401    -7918413.530 5  -5807275.58421
  18856741.7924  -17585330.02447 -13408940.23561
  21582983.0034    3918444.40344   3080635.35561
  18370121.3474  -27663024.27947 -21463934.78564
  17996925.792   -30897384.888 7 -23855886.35523
 91  4  2  1  4 29.9910000  0  5G15G13G19G 2G 6
  20967936.3164   -7927069.21145  -5814020.26261
  18846246.4414  -17640489.45847 -13451921.55861
  21589042.8394    3950262.83444   3105428.74361
  18368803.4484  -27669952.52347 -21469333.40764
  17991568.066   -30925541.962 7 -23877826.91123
 91  4  2  1  4 44.9910000  0  5G15G13G19G 2G 6
  20966313.816    -7935580.479 5  -5820652.41221
  18835772.3554  -17695526.16047 -13494807.24161
  21595099.370     3982134.691 3   3130263.88821
  18367494.6594  -27676831.95147 -21474693.99264
  17986228.526   -30953599.598 7 -23899689.98123
 91  4  2  1  4 59.9910000  0  5G15G13G19G 2G 6
  20964721.276    -7943954.383 5  -5827177.52921
  18825321.2454  -17750447.24347 -13537602.82361
  21601178.4724    4014052.73944   3155134.86861
  18366193.2694  -27683669.86347 -21480022.22664
  17980906.972   -30981564.923 7 -23921481.12423
 91  4  2  1  5 14.9910000  0  5G15G13G19G 2G 6
  20963154.3004   -7952183.91845  -5833590.14161
  18814894.4334  -17805245.47247 -13580302.67861
  21607262.6444    4046023.77544   3180047.26961
  18364900.4254  -27690459.05047 -21485312.49164
  17975604.542   -31009430.299 7 -23943194.38323
 91  4  2  1  5 29.9910000  0  5G15G13G19G 2G 6
  20961613.8004   -7960278.70845  -5839897.77661
  18804487.2614  -17859930.25847 -13622914.13861
  21613354.0424    4078038.04543   3204993.28361
  18363617.183   -27697209.120 7 -21490572.27424
  17970319.362   -31037205.206 7 -23964837.14723
 91  4  2  1  5 44.9910000  0  5G15G13G19G 2G 6
  20960096.9564   -7968232.32445  -5846095.38861
  18794103.3164  -17914494.67447 -13665431.79961
  21619451.2924    4110101.68543   3229977.80761
  18362341.1514  -27703913.65147 -21495796.57364
  17965051.956   -31064882.965 7 -23986404.20923
 91  4  2  1  5 59.9910000  0  5G15G13G19G 2G 6
  20958612.214    -7976039.328 5  -5852178.74921
  18783743.6444  -17968933.45147 -13707851.56061
  21625568.487     4142219.919 3   3255004.85721
  18361075.433   -27710567.463 7 -21500981.34824
  17959805.112   -31092458.017 7 -24007891.24223
 91  4  2  1  6 14.9910000  0  5G15G13G19G 2G 6
  20957157.1124   -7983710.67445  -5858156.41261
  18773407.2144  -18023257.25447 -13750181.73361
  21631684.378     4174381.799 3   3280065.92121
  18359815.8944  -27717181.30047 -21506134.97464
  17954574.300   -31119941.017 7 -24029306.54623
 91  4  2  1  6 29.9910000  0  5G15G13G19G 2G 6
  20955724.4874   -7991237.16245  -5864021.20861
  18763092.7144  -18077456.42447 -13792414.78761
  21637817.964     4206596.344 3   3305168.00521
  18358566.964   -27723746.166 7 -21511250.44224
  17949364.245   -31147322.331 7 -24050642.61323
 91  4  2  1  6 44.9910000  0  5G15G13G19G 2G 6
  20954316.3234   -7998622.08145  -5869775.66461
  18752802.3554  -18131533.93747 -13834553.04561
  21643957.269     4238860.121 3   3330308.39921
  18357327.284   -27730265.158 7 -21516330.16324
  17944171.120   -31174605.097 7 -24071901.89123
 91  4  2  1  6 59.9910000  0  4G15G13G 2G 6
  20952941.9874   -8005867.49445  -5875421.43761
  18742536.2454  -18185492.00947 -13876598.23161
  18356094.159   -27736740.544 7 -21521375.90624
  17938999.597   -31201791.316 7 -24093085.93624
 91  4  2  1  7 14.9910000  0  4G15G13G 2G 6
  20951587.4414   -8012973.29045  -5880958.42861
  18732288.6284  -18239330.11447 -13918549.93761
  18354871.019   -27743172.164 7 -21526387.54324
  17933843.191   -31228880.463 7 -24114194.34223
 91  4  2  1  7 29.9910000  0  4G15G13G 2G 6
  20950260.964    -8019935.492 5  -5886383.51321
  18722068.4644  -18293044.01747 -13960404.85761
  18353655.886   -27749556.045 7 -21531361.98324
  17928708.534   -31255868.277 7 -24135223.78123
 91  4  2  1  7 44.9910000  0  4G15G13G 2G 6
  20948968.6124   -8026761.99345  -5891702.86161
  18711869.0814  -18346641.34747 -14002168.94661
  18352448.105   -27755900.215 7 -21536305.47424
  17923589.964   -31282762.393 7 -24156180.21423
 91  4  2  1  7 59.9910000  0  4G15G13G 2G 6
  20947691.3084   -8033440.81745  -5896907.13061
  18701693.9644  -18400109.67847 -14043832.51762
  18351251.526   -27762192.415 7 -21541208.47524
  17918492.519   -31309550.311 7 -24177053.89623
 91  4  2  1  8 14.9910000  0  4G15G13G 2G 6
  20946442.1514   -8039981.81745  -5902004.01061
  18691542.667   -18453458.682 7 -14085403.09721
  18350062.456   -27768442.463 7 -21546078.62824
  17913413.698   -31336241.778 7 -24197852.42323
 91  4  2  1  8 29.9910000  0  4G15G13G 2G 6
  20945227.995    -8046377.103 5  -5906987.33521
  18681415.0424  -18506680.47647 -14126874.56062
  18348881.011   -27774642.705 7 -21550909.97524
  17908355.519   -31362828.781 7 -24218569.54323
 91  4  2  1  8 44.9910000  0  4G15G13G 2G 6
  20944037.948    -8052626.707 5
  18671310.9564  -18559774.94047 -14168246.80161
  18347711.167   -27780793.248 7
  17903315.151   -31389311.144 7 -24239205.12823
 91  4  2  1  8 59.9910000  0  4G15G13G 2G 6
  20942874.0814   -8058735.83345
  18661230.8704  -18612746.79947 -14209523.51361
  18346549.378   -27786898.960 7
  17898294.886   -31415693.491 7 -24259762.78023
 91  4  2  1  9 14.9910000  0  4G15G13G 2G 6
  20941741.1054   -8064703.71945  -5921267.80961
  18651174.183   -18665595.224 7 -14250704.03122
  18345397.386   -27792959.342 7 -21565182.63224
  17893292.675   -31441975.140 7 -24280241.96423
 91  4  2  1  9 29.9910000  0  4G15G13G 2G 6
  20940632.7064   -8070528.43945  -5925806.57561
  18641140.5584  -18718318.26947 -14291786.85762
  18344253.667   -27798972.714 7 -21569868.36224
  17888311.362   -31468153.999 7 -24300641.05423
 91  4  2  1  9 44.9910000  0  4G15G13G 2G 6
  20939549.9564   -8076213.22545  -5930236.26861
  18631131.183   -18770918.451 7 -14332773.93822
  18343115.448   -27804941.984 7 -21574519.72624
  17883349.714   -31494232.816 7 -24320962.18323
 91  4  2  1  9 59.9910000  0  4G15G13G 2G 6
  20938501.3554   -8081759.80445  -5934558.26261
  18621144.2844  -18823397.43347 -14373666.59062
  18341988.659   -27810868.680 7 -21579137.91524
  17878405.206   -31520212.879 7 -24341206.36723
 91  4  2  1 10 14.9910000  0  4G15G13G 2G 6
  20937467.8554   -8087163.52845  -5938768.97161
  18611181.9804  -18875750.04447 -14414460.76462
  18340869.347   -27816748.296 7 -21583719.41824
  17873480.503   -31546089.318 7 -24361369.80423
 91  4  2  1 10 29.9910000  0  4G15G13G 2G 6
  20936466.628    -8092428.264 5  -5942871.35221
  18601242.4414  -18927980.39747 -14455159.67562
  18339759.003   -27822584.902 7 -21588267.40924
  17868575.972   -31571866.004 7 -24381455.50823
 91  4  2  1 10 44.9910000  0  4G15G13G 2G 6
  20935492.386    -8097552.266 5  -5946864.07621
  18591327.1984  -18980086.55247 -14495761.80662
  18338656.0584  -27828376.58047 -21592780.39364
  17863689.417   -31597540.721 7 -24401461.75623
 91  4  2  1 10 59.9910000  0  4G15G13G 2G 6
  20934539.6984   -8102534.39745  -5950746.26761
  18581436.0974  -19032066.90147 -14536265.91262
  18337563.144   -27834122.148 7 -21597257.44524
  17858823.573   -31623111.947 7 -24421387.36523
 91  4  2  1 11 14.9910000  0  4G15G13G 2G 6
  20933624.628    -8107370.272 5  -5954514.47921
  18571569.7614  -19083916.94047 -14576668.47062
  18336478.175   -27839817.164 7 -21601695.10524
  17853978.269   -31648575.189 7 -24441228.83023
 91  4  2  1 11 29.9910000  0  4G15G13G 2G 6
  20932725.909    -8112066.606 5  -5958173.93321
  18561726.0344  -19135643.05847 -14616974.47762
  18335403.347   -27845468.182 7 -21606098.48024
  17849154.0264  -31673936.84547 -24460991.12964
 91  4  2  1 11 44.9910000  0  4G15G13G 2G 6
  20931864.511    -8116622.722 5  -5961724.16721
  18551906.6054  -19187244.42447 -14657183.27062
  18334337.566   -27851074.839 7 -21610467.28824
  17844346.511   -31699195.965 7 -24480673.53723
 91  4  2  1 11 59.9910000  0  4G15G13G 2G 6
  20931023.4954   -8121038.26745  -5965164.85261
  18542111.7614  -19238720.36447 -14697294.32762
  18333279.511   -27856636.660 7 -21614801.15924
  17839559.058   -31724351.922 7 -24500275.56023
 91  4  2  1 12 14.9910000  0  4G15G13G 2G 6
  20930213.5734   -8125310.63045  -5968493.96261
  18532340.4724  -19290067.97647 -14737305.38962
  18332229.081   -27862150.821 7 -21619097.89224
  17834792.1124  -31749401.87647 -24519794.97763
 91  4  2  1 12 29.9910000  0  4G15G13G 2G 6
  20929423.4094   -8129441.87145  -5971713.12061
  18522592.9334  -19341288.94847 -14777217.76662
  18331189.081   -27867619.417 7 -21623359.12324
  17830044.862   -31774347.469 7 -24539233.08023
 91  4  2  1 12 44.9910000  0  4G15G13G 2G 6
  20928666.5194   -8133432.65245  -5974822.80761
  18512869.6834  -19392383.84147 -14817031.90962
  18330157.136   -27873042.973 7 -21627585.25624
  17825316.378   -31799188.916 7 -24558590.03223
 91  4  2  1 12 59.9910000  0  4G15G13G 2G 6
  20927927.847    -8137289.333 5  -5977828.02021
  18503170.1054  -19443358.74847 -14856752.54662
  18329130.808   -27878427.741 7 -21631781.16424
  17820609.698   -31823932.220 7 -24577870.49924
 91  4  2  1 13 14.9910000  0  4G15G13G 2G 6
  20927224.3624   -8141002.83645  -5980721.67161
  18493493.4094  -19494204.56847 -14896372.60262
  18328116.612   -27883764.844 7 -21635939.93324
  17815921.206   -31848568.307 7 -24597067.42624
 91  4  2  1 13 29.9910000  0  4G15G13G 2G 6
  20926545.8234   -8144579.55145  -5983508.73461
  18483842.1444  -19544927.63047 -14935897.00162
  18327107.159   -27889060.876 7 -21640066.69524
  17811251.917   -31873103.508 7 -24616185.74223
 91  4  2  1 13 44.9910000  0  4G15G13G 2G 6
  20925890.6514   -8148017.06445  -5986187.32061
  18474212.6594  -19595524.96647 -14975323.42962
  18326109.753   -27894313.315 7 -21644159.49124
  17806602.9254  -31897535.13947 -24635223.35263
 91  4  2  1 13 59.9910000  0  4G15G13G 2G 6
  20925260.026    -8151310.841 5  -5988753.90721
  18464609.5504  -19645991.58447 -15014647.99662
  18325118.730   -27899517.458 7 -21648214.65224
  17801974.636   -31921858.065 7 -24654176.25423
 91  4  2  1 14 14.9910000  0  4G15G13G 2G 6
  20924659.6284   -8154462.49245  -5991209.75461
  18455030.9644  -19696329.14247 -15053872.00562
  18324138.026   -27904674.880 7 -21652233.41024
  17797366.284   -31946073.752 7 -24673045.59924
 91  4  2  1 14 29.9910000  0  4G15G13G 2G 6
  20924091.2064   -8157472.17045  -5993554.96161
  18445477.0894  -19746537.28547 -15092995.16862
  18323165.542   -27909785.404 7 -21656215.62224
  17792778.5194  -31970181.68347 -24691830.97364
 91  4  2  1 14 44.9910000  0  4G15G13G 2G 6
  20923539.6364   -8160343.14745  -5995792.08261
  18435944.9874  -19796619.23647 -15132019.99562
  18322201.386   -27914852.507 7 -21660163.99924
  17788211.198   -31994185.126 7 -24710534.93123
 91  4  2  1 14 59.9910000  0  4G15G13G 2G 6
  20923022.1514   -8163072.29845  -5997918.69561
  18426439.9484  -19846571.86947 -15170944.06462
  18321245.589   -27919873.235 7 -21664076.24124
  17783663.441   -32018080.846 7 -24729154.94724
 91  4  2  1 15 14.9910000  0  4G15G13G 2G 6
  20922529.362    -8165659.550 5  -5999934.72921
  18416958.9014  -19896394.43047 -15209766.77362
  18320299.3234  -27924847.02547 -21667951.90864
  17779137.183   -32041868.100 7 -24747690.44524
 91  4  2  1 15 29.9910000  0  4G15G13G 2G 6
  20922067.909    -8168103.883 5  -6001839.40621
  18407503.6674  -19946086.25147 -15248487.60862
  18319360.6754  -27929773.22947 -21671790.49864
  17774630.620   -32065546.157 7 -24766140.85423
 91  4  2  1 15 44.9910000  0  4G15G13G 2G 6
  20921629.386    -8170408.061 5  -6003634.87221
  18398071.4954  -19995649.33247 -15287108.12162
  18318432.011   -27934654.189 7 -21675593.82624
  17770145.987   -32089116.891 7 -24784507.64023
 91  4  2  1 15 59.9910000  0  4G15G13G 2G 6
  20921207.9174   -8172579.40845  -6005326.82361
  18388663.0734  -20045091.08347 -15325634.10062
  18317511.1594  -27939497.49147 -21679367.81864
  17765679.8314  -32112587.58447 -24802796.46663
 91  4  2  1 16 14.9910000  0  4G15G13G 2G 6
  20920826.019    -8174610.427 5  -6006909.46221
  18379278.7224  -20094403.74347 -15364059.48262
  18316598.026   -27944295.515 7 -21683106.52424
  17761234.019   -32135950.461 7 -24821001.28324
 91  4  2  1 16 29.9910000  0  4G15G13G 2G 6
  20920470.0114   -8176499.52945  -6008381.49161
  18369920.5584  -20143585.23347 -15402382.66062
  18315692.362   -27949046.514 7 -21686808.58424
  17756808.597   -32159203.564 7 -24839120.56224
 91  4  2  1 16 44.9910000  0  4G15G13G 2G 6
  20920138.214    -8178243.846 5  -6009740.71921
  18360586.1914  -20192632.48247 -15440601.22862
  18314799.183   -27953747.473 7 -21690471.65724
  17752405.870   -32182343.677 7 -24857151.79424
 91  4  2  1 16 59.9910000  0  4G15G13G 2G 6
  20919834.6984   -8179842.91045  -6010986.74061
  18351279.0114  -20241544.59247 -15478714.49962
  18313913.722   -27958397.537 7 -21694095.06924
  17748024.276   -32205369.718 7 -24875094.14123
 91  4  2  1 17 14.9910000  0  4G15G13G 2G 6
  20919555.5974   -8181299.10145  -6012121.43961
  18341997.1124  -20290323.97747 -15516724.34362
  18313038.089   -27962999.546 7 -21697681.03424
  17743662.409   -32228284.277 7 -24892949.61924
 91  4  2  1 17 29.9910000  0  4G15G13G 2G 6
  20919303.4564   -8182616.70745  -6013148.15561
  18332738.5504  -20338974.52547 -15554633.79762
  18312171.370   -27967557.548 7 -21701232.71024
  17739323.167   -32251091.202 7 -24910721.22424
 91  4  2  1 17 44.9910000  0  4G15G13G 2G 6
  20919078.4484   -8183792.95145  -6014064.71761
  18323505.5424  -20387493.26047 -15592440.54162
  18311313.433   -27972068.717 7 -21704747.89324
  17735003.886   -32273787.335 7 -24928406.49923
 91  4  2  1 17 59.9900000  0  4G15G13G 2G 6
  20918877.9674   -8184833.06745  -6014875.18361
  18314296.9514  -20435882.23347 -15630146.17262
  18310460.389   -27976538.102 7 -21708230.51824
  17730705.600   -32296376.279 7 -24946008.25223
 91  4  2  1 18 14.9900000  0  4G15G13G 2G 6
  20918715.3114   -8185732.93045  -6015576.38161
  18305113.2644  -20484143.04847 -15667751.93862
  18309619.459   -27980961.823 7 -21711677.55624
  17726428.772   -32318856.335 7 -24963525.15524
 91  4  2  1 18 29.9900000  0  4G15G13G 2G 6
  20918566.709    -8186495.709 5  -6016170.76521
  18295953.2324  -20532275.92747 -15705258.00862
  18308787.365   -27985343.014 7 -21715091.45424
  17722169.584   -32341229.021 7 -24980958.39223
 91  4  2  1 18 44.9900000  0  4G15G13G 2G 6
  20918448.8184   -8187110.97345  -6016650.19461
  18286820.4904  -20580270.16847 -15742656.05862
  18307962.732   -27989671.051 7 -21718463.93424
  17717935.451   -32363483.704 7 -24998299.68023
 91  4  2  1 18 59.9900000  0  4G15G13G 2G 6
  20918358.209    -8187586.878 5  -6017021.04121
  18277712.5614  -20628133.39547 -15779952.01262
  18307147.443   -27993953.993 7 -21721801.27324
  17713721.756   -32385628.211 7 -25015555.11623
 91  4  2  1 19 14.9900000  0  4G15G13G 2G 6
  20918289.545    -8187917.625 5  -6017278.77521
  18268630.8114  -20675859.74347 -15817141.30762
  18306342.506   -27998185.984 7 -21725098.91324
  17709529.0144  -32407656.42647 -25032719.93564
 91  4  2  1 19 29.9900000  0  4G15G13G 2G 6
  20918257.4754   -8188112.10345
  18259572.6864  -20723457.57547 -15854230.46462
  18305545.326   -28002375.771 7 -21728363.66424
  17705358.100   -32429576.844 7 -25049800.75523
 91  4  2  1 19 44.9900000  0  4G15G13G 2G 6
  20918248.8504   -8188166.07645
  18250541.5294  -20770922.60047 -15891216.12962
  18304756.693   -28006518.761 7 -21731591.94724
  17701208.701   -32451384.785 7 -25066793.93223
 91  4  2  1 19 59.9900000  0  4G15G13G 2G 6
  20918264.1784   -8188082.85345
  18241532.2724  -20818257.77247 -15928100.61462
  18303976.818   -28010618.443 7 -21734786.48424
  17697079.147   -32473083.417 7 -25083701.93223
 91  4  2  1 20 14.9900000  0  4G15G13G 2G 6
  20918304.0924   -8187857.72645
  18232552.2724  -20865458.40547 -15964880.26462
  18303205.506   -28014670.006 7 -21737943.52724
  17692971.467   -32494667.786 7 -25100520.89623
 91  4  2  1 20 29.9900000  0  4G15G13G 2G 6
  20918380.826    -8187491.335 5
  18223594.3184  -20912524.61247 -16001555.16662
  18302444.795   -28018673.896 7 -21741063.41924
  17688886.186   -32516138.152 7 -25117251.02623
 91  4  2  1 20 44.9900000  0  4G15G13G 2G 6
  20918472.1784   -8186984.62945  -6016551.78061
  18214663.7724  -20959456.94347 -16038125.74962
  18301691.084   -28022630.956 7 -21744146.81824
  17684822.1004  -32537495.03747 -25133892.72264
 91  4  2  1 20 59.9900000  0  4G15G13G 2G 6
  20918592.982    -8186337.595 5  -6016047.61421
  18205758.3974  -21006255.20247 -16074591.85862
  18300946.420   -28026541.254 7 -21747193.78224
  17680780.170   -32558737.961 7 -25150445.63024
 91  4  2  1 21 14.9900000  0  4G15G13G 2G 6
  20918747.0534   -8185550.06145  -6015433.96661
  18196877.1934  -21052919.38147 -16110953.48562
  18300210.850   -28030404.604 7 -21750204.16524
  17676758.498   -32579866.751 7 -25166909.59923
 91  4  2  1 21 29.9900000  0  4G15G13G 2G 6
  20918923.8264   -8184617.34045  -6014707.17261
  18188024.2094  -21099444.37947 -16147206.66662
  18299486.732   -28034216.104 7 -21753174.14424
  17672760.834   -32600876.288 7 -25183280.64123
 91  4  2  1 21 44.9900000  0  4G15G13G 2G 6
  20919127.6934   -8183543.61245  -6013870.50561
  18179197.6704  -21145834.14747 -16183354.47162
  18298771.186   -28037979.769 7 -21756106.84724
  17668784.178   -32621770.402 7 -25199561.74423
 91  4  2  1 21 59.9900000  0  4G15G13G 2G 6
  20919358.0374   -8182331.22345  -6012925.80261
  18170394.0534  -21192090.68547 -16219398.46062
  18298062.779   -28041697.855 7 -21759004.03924
  17664829.881   -32642551.087 7 -25215754.46223
 91  4  2  1 22 14.9900000  0  4G15G13G 2G 6
  20919614.1544   -8180979.97045  -6011872.87761
  18161618.2014  -21238213.67347 -16255338.38662
  18297363.201   -28045370.200 7 -21761865.58924
  17660897.404   -32663218.133 7 -25231858.63023
 91  4  2  1 22 29.9900000  0  4G15G13G 2G 6
  20919902.3734   -8179487.78945  -6010710.15761
  18152866.8814  -21284200.78547 -16291172.43562
  18296673.740   -28048994.456 7 -21764689.66124
  17656986.482   -32683768.909 7 -25247872.20223
 91  4  2  1 22 44.9900000  0  4G15G13G 2G 6
  20920207.975    -8177859.744 5  -6009441.56321
  18144141.4594  -21330056.80447 -16326904.32962
  18295992.592   -28052575.616 7 -21767480.15724
  17653097.748   -32704208.138 7 -25263798.84623
 91  4  2  1 22 59.9900000  0  4G15G13G 2G 6
  20920548.686    -8176088.621 5  -6008061.48121
  18135441.0224  -21375774.24347 -16362528.24362
  18295320.576   -28056106.511 7 -21770231.48424
  17649229.967   -32724528.442 7 -25279632.82823
 91  4  2  1 23 14.9900000  0  4G15G13G 2G 6
  20920909.553    -8174178.184 5  -6006572.84721
  18126767.6234  -21421356.54847 -16398046.86162
  18294658.006   -28059590.752 7 -21772946.45624
  17645386.373   -32744733.164 7 -25295376.74423
 91  4  2  1 23 29.9900000  0  4G15G13G 2G 6
  20921297.850    -8172130.919 5  -6004977.58821
  18118118.1704  -21466806.04547 -16433461.98962
  18294001.889   -28063030.609 7 -21775626.84324
  17641563.404   -32764824.375 7 -25311032.21223
 91  4  2  1 23 44.9900000  0  4G15G13G 2G 6
  20921714.7644   -8169945.47345  -6003274.66761
  18109494.7324  -21512120.93147 -16468772.22662
  18293355.623   -28066424.611 7 -21778271.49924
  17637761.225   -32784800.399 7 -25326597.92223
 91  4  2  1 23 59.9900000  0  4G15G13G 2G 6
  20922159.7794   -8167616.57345  -6001459.93461
  18100898.3574  -21557295.74847 -16503973.31762
  18292722.053   -28069767.227 7 -21780876.11324
  17633982.514   -32804655.510 7 -25342069.40923
 91  4  2  1 24 14.9900000  0  4G15G13G 2G 6
  20922628.8814   -8165149.93545  -5999537.89061
  18092327.4434  -21602336.18647 -16539069.70662
  18292093.334   -28073064.251 7 -21783445.20524
  17630225.881   -32824395.299 7 -25357451.04423
 91  4  2  1 24 29.9900000  0  4G15G13G 2G 6
  20923119.826    -8162549.777 5  -5997511.80321
  18083780.5144  -21647246.38847 -16574064.60462
  18291472.795   -28076319.877 7 -21785982.04124
  17626491.186   -32844023.793 7 -25372745.95123
 91  4  2  1 24 44.9900000  0  4G15G13G 2G 6
  20923640.1934   -8159808.35345  -5995375.63361
  18075261.0144  -21692017.94047 -16608951.46362
  18290863.998   -28079526.048 7 -21788480.34124
  17622778.178   -32863532.673 7 -25387947.65423
 91  4  2  1 24 59.9900000  0  4G15G13G 2G 6
  20924193.748    -8156926.952 5  -5993130.39721
  18066767.7874  -21736651.92547 -16643731.13262
  18290262.061   -28082684.025 7 -21790941.08524
  17619089.623   -32882923.035 7 -25403057.00623
 91  4  2  1 25 14.9900000  0  4G15G13G 2G 6
  20924767.5764   -8153909.81745  -5990779.39361
  18058299.4434  -21781152.14047 -16678406.56062
  18289671.115   -28085797.745 7 -21793367.34424
  17615420.779   -32902198.618 7 -25418076.91623
 91  4  2  1 25 29.9900000  0  4G15G13G 2G 6
  20925365.732    -8150758.862 5  -5988324.12221
  18049857.1074  -21825520.66847 -16712979.37562
  18289085.654   -28088869.386 7 -21795760.81324
  17611774.732   -32921361.240 7 -25433008.80523
 91  4  2  1 25 44.9900000  0  4G15G13G 2G 6
  20925994.8344   -8147468.63145  -5985760.33461
  18041439.600   -21869751.956 7 -16747445.25922
  18288510.451   -28091893.307 7 -21798117.09724
  17608149.647   -32940405.217 7 -25447848.24723
 91  4  2  1 25 59.9900000  0  4G15G13G 2G 6
  20926648.4044   -8144036.95145  -5983086.29161
  18033049.4984  -21913843.26347 -16781802.05962
  18287943.772   -28094867.081 7 -21800434.30624
  17604549.514   -32959327.820 7 -25462593.10723
 91  4  2  1 26 14.9900000  0  4G15G13G 2G 6
  20927330.7874   -8140466.55645  -5980304.17561
  18024684.1004  -21957796.95947 -16816051.63062
  18287387.022   -28097793.101 7 -21802714.30624
  17600972.139   -32978131.412 7 -25477245.23523
 91  4  2  1 26 29.9900000  0  4G15G13G 2G 6
  20928028.818    -8136759.726 5  -5977415.77421
  18016346.1864  -22001615.14047 -16850195.60862
  18286839.147   -28100673.675 7 -21804958.88924
  17597415.490   -32996817.842 7 -25491806.06823
 91  4  2  1 26 44.9900000  0  4G15G13G 2G 6
  20928759.8814   -8132919.47445  -5974423.36461
  18008032.9284  -22045300.58247 -16884236.15462
  18286300.381   -28103511.713 7 -21807170.32924
  17593880.8424  -33015389.92547 -25506277.79563
 91  4  2  1 26 59.9900000  0  4G15G13G 2G 6
  20929520.7404   -8128939.12645  -5971321.78761
  17999747.1154  -22088846.73747 -16918168.16062
  18285768.482   -28106300.649 7 -21809343.50924
  17590369.631   -33033841.011 7 -25520655.24223
 91  4  2  1 27 14.9900000  0  4G15G13G 2G 6
  20930302.5614   -8124821.00645  -5968112.87461
  17991486.9284  -22132255.52847 -16951993.13562
  18285246.514   -28109042.645 7 -21811480.10824
  17586881.717   -33052172.773 7 -25534939.71223
 91  4  2  1 27 29.9900000  0  4G15G13G 2G 6
  20931114.7644   -8120561.32445  -5964793.65261
  17983253.3114  -22175522.62647 -16985707.69562
  18284734.061   -28111733.558 7 -21813576.91124
  17583417.514   -33070380.879 7 -25549127.82223
 91  4  2  1 27 44.9900000  0  4G15G13G 2G 6
  20931947.365    -8116169.140 5  -5961371.19221
  17975043.9984  -22218657.24247 -17019319.02762
  18284230.170   -28114382.338 7 -21815640.87724
  17579973.959   -33088474.421 7 -25563226.66623
 91  4  2  1 27 59.9900000  0  4G15G13G 2G 6
  20932808.3264   -8111639.56345  -5957841.66061
  17966863.0294  -22261654.05547 -17052822.98162
  18283735.139   -28116983.896 7 -21817668.04724
  17576553.397   -33106448.052 7 -25577232.06723
 91  4  2  1 28 14.9900000  0  4G15G13G 2G 6
  20933700.8894   -8106967.87745  -5954201.38761
  17958708.4044  -22304508.04647 -17086215.64562
  18283250.631   -28119533.243 7 -21819654.53424
  17573157.764   -33124296.695 7 -25591140.07923
 91  4  2  1 28 29.9900000  0  4G15G13G 2G 6
  20934615.279    -8102160.664 5  -5950455.51321
  17950577.9904  -22347225.31547 -17119501.77262
  18282773.514   -28122036.927 7 -21821605.43924
  17569783.092   -33142026.503 7 -25604955.49323
 91  4  2  1 28 44.9900000  0  4G15G13G 2G 6
  20935554.7954   -8097221.88845  -5946607.13861
  17942474.842   -22389809.681 7 -17152684.33522
  18282304.701   -28124498.597 7 -21823523.60524
  17566430.654   -33159640.965 7 -25618681.02623
 91  4  2  1 28 59.9900000  0  4G15G13G 2G 6
  20936520.6234   -8092141.51445  -5942648.40261
  17934398.5844  -22432251.23147 -17185755.61862
  18281847.529   -28126908.547 7 -21825401.46824
  17563103.123   -33177130.053 7 -25632308.86323
 91  4  2  1 29 14.9900000  0  4G15G13G 2G 6
  20937510.3894   -8086923.99445  -5938582.79961
  17926349.295   -22474554.254 7 -17218718.95622
  18281397.037   -28129271.094 7 -21827242.39724
  17559798.029   -33194498.029 7 -25645842.32923
 91  4  2  1 29 29.9900000  0  4G15G13G 2G 6
  20938531.6004   -8081571.14745  -5934411.76061
  17918325.0684  -22516719.77947 -17251575.15462
  18280955.873   -28131587.241 7 -21829047.17224
  17556515.537   -33211745.773 7 -25659282.10923
 91  4  2  1 29 44.9900000  0  4G15G13G 2G 6
  20939580.2794   -8076079.66445  -5930132.67861
  17910328.1784  -22558744.74047 -17284321.82062
  18280526.092   -28133854.173 7 -21830813.59224
  17553256.373   -33228870.177 7 -25672625.77623
 91  4  2  1 29 59.9900000  0  4G15G13G 2G 6
  20940648.201    -8070452.979 5  -5925748.27021
  17902356.8894  -22600631.85447 -17316961.07462
  18280101.975   -28136074.815 7 -21832543.94924
  17550021.248   -33245873.935 7 -25685875.43423
 91  4  2  1 30 14.9900000  0  4G15G13G 2G 6
  20941740.0064   -8064685.44645  -5921254.09261
  17894413.8184  -22642375.46647 -17349488.50762
  18279689.529   -28138243.690 7 -21834233.96024
  17546809.654   -33262751.320 7 -25699026.61823
 91  4  2  1 30 29.9900000  0  4G15G13G 2G 6
  20942869.3734   -8058781.31145  -5916653.47361
  17886496.053   -22683979.448 7 -17381907.14222
  18279285.545   -28140364.465 7 -21835886.49724
  17543621.209   -33279506.061 7 -25712082.23823
 91  4  2  1 30 44.9900000  0  4G15G13G 2G 6
  20944017.732    -8052746.612 5  -5911951.12521
  17878605.1154  -22725449.58147 -17414221.47262
  18278889.584   -28142443.071 7 -21837506.17024
  17540455.365   -33296143.883 7 -25725046.75323
 91  4  2  1 30 59.9900000  0  4G15G13G 2G 6
  20945192.584    -8046570.541 5  -5907138.60121
  17870740.857   -22766775.095 7 -17446423.12022
  18278504.287   -28144468.810 7 -21839084.64524
  17537312.951   -33312653.838 7 -25737911.63023
 91  4  2  1 31 14.9900000  0  4G15G13G 2G 6
  20946393.7014   -8040264.30245  -5902224.67661
  17862902.889   -22807966.951 7 -17478520.61222
  18278126.147   -28146452.561 7 -21840630.41124
  17534193.193   -33329046.662 7 -25750685.23723
 91  4  2  1 31 29.9900000  0  4G15G13G 2G 6
  20947616.0534   -8033824.94345  -5897206.99761
  17855089.826   -22849021.837 7 -17510511.38222
  18277759.279   -28148391.326 7 -21842141.12324
  17531096.865   -33345318.962 7 -25763364.92723
 91  4  2  1 31 44.9900000  0  4G15G13G 2G 6
  20948871.6474   -8027249.87945  -5892083.58461
  17847303.2404  -22889936.98747 -17542393.25862
  18277398.725   -28150282.283 7 -21843614.57924
  17528023.834   -33361467.880 7 -25775948.47523
 91  4  2  1 31 59.9900000  0  4G15G13G 2G 6
  20950148.7254   -8020537.10345  -5886852.87961
  17839544.857   -22930710.236 7 -17574164.57022
  18277048.928   -28152123.247 7 -21845049.07824
  17524975.811   -33377491.134 7 -25788434.10223
 91  4  2  1 32 14.9900000  0  4G15G13G 2G 6
  20951447.4124   -8013693.22545  -5881519.98061
  17831812.522   -22971347.826 7 -17605830.16822
  18276706.014   -28153920.701 7 -21846449.67424
  17521948.264   -33393395.091 7 -25800826.77423
 91  4  2  1 32 29.9900000  0  4G15G13G 2G 6
  20952775.0064   -8006715.51045  -5876082.81361
  17824104.303   -23011846.568 7 -17637387.57922
  18276372.912   -28155671.721 7 -21847814.08124
  17518945.186   -33409176.539 7 -25813123.98523
 91  4  2  1 32 44.9900000  0  4G15G13G 2G 6
  20954130.4514   -7999599.28145  -5870537.73061
  17816425.522   -23052201.371 7 -17668832.83022
  18276050.897   -28157371.372 7 -21849138.47124
  17515966.186   -33424830.332 7 -25825321.72523
 91  4  2  1 32 59.9900000  0  4G15G13G 2G 6
  20955511.256    -7992348.539 5  -5864887.81721
  17808773.881   -23092416.192 7 -17700169.00122
  18275734.936   -28159023.644 7 -21850425.94324
  17513011.029   -33440360.165 7 -25837422.87123
 91  4  2  1 33 14.9900000  0  4G15G13G 2G 6
  20956921.537    -7984960.984 5  -5859131.28721
  17801148.232   -23132488.617 7 -17731394.21322
  18275430.772   -28160625.988 7 -21851674.50324
  17510080.897   -33455763.503 7 -25849425.45323
 91  4  2  1 33 29.9900000  0  4G15G13G 2G 6
  20958346.975    -7977440.681 5  -5853271.33021
  17793547.686   -23172422.489 7 -17762511.46622
  18275134.162   -28162182.456 7 -21852887.32024
  17507172.537   -33471044.004 7 -25861332.31623
 91  4  2  1 33 44.9900000  0  4G15G13G 2G 6
  20959805.8814   -7969789.96145  -5847309.73061
  17785975.100   -23212219.893 7 -17793522.37622
  18274845.545   -28163695.002 7 -21854065.90924
  17504287.397   -33486203.781 7 -25873145.10923
 91  4  2  1 33 59.9900000  0  4G15G13G 2G 6
  20961281.803    -7962007.859 5  -5841245.76121
  17778427.967   -23251879.770 7 -17824426.13022
  18274567.053   -28165162.444 7 -21855209.35223
  17501425.967   -33501241.408 7 -25884862.72323
 91  4  2  1 34 14.9900000  0  4G15G13G 2G 6
  20962793.1154   -7954090.11745  -5835076.09361
  17770908.475   -23291397.468 7 -17855219.09122
  18274296.647   -28166580.377 7 -21856314.22224
  17498588.670   -33516152.241 7 -25896481.53223
 91  4  2  1 34 29.9900000  0  4G15G13G 2G 6
  20964323.6234   -7946038.69445  -5828802.27561
  17763414.764   -23330774.626 7 -17885902.53722
  18274035.811   -28167950.423 7 -21857381.77523
  17495775.248   -33530937.816 7 -25908002.74223
 91  4  2  1 34 44.9900000  0  4G15G13G 2G 6
  20965881.5064   -7937855.12745  -5822425.47361
  17755947.654   -23370012.344 7 -17916477.32922
  18273784.131   -28169273.824 7 -21858412.97724
  17492985.053   -33545599.339 7 -25919427.28423
 91  4  2  1 34 59.9900000  0  4G15G13G 2G 6
  20967463.2174   -7929535.45145  -5815942.62561
  17748508.318   -23409106.844 7 -17946940.52422
  18273542.967   -28170546.766 7 -21859404.86424
  17490219.365   -33560132.621 7 -25930751.90023
 91  4  2  1 35 14.9900000  0  4G15G13G 2G 6
  20969069.2794   -7921081.21245  -5809354.91161
  17741096.428   -23448059.108 7 -17977292.88422
  18273309.764   -28171770.439 7 -21860358.35724
  17487477.943   -33574538.712 7 -25941977.41023
 91  4  2  1 35 29.9900000  0  4G15G13G 2G 6
  20970703.639    -7912487.968 5  -5802658.86921
  17733711.693   -23486864.626 7 -18007530.89722
  18273086.115   -28172940.439 7 -21861270.02923
  17484761.381   -33588813.106 7 -25953100.29323
 91  4  2  1 35 44.9900000  0  4G15G13G 2G 6
  20972366.553    -7903759.390 5  -5795857.38821
  17726354.178   -23525526.965 7 -18037657.33922
  18272873.506   -28174060.544 7 -21862142.81923
  17482069.193   -33602959.158 7 -25964123.17423
 91  4  2  1 35 59.9900000  0  4G15G13G 2G 6
  20974055.811    -7894896.852 5  -5788951.53121
  17719023.764   -23564047.127 7 -18067673.00122
  18272670.170   -28175131.410 7 -21862977.24424
  17479402.232   -33616977.557 7 -25975046.58523
 91  4  2  1 36 14.9900000  0  4G15G13G 2G 6
  20975766.2644   -7885902.69345  -5781943.12461
  17711721.107   -23602427.148 7 -18097579.45622
  18272475.522   -28176155.295 7 -21863775.06423
  17476758.240   -33630870.570 7 -25985872.29323
 91  4  2  1 36 29.9900000  0  4G15G13G 2G 6
  20977500.365    -7876780.210 5  -5774834.68221
  17704443.678   -23640670.023 7 -18127379.04622
  18272286.818   -28177135.239 7 -21864538.63423
  17474138.084   -33644640.851 7 -25996602.36823
 91  4  2  1 36 44.9900000  0  4G15G13G 2G 6
  20979262.1784   -7867525.39445  -5767623.15861
  17697192.975   -23678771.574 7 -18157068.51122
  18272110.264   -28178067.144 7 -21865264.78323
  17471541.967   -33658284.220 7 -26007233.54523
 91  4  2  1 36 59.9900000  0  4G15G13G 2G 6
  20981051.404    -7858135.407 5  -5760306.28721
  17689969.654   -23716728.583 7 -18186645.35222
  18271943.529   -28178947.664 7 -21865950.88923
  17468970.068   -33671797.415 7 -26017763.29523
 91  4  2  1 37 14.9900000  0  4G15G13G 2G 6
  20982862.865    -7848615.340 5  -5752888.06621
  17682773.022   -23754546.232 7 -18216113.59622
  18271785.732   -28179782.158 7 -21866601.13424
  17466422.022   -33685185.492 7 -26028195.54423
 91  4  2  1 37 29.9900000  0  4G15G13G 2G 6
  20984698.404    -7838968.062 5  -5745370.71321
  17675603.123   -23792226.839 7 -18245475.05622
  18271634.6704  -28180573.15747 -21867217.48164
  17463898.123   -33698450.625 7 -26038531.99723
 91  4  2  1 37 44.9900000  0  4G15G13G 2G 6
  20986559.2564   -7829186.90345  -5737749.06261
  17668459.522   -23829763.583 7 -18274724.41222
  18271494.240   -28181313.840 7 -21867794.62523
  17461398.857   -33711585.889 7 -26048767.25123
 91  4  2  1 37 59.9900000  0  4G15G13G 2G 6
  20988441.7014   -7819275.90745  -5730026.17661
  17661344.256   -23867160.057 7 -18303864.47022
  18271361.0144  -28182007.73747 -21868335.31663
  17458922.803   -33724594.751 7 -26058904.01123
 91  4  2  1 38 14.9900000  0  4G15G13G 2G 6
  20990360.412    -7809228.883 5  -5722197.35221
  17654255.037   -23904409.812 7 -18332890.20422
  18271241.0684  -28182648.45247 -21868834.56363
  17456473.193   -33737470.703 7 -26068937.20423
 91  4  2  1 38 29.9900000  0  4G15G13G 2G 6
  20992298.897    -7799047.504 5  -5714263.83621
  17647193.842   -23941514.654 7 -18361803.01222
  18271128.8654  -28183237.61947 -21869293.64363
  17454047.467   -33750215.262 7 -26078868.01423
 91  4  2  1 38 44.9900000  0  4G15G13G 2G 6
  20994254.725    -7788735.943 5  -5706228.85321
  17640160.264   -23978478.558 7 -18390606.00622
  18271025.904   -28183779.482 7 -21869715.86223
  17451646.982   -33762832.456 7 -26088699.58023
 91  4  2  1 38 59.9900000  0  4G15G13G 2G 6
  20996242.857    -7778297.361 5  -5698094.90721
  17633152.576   -24015304.376 7 -18419301.39522
  18270927.545   -28184276.876 7 -21870103.43223
  17449269.193   -33775324.970 7 -26098433.98823
 91  4  2  1 39 14.9900000  0  4G15G13G 2G 6
  20998256.022    -7767728.141 5  -5689859.14521
  17626171.967   -24051988.193 7 -18447886.13722
  18270843.6864  -28184725.79147 -21870453.22463
  17446916.881   -33787688.664 7 -26108068.02423
 91  4  2  1 39 29.9900000  0  4G15G13G 2G 6
  21000290.584    -7757030.031 5  -5681522.98021
  17619217.420   -24088531.656 7 -18476361.50922
  18270769.2174  -28185127.70547 -21870766.39363
  17444587.654   -33799925.038 7 -26117602.84123
 91  4  2  1 39 44.9900000  0  4G15G13G 2G 6
  21002348.2254   -7746197.51944  -5673082.04861
  17612291.834   -24124928.954 7 -18504722.98922
  18270700.7794  -28185477.05847 -21871038.60663
  17442285.842   -33812028.361 7 -26127033.98523
 91  4  2  1 39 59.9900000  0  4G15G13G 2G 6
  21004438.123    -7735233.687 5  -5664538.82421
  17605391.428   -24161182.532 7 -18532972.48122
  18270644.561   -28185776.501 7 -21871271.92823
  17440005.975   -33824000.936 7 -26136363.24923
 91  4  2  1 40 14.9900000  0  4G15G13G 2G 6
  21006547.693    -7724139.416 5  -5655893.92621
  17598521.092   -24197293.144 7 -18561110.56722
  18270594.920   -28186026.747 7 -21871466.91223
  17437752.576   -33835843.482 7 -26145591.18923
 91  4  2  1 40 29.9900000  0  4G15G13G 2G 6
  21008686.584    -7712923.782 5  -5647154.49321
  17591675.240   -24233269.826 7 -18589144.29522
  18270556.6154  -28186236.76147 -21871630.55063
  17435523.381   -33847564.899 7 -26154724.74823
 91  4  2  1 40 44.9900000  0  4G15G13G 2G 6
  21010839.5764   -7701579.97745  -5638315.15461
  17584855.420   -24269105.291 7 -18617067.98222
  18270523.4824  -28186399.51447
  17433316.928   -33859157.842 7 -26163758.19723
 91  4  2  1 40 59.9900000  0  4G15G13G 2G 6
  21013027.428    -7690101.519 5  -5629370.91621
  17578063.850   -24304793.079 7 -18644876.59722
  18270504.3344  -28186508.45747
  17431136.303   -33870615.595 7 -26172686.29823
 91  4  2  1 41 14.9900000  0  4G15G13G 2G 6
  21015236.1864   -7678492.85445  -5620325.18961
  17571300.186   -24340337.422 7 -18672573.43822
  18270492.4824  -28186567.42947
  17428981.232   -33881942.091 7 -26181512.12723
 91  4  2  1 41 29.9900000  0  4G15G13G 2G 6
  21017471.522    -7666753.650 5  -5611177.79821
  17564563.709   -24375737.707 7 -18700158.02522
  18270489.6474  -28186576.27847
  17426850.537   -33893136.906 7 -26190235.34723
 91  4  2  1 41 44.9900000  0  4G15G13G 2G 6
  21019728.678    -7654881.082 5  -5601926.40621
  17557855.443   -24410990.723 7 -18727627.85922
  18270501.8184  -28186531.52747
  17424746.373   -33904196.500 7 -26198853.20123
 91  4  2  1 41 59.9900000  0  4G15G13G 2G 6
  21022012.975    -7642878.859 5  -5592574.08421
  17551174.811   -24446100.066 7 -18754985.74122
  18270518.0534  -28186436.95547
  17422666.1934  -33915124.48347 -26207368.50063
 91  4  2  1 42 14.9900000  0  4G15G13G 2G 6
  21024320.139    -7630744.881 4  -5583118.99021
  17544521.701   -24481063.448 7 -18782229.88222
  18270547.662   -28186289.952 7
  17420611.459   -33925918.194 7 -26215779.17023
 91  4  2  1 42 29.9900000  0  4G15G13G 2G 6
  21026656.5684   -7618485.96044  -5573566.63861
  17537893.873   -24515887.415 7 -18809365.39522
  18270584.936   -28186097.309 7
  17418582.725   -33936584.326 7 -26224090.43223
 91  4  2  1 42 44.9900000  0  4G15G13G 2G 6
  21029013.787    -7606102.411 5  -5563917.11821
  17531293.912   -24550572.334 7 -18836392.55722
  18270627.764   -28185859.134 7 -21871336.19623
  17416576.7644  -33947122.82047 -26232302.22963
 91  4  2  1 42 59.9900000  0  4G15G13G 2G 6
  21031388.1154   -7593588.85143  -5554166.29761
  17524721.381   -24585112.252 7 -18863306.72622
  18270684.209   -28185569.853 7 -21871110.76823
  17414597.5144  -33957528.04947 -26240410.19063
 91  4  2  1 43 14.9900000  0  4G15G13G 2G 6
  21033799.998    -7580942.349 5  -5544311.94421
  17518175.623   -24619503.994 7 -18890105.44422
  18270747.568   -28185226.193 7 -21870842.96523
  17412643.029   -33967796.413 7 -26248411.50223
 91  4  2  1 43 29.9900000  0  3G13G 2G 6
  17511659.225   -24653751.715 7 -18916791.92822
  18270822.334   -28184832.397 7 -21870536.09823
  17410714.0294  -33977931.98247 -26256309.33563
 91  4  2  1 43 44.9900000  0  3G13G 2G 6
  17505168.764   -24687857.744 7 -18943368.00822
  18270908.803   -28184390.709 7 -21870191.91023
  17408811.037   -33987937.176 7 -26264105.57823
 91  4  2  1 43 59.9900000  0  3G13G 2G 6
  17498705.014   -24721823.524 7 -18969834.80322
  18270999.826   -28183902.484 7 -21869811.46123
  17406931.795   -33997813.111 7 -26271801.10123
 91  4  2  1 44 14.9900000  0  3G13G 2G 6
  17492269.045   -24755646.291 7 -18996190.15822
  18271102.857   -28183365.111 7 -21869392.71323
  17405075.787   -34007557.130 7 -26279393.83223
 91  4  2  1 44 29.9900000  0  3G13G 2G 6
  17485860.654   -24789323.773 7 -19022432.30322
  18271214.123   -28182776.235 7 -21868933.83623
  17403248.9204  -34017166.63647 -26286881.74663
 91  4  2  1 44 44.9900000  0  3G13G 2G 6
  17479479.303   -24822855.655 7 -19048560.99722
  18271336.092   -28182135.378 7 -21868434.44823
  17401444.6784  -34026641.13847 -26294264.46463
 91  4  2  1 44 59.9900000  0  3G13G 2G 6
  17473125.998   -24856243.922 7 -19074577.78422
  18271468.264   -28181444.540 7 -21867896.11523
  17399667.553   -34035982.418 7 -26301543.37123
 91  4  2  1 45 14.9900000  0  3G13G 2G 6
  17466799.295   -24889489.012 7 -19100483.00022
  18271611.795   -28180704.273 7 -21867319.26323
  17397915.326   -34045191.043 7 -26308718.91023
 91  4  2  1 45 29.9900000  0  3G13G 2G 6
  17460500.279   -24922593.585 7 -19126278.72922
  18271759.826   -28179917.315 7 -21866706.03023
  17396188.0534  -34054269.56647 -26315793.07563
 91  4  2  1 45 44.9890000  0  3G13G 2G 6
  17454227.571   -24955553.414 7 -19151961.67422
  18271918.470   -28179081.446 7 -21866054.68323
  17394484.540   -34063214.976 7 -26322763.51223
 91  4  2  1 45 59.9890000  0  3G13G 2G 6
  17447983.696   -24988367.090 7 -19177530.72522
  18272088.368   -28178190.709 7 -21865360.58223
  17392809.0954  -34072022.69847 -26329626.66163
 91  4  2  1 46 14.9890000  0  3G13G 2G 6
  17441766.868   -25021038.206 7 -19202988.69922
  18272266.907   -28177251.106 7 -21864628.40823
  17391158.7434  -34080697.80647 -26336386.47463
 91  4  2  1 46 29.9890000  0  3G13G 2G 6
  17435575.837   -25053567.785 7 -19228336.37722
  18272453.978   -28176263.536 7 -21863858.85523
  17389534.5874  -34089241.08547 -26343043.56663
 91  4  2  1 46 44.9890000  0  3G13G 2G 6
  17429413.462   -25085953.152 7 -19253571.68422
  18272651.204   -28175225.179 7 -21863049.73023
  17387933.071   -34097649.834 7 -26349595.82623
 91  4  2  1 46 59.9890000  0  3G13G 2G 6
  17423278.009   -25118193.562 7 -19278694.03522
  18272859.306   -28174135.495 7 -21862200.60623
  17386357.884   -34105923.303 7 -26356042.67523
 91  4  2  1 47 14.9890000  0  3G13G 2G 6
  17417170.978   -25150289.177 7 -19303703.56322
  18273076.314   -28172994.658 7 -21861311.62623
  17384809.8994  -34114061.49447 -26362384.11263
 91  4  2  1 47 29.9890000  0  3G13G 2G 6
  17411090.001   -25182240.186 7 -19328600.41522
  18273303.485   -28171802.613 7 -21860382.74623
  17383285.751   -34122064.436 7 -26368620.16123
 91  4  2  1 47 44.9890000  0  3G13G 2G 6
  17405037.446   -25214049.403 7 -19353386.77622
  18273538.571   -28170562.319 7 -21859416.26923
  17381788.5244  -34129934.67547 -26374752.81263
 91  4  2  1 47 59.9890000  0  3G13G 2G 6
  17399011.8534  -25245715.39547 -19378061.53462
  18273784.189   -28169272.216 7 -21858410.97823
  17380317.6734  -34137670.69947 -26380780.86763
 91  4  2  1 48 14.9890000  0  3G13G 2G 6
  17393011.6894  -25277239.26147 -19402625.54662
  18274038.509   -28167933.261 7 -21857367.62123
  17378871.8844  -34145273.50847 -26386705.12463
 91  4  2  1 48 29.9890000  0  3G13G 2G 6
  17387042.157   -25308616.865 7 -19427075.58022
  18274303.509   -28166541.466 7 -21856283.09023
  17377449.0954  -34152738.93647 -26392522.33163
 91  4  2  1 48 44.9890000  0  3G13G 2G 6
  17381098.3454  -25339847.98247 -19451411.48162
  18274578.782   -28165096.377 7 -21855157.03023
  17376054.4314  -34160066.47647 -26398232.09663
 91  4  2  1 48 59.9890000  0  3G13G 2G 6
  17375183.8924  -25370929.29347 -19475630.64662
  18274863.876   -28163594.857 7 -21853987.00123
  17374688.4704  -34167252.85047 -26403831.85963
 91  4  2  1 49 14.9890000  0  3G13G 2G 6
  17369295.2674  -25401872.11747 -19499741.89662
  18275161.040   -28162048.331 7 -21852781.90023
  17373343.8684  -34174309.12847 -26409330.24863
 91  4  2  1 49 29.9890000  0  3G13G 2G 6
  17363433.8454  -25432674.07047 -19523743.38062
  18275461.751   -28160454.297 7 -21851539.78223
  17372027.649   -34181233.041 7 -26414725.49523
 91  4  2  1 49 44.9890000  0  3G13G 2G 6
  17357599.8214  -25463331.95047 -19547632.59762
  18275776.876   -28158809.329 7 -21850257.97623
  17370735.5094  -34188021.06447 -26420014.85163
 91  4  2  1 49 59.9890000  0  3G13G 2G 6
  17351793.368   -25493844.830 7 -19571408.82622
  18276097.6104  -28157112.36947 -21848935.65663
  17369469.6894  -34194672.09547 -26425197.46563
 91  4  2  1 50 14.9890000  0  3G13G 2G 6
  17346013.9704  -25524213.28847 -19595072.52062
  18276432.2354  -28155364.13647 -21847573.38563
  17368230.2204  -34201186.64447 -26430273.72663
 91  4  2  1 50 29.9890000  0  3G13G 2G 6
  17340263.7044  -25554437.26047 -19618623.63462
  18276773.634   -28153564.268 7 -21846170.88023
  17367016.0484  -34207564.19047 -26435243.23463
 91  4  2  1 50 44.9890000  0  3G13G 2G 6
  17334539.4784  -25584516.40447 -19642061.88462
  18277125.0794  -28151712.24647 -21844727.73663
  17365829.6814  -34213804.56647 -26440105.85163
 91  4  2  1 50 59.9890000  0  3G13G 2G 6
  17328842.5564  -25614452.18447 -19665388.42862
  18277488.2284  -28149809.88247 -21843245.36763
  17364668.0174  -34219909.11947 -26444862.63663
 91  4  2  1 51 14.9890000  0  3G13G 2G 6
  17323173.759   -25644245.344 7 -19688603.83822
  18277858.806   -28147857.526 7 -21841724.03823
  17363531.7354  -34225878.45347 -26449514.05463
